[[{"header":{"parameterUnit":"m.s-1","parameterCategory":1,"la1":31.0,"la2":29.5877,"lo1":-88.7671,"lo2":-86.6584,"dy":0.0162,"dx":0.0185,"nx":115,"ny":88,"refTime":"2024-07-26T06:00:00:Z","depth":0,"parameterNumber":2,"parameterNumberName":"U-component_of_WINDS"},"data":[0.0,0.0,0.0,0.0,0.0,0.0,0.0,0.0,0.0,0.0,0.0,0.0,0.0,0.0,0.0,0.0,0.0,0.0,0.0,0.0,0.0,0.0,0.0,0.0,0.0,0.0,0.0,0.0,0.0,0.0,0.0,0.0,0.0,0.0,0.0,0.0,0.0,0.0,0.0,0.0,0.0,0.0,0.0,0.0,0.0,0.0,0.0,0.0,0.0,0.0,0.0,0.0,0.0,0.0,0.0,0.0,0.0,0.0,0.0,0.0,0.0,0.0,0.0,0.0,0.0,0.0,0.0,0.0,0.0,0.0,0.0,0.0,0.0,0.0,0.0,0.0,0.0,0.0,0.0,0.0,0.0,0.0,0.0,0.0,0.0,0.0,0.0,0.0,0.0,0.0,0.0,0.0,0.0,0.0,0.0,0.0,0.0,0.0,0.0,0.0,0.0,0.0,0.0,0.0,0.0,0.0,0.0,0.0,0.0,0.0,0.0,0.0,0.0,0.0,0.0,0.0,0.0,0.0,0.0,0.0,0.0,0.0,0.0,0.0,0.0,0.0,0.0,0.0,0.0,0.0,0.0,0.0,0.0,0.0,0.0,0.0,0.0,0.0,0.0,0.0,0.0,0.0,0.0,0.0,0.0,0.0,0.0,0.0,0.0,0.0,0.0,0.0,0.0,0.0,0.0,0.0,0.0,0.0,0.0,0.0,0.0,0.0,0.0,0.0,0.0,0.0,0.0,0.0,0.0,0.0,0.0,0.0,0.0,0.0,0.0,0.0,0.0,0.0,0.0,0.0,0.0,0.0,0.0,0.0,0.0,0.0,0.0,0.0,0.0,0.0,0.0,0.0,0.0,0.0,0.0,0.0,0.0,0.0,0.0,0.0,0.0,0.0,0.0,0.0,0.0,0.0,0.0,0.0,0.0,0.0,0.0,0.0,0.0,0.0,0.0,0.0,0.0,0.0,0.0,0.0,0.0,0.0,0.0,0.0,0.0,0.0,0.0,0.0,0.0,0.0,0.0,0.0,0.0,0.0,0.0,0.0,0.0,0.0,0.0,0.0,0.0,0.0,0.0,0.0,0.0,0.0,0.0,0.0,0.0,0.0,0.0,0.0,0.0,0.0,0.0,0.0,0.0,0.0,0.0,0.0,0.0,0.0,0.0,0.0,0.0,0.0,0.0,0.0,0.0,0.0,0.0,0.0,0.0,0.0,0.0,0.0,0.0,0.0,0.0,0.0,0.0,0.0,0.0,0.0,0.0,0.0,0.0,0.0,0.0,0.0,0.0,0.0,0.0,0.0,0.0,0.0,0.0,0.0,0.0,0.0,0.0,0.0,0.0,0.0,0.0,0.0,0.0,0.0,0.0,0.0,0.0,0.0,0.0,0.0,0.0,0.0,0.0,0.0,0.0,0.0,0.0,0.0,0.0,0.0,0.0,0.0,0.0,0.0,0.0,0.0,0.0,0.0,0.0,0.0,0.0,0.0,0.0,0.0,0.0,0.0,0.0,0.0,0.0,0.0,0.0,0.0,0.0,0.0,0.0,0.0,0.0,0.0,0.0,0.0,0.0,0.0,0.0,0.0,0.0,0.0,0.0,0.0,0.0,0.0,0.0,0.0,0.0,0.0,0.0,0.0,0.0,0.0,0.0,0.0,0.0,0.0,0.0,0.0,0.0,0.0,0.0,0.0,0.0,0.0,0.0,0.0,0.0,0.0,0.0,0.0,0.0,0.0,0.0,0.0,0.0,0.0,0.0,0.0,0.0,0.0,0.0,0.0,0.0,0.0,0.0,0.0,0.0,0.0,0.0,0.0,0.0,0.0,0.0,0.0,0.0,0.0,0.0,0.0,0.0,0.0,0.0,0.0,0.0,0.0,0.0,0.0,0.0,0.0,0.0,0.0,0.0,0.0,0.0,0.0,0.0,0.0,0.0,0.0,0.0,0.0,0.0,0.0,0.0,0.0,0.0,0.0,0.0,0.0,0.0,0.0,0.0,0.0,0.0,0.0,0.0,0.0,0.0,0.0,0.0,0.0,0.0,0.0,0.0,0.0,0.0,0.0,0.0,0.0,0.0,0.0,0.0,0.0,0.0,0.0,0.0,0.0,0.0,0.0,0.0,0.0,0.0,0.0,0.0,0.0,0.0,0.0,0.0,0.0,0.0,0.0,0.0,0.0,0.0,0.0,0.0,0.0,0.0,0.0,0.0,0.0,0.0,0.0,0.0,0.0,0.0,0.0,0.0,0.0,0.0,0.0,0.0,0.0,0.0,0.0,0.0,0.0,0.0,0.0,0.0,0.0,0.0,0.0,0.0,0.0,0.0,0.0,0.0,0.0,0.0,0.0,0.0,0.0,0.0,0.0,0.0,0.0,0.0,0.0,0.0,0.0,0.0,0.0,0.0,0.0,0.0,0.0,0.0,0.0,0.0,0.0,0.0,0.0,0.0,0.0,0.0,0.0,0.0,0.0,0.0,0.0,0.0,0.0,0.0,0.0,0.0,0.0,0.0,0.0,0.0,0.0,0.0,0.0,0.0,0.0,0.0,0.0,0.0,0.0,0.0,0.0,0.0,0.0,0.0,0.0,0.0,0.0,0.0,0.0,0.0,0.0,0.0,0.0,0.0,0.0,0.0,0.0,0.0,0.0,0.0,0.0,0.0,0.0,0.0,0.0,0.0,0.0,0.0,0.0,0.0,0.0,0.0,0.0,0.0,0.0,0.0,0.0,0.0,0.0,0.0,0.0,0.0,0.0,0.0,0.0,0.0,0.0,0.0,0.0,0.0,0.0,0.0,0.0,0.0,0.0,0.0,0.0,0.0,0.0,0.0,0.0,0.0,0.0,0.0,0.0,0.0,0.0,0.0,0.0,0.0,0.0,0.0,0.0,0.0,0.0,0.0,0.0,0.0,0.0,0.0,0.0,0.0,0.0,0.0,0.0,0.0,0.0,0.0,0.0,0.0,0.0,0.0,0.0,0.0,0.0,0.0,0.0,0.0,0.0,0.0,0.0,0.0,0.0,0.0,0.0,0.0,0.0,0.0,0.0,0.0,0.0,0.0,0.0,0.0,0.0,0.0,0.0,0.0,0.0,0.0,0.0,0.0,0.0,0.0,0.0,0.0,0.0,0.0,0.0,0.0,0.0,0.0,0.0,0.0,0.0,0.0,0.0,0.0,0.0,0.0,0.0,0.0,0.0,0.0,0.0,0.0,0.0,0.0,0.0,0.0,0.0,0.0,0.0,0.0,0.0,0.0,0.0,0.0,0.0,0.0,0.0,0.0,0.0,0.0,0.0,0.0,0.0,0.0,0.0,0.0,0.0,0.0,0.0,0.0,0.0,0.0,0.0,0.0,0.0,0.0,0.0,0.0,0.0,0.0,0.0,0.0,0.0,0.0,0.0,0.0,0.0,0.0,0.0,0.0,0.0,0.0,0.0,0.0,0.0,0.0,0.0,0.0,0.0,0.0,0.0,0.0,0.0,0.0,0.0,0.0,0.0,0.0,0.0,0.0,0.0,0.0,0.0,0.0,0.0,0.0,0.0,0.0,0.0,0.0,0.0,0.0,0.0,0.0,0.0,0.0,0.0,0.0,0.0,0.0,0.0,0.0,0.0,0.0,0.0,0.0,0.0,0.0,0.0,0.0,0.0,0.0,0.0,0.0,0.0,0.0,0.0,0.0,0.0,0.0,0.0,0.0,0.0,0.0,0.0,0.0,0.0,0.0,0.0,0.0,0.0,0.0,0.0,0.0,0.0,0.0,0.0,0.0,0.0,0.0,0.0,0.0,0.0,0.0,0.0,0.0,0.0,0.0,0.0,0.0,0.0,0.0,0.0,0.0,0.0,0.0,0.0,0.0,0.0,0.0,0.0,0.0,0.0,0.0,0.0,0.0,0.0,0.0,0.0,0.0,0.0,0.0,0.0,0.0,0.0,0.0,0.0,0.0,0.0,0.0,0.0,0.0,0.0,0.0,0.0,0.0,0.0,0.0,0.0,0.0,0.0,0.0,0.0,0.0,0.0,0.0,0.0,0.0,0.0,0.0,0.0,0.0,0.0,0.0,0.0,0.0,0.0,0.0,0.0,0.0,0.0,0.0,0.0,0.0,0.0,0.0,0.0,0.0,0.0,0.0,0.0,0.0,0.0,0.0,0.0,0.0,0.0,0.0,0.0,0.0,0.0,0.0,0.0,0.0,0.0,0.0,0.0,0.0,0.0,0.0,0.0,0.0,0.0,0.0,0.0,0.0,0.0,0.0,0.0,0.0,0.0,0.0,0.0,1.0308,0.0,0.0,0.0,0.0,0.0,0.0,0.0,0.0,0.0,0.0,0.0,0.0,0.0,0.0,0.0,0.0,0.0,0.0,0.0,0.0,0.0,0.0,0.0,0.0,0.0,0.0,0.0,0.0,0.0,0.0,0.0,0.0,0.0,0.0,0.0,0.0,0.0,0.0,0.0,0.0,0.0,0.0,0.0,0.0,0.0,0.0,0.0,0.0,0.0,0.0,0.0,0.0,0.0,0.0,0.0,0.0,0.0,0.0,0.0,0.0,0.0,0.0,0.0,0.0,0.0,0.0,0.0,0.0,0.0,0.0,0.0,0.0,0.0,0.0,0.0,0.0,0.0,0.0,0.0,0.0,0.0,0.0,0.0,0.0,0.0,0.0,0.0,0.0,0.0,0.0,0.0,0.0,0.0,0.0,0.0,0.0,0.0,0.0,0.0,0.0,0.0,0.0,0.0,0.0,0.0,0.0,0.0,0.0,0.0,0.0,1.3049,1.2532,1.2121,1.1445,1.051,0.0,0.0,0.0,0.0,0.0,0.0,0.0,0.0,0.0,0.0,0.0,0.0,0.0,0.0,0.0,0.0,0.0,0.0,0.0,0.0,0.0,0.0,0.0,0.0,0.0,0.0,0.0,0.0,0.0,0.0,0.0,0.0,0.0,0.0,0.0,0.0,0.0,0.0,0.0,0.0,0.0,0.0,0.0,0.0,0.0,0.0,0.0,0.0,0.0,0.0,0.0,0.0,0.0,0.0,0.0,0.0,0.0,0.0,0.0,0.0,0.0,0.0,0.0,0.0,0.0,0.0,0.0,0.0,0.0,0.0,0.0,0.0,0.0,0.0,0.0,0.0,0.0,0.0,0.0,0.0,0.0,0.0,0.0,0.0,0.0,0.0,0.0,0.0,0.0,0.0,0.0,0.0,0.0,0.0,0.0,0.0,0.0,0.0,0.0,0.0,0.0,0.0,0.0,0.0,0.0,0.0,0.0,0.0,0.0,0.0,0.0,0.0,1.2581,1.2121,1.1451,0.0,0.0,0.0,0.0,0.0,0.0,0.0,0.0,0.0,0.0,0.0,0.0,0.0,0.0,0.0,0.0,0.0,0.0,0.0,0.0,0.0,0.0,0.0,0.0,0.0,0.0,0.0,0.0,0.0,0.0,0.0,0.0,0.0,0.0,0.0,0.0,0.0,0.0,0.0,0.0,0.0,0.0,0.0,0.0,0.0,0.0,0.0,0.0,0.0,0.0,0.0,0.0,0.0,0.0,0.0,0.0,0.0,0.0,0.0,0.0,0.0,0.0,0.0,0.0,0.0,0.0,0.0,0.0,0.0,0.0,0.0,0.0,0.0,0.0,0.0,0.0,0.0,0.0,0.0,0.0,0.0,0.0,0.0,0.0,0.0,0.0,0.0,0.0,0.0,0.0,0.0,0.0,0.0,0.0,0.0,0.0,0.0,0.0,0.0,0.0,0.0,0.0,0.0,0.0,0.0,0.0,0.0,0.0,0.0,0.0,1.2391,1.5006,1.4412,0.0,1.3489,0.0,0.0,0.0,0.0,0.0,0.0,0.0,0.0,0.0,0.0,0.0,0.0,0.0,0.0,0.0,0.0,0.0,0.0,0.0,0.0,0.0,0.0,0.0,0.0,0.0,0.0,0.0,0.0,0.0,0.0,0.0,0.0,0.0,0.0,0.0,0.0,0.0,0.0,0.0,0.0,0.0,0.0,0.0,0.0,0.0,0.0,0.0,0.0,0.0,0.0,0.0,0.0,0.0,0.0,0.0,0.0,0.0,0.0,0.0,0.0,0.0,0.0,0.0,0.0,0.0,0.0,0.0,0.0,0.0,0.0,0.0,0.0,0.0,0.0,0.0,0.0,0.0,0.0,0.0,0.0,0.0,0.0,0.0,0.0,0.0,0.0,0.0,0.0,0.0,0.0,0.0,0.0,0.0,0.0,0.0,0.0,0.0,0.0,0.0,0.0,0.0,0.0,0.0,0.0,0.0,0.0,0.0,0.0,0.0,0.0,0.0,1.4137,1.3786,1.3183,0.0,0.0,0.0,0.0,0.0,0.0,0.0,0.0,0.0,0.0,0.0,0.0,0.0,0.0,0.0,0.0,0.0,0.0,0.0,0.0,0.0,0.0,0.0,0.0,0.0,0.0,0.0,0.0,0.0,0.0,0.0,0.0,0.0,0.0,0.0,0.0,0.0,0.0,0.0,0.0,0.0,0.0,0.0,0.0,0.0,0.0,0.0,0.0,0.0,0.0,0.0,0.0,0.0,0.0,0.0,0.0,0.0,0.0,0.0,0.0,0.0,0.0,0.0,0.0,0.0,0.0,0.0,0.0,0.0,0.0,0.0,0.0,0.0,0.0,0.0,0.0,0.0,0.0,0.0,0.0,0.0,0.0,0.0,0.0,0.0,0.0,0.0,0.0,0.0,0.0,0.0,0.0,0.0,0.0,0.0,0.0,0.0,0.0,0.0,0.0,0.0,0.0,0.0,0.0,0.0,0.0,0.0,0.0,0.0,0.0,1.3631,0.0,1.4199,1.3579,1.2738,1.1713,0.0,0.0,0.0,0.0,0.0,0.0,0.0,0.0,0.0,0.0,0.0,0.0,0.0,0.0,0.0,0.0,0.0,0.0,0.0,0.0,0.0,0.0,0.0,0.0,0.0,0.0,0.0,0.0,0.0,0.0,0.0,0.0,0.0,0.0,0.0,0.0,0.0,0.0,0.0,0.0,0.0,0.0,0.0,0.0,0.0,0.0,0.0,0.0,0.0,0.0,0.0,0.0,0.0,0.0,0.0,0.0,0.0,0.0,0.0,0.0,0.0,0.0,0.0,0.0,0.0,0.0,0.0,0.0,0.0,0.0,0.0,0.0,0.0,0.0,0.0,0.0,0.0,0.0,0.0,0.0,0.0,0.0,0.0,0.0,0.0,0.0,0.0,0.0,0.0,0.0,0.0,0.0,0.0,0.0,0.0,0.0,0.0,0.0,0.0,0.0,0.0,0.0,0.0,0.0,0.0,0.0,0.0,0.0,0.0,1.4444,1.4382,1.6384,1.4622,1.3272,0.0,0.0,0.0,0.0,0.0,0.0,0.0,0.0,0.0,0.0,0.0,0.0,0.0,0.0,0.0,0.0,0.0,0.0,0.0,0.0,0.0,0.0,0.0,0.0,0.0,0.0,0.0,0.0,0.0,0.0,0.0,0.0,0.0,0.0,0.0,0.0,0.0,0.0,0.0,0.0,0.0,0.0,0.0,0.0,0.0,0.0,0.0,0.0,0.0,0.0,0.0,0.0,0.0,0.0,0.0,0.0,0.0,0.0,0.0,0.0,0.0,0.0,0.0,0.0,0.0,0.0,0.0,0.0,0.0,0.0,0.0,0.0,0.0,0.0,0.0,0.0,0.0,0.0,0.0,0.0,0.0,0.0,0.0,0.0,0.0,0.0,0.0,0.0,0.0,0.0,0.0,0.0,0.0,0.0,0.0,0.0,0.0,0.0,0.0,0.0,0.0,0.0,0.0,0.0,0.0,0.0,0.0,0.0,0.0,1.2221,1.2866,1.4435,1.6919,1.4469,1.3065,0.0,0.0,0.0,0.0,0.0,0.0,0.0,0.0,0.0,0.0,0.0,0.0,0.0,0.0,0.0,0.0,0.0,0.0,0.0,0.0,0.0,0.0,0.0,0.0,0.0,0.0,0.0,0.0,0.0,0.0,0.0,0.0,0.0,0.0,0.0,0.0,0.0,0.0,0.0,0.0,0.0,0.0,0.0,0.0,0.0,0.0,0.0,0.0,0.0,0.0,0.0,0.0,0.0,0.0,0.0,0.0,0.0,0.0,0.0,0.0,0.0,0.0,0.0,0.0,0.0,0.0,0.0,0.0,0.0,0.0,0.0,0.0,0.0,0.0,0.0,0.0,0.0,0.0,0.0,0.0,0.0,0.0,0.0,0.0,0.0,0.0,0.0,0.0,0.0,0.0,0.0,0.0,0.0,0.0,0.0,0.0,0.0,0.0,0.0,0.0,0.0,0.0,0.0,0.0,0.0,0.0,0.0,0.0,0.0,1.1641,0.0,1.5264,0.0,1.426,1.2613,0.0,0.0,0.0,0.0,0.0,0.0,0.0,0.0,0.0,0.0,0.0,0.0,0.0,0.0,0.0,0.0,0.0,0.0,0.0,0.0,0.0,0.0,0.0,0.0,0.0,0.0,0.0,0.0,0.0,0.0,0.0,0.0,0.0,0.0,0.0,0.0,0.0,0.0,0.0,0.0,0.0,0.0,0.0,0.0,0.0,0.0,0.0,0.0,0.0,0.0,0.0,0.0,0.0,0.0,0.0,0.0,0.0,0.0,0.0,0.0,0.0,0.0,0.0,0.0,0.0,0.0,0.0,0.0,0.0,0.0,0.0,0.0,0.0,0.0,0.0,0.0,0.0,0.0,0.0,0.0,0.0,0.0,0.0,0.0,0.0,0.0,0.0,0.0,0.0,0.0,0.0,0.0,0.0,0.0,0.0,0.0,0.0,0.0,0.0,0.0,0.0,0.0,0.0,0.0,0.0,0.0,0.0,0.0,1.1657,1.5405,1.6733,1.6677,1.5383,1.4062,1.2015,0.0,0.0,0.0,0.0,0.0,0.0,0.0,0.0,0.0,0.0,0.0,0.0,0.0,0.0,0.0,0.0,0.0,0.0,0.0,0.0,0.0,0.0,0.0,0.0,0.0,0.0,0.0,0.0,0.0,0.0,0.0,0.0,0.0,0.0,0.0,0.0,0.0,0.0,0.0,0.0,0.0,0.0,0.0,0.0,0.0,0.0,0.0,0.0,0.0,0.0,0.0,0.0,0.0,0.0,0.0,0.0,0.0,0.0,0.0,0.0,0.0,0.0,0.0,0.0,0.0,0.0,0.0,0.0,0.0,0.0,0.0,0.0,0.0,0.0,0.0,0.0,0.0,0.0,0.0,0.0,0.0,0.0,0.0,0.0,0.0,0.0,0.0,0.0,0.0,0.0,0.0,0.0,0.0,0.0,0.0,0.0,0.0,0.0,0.0,0.0,0.0,0.0,0.0,0.0,0.0,0.0,0.0,0.0,0.0,1.2965,1.4669,1.5858,1.6292,1.3956,1.2612,0.0,0.0,0.0,0.0,0.0,0.0,0.0,0.0,0.0,0.0,0.0,0.0,0.0,0.0,0.0,0.0,0.0,0.0,0.0,0.0,0.0,0.0,0.0,0.0,0.0,0.0,0.0,0.0,0.0,0.0,0.0,0.0,0.0,0.0,0.0,0.0,0.0,0.0,0.0,0.0,0.0,0.0,0.0,0.0,0.0,0.0,0.0,0.0,0.0,0.0,0.0,0.0,0.0,0.0,0.0,0.0,0.0,0.0,0.0,0.0,0.0,0.0,0.0,0.0,0.0,0.0,0.0,0.0,0.0,0.0,0.0,0.0,0.0,0.0,0.0,0.0,0.0,0.0,0.0,0.0,0.0,0.0,0.0,0.0,0.0,0.0,0.0,0.0,0.0,0.0,0.0,0.0,0.0,0.0,0.0,0.0,0.0,0.0,0.0,0.0,0.0,0.0,0.0,0.0,0.0,0.0,0.0,0.0,0.0,1.3669,1.5537,1.6562,1.6519,1.4341,1.3146,1.3102,0.0,0.0,0.0,0.0,0.0,0.0,0.0,0.0,0.0,0.0,0.0,0.0,0.0,0.0,0.0,0.0,0.0,0.0,0.0,0.0,0.0,0.0,0.0,0.0,0.0,0.0,0.0,0.0,0.0,0.0,0.0,0.0,0.0,0.0,0.0,0.0,0.0,0.0,0.0,0.0,0.0,0.0,0.0,0.0,0.0,0.0,0.0,0.0,0.0,0.0,0.0,0.0,0.0,0.0,0.0,0.0,0.0,0.0,0.0,0.0,0.0,0.0,0.0,0.0,0.0,0.0,0.0,0.0,0.0,0.0,0.0,0.0,0.0,0.0,0.0,0.0,0.0,0.0,0.0,0.0,0.0,0.0,0.0,0.0,0.0,0.0,0.0,0.0,0.0,0.0,0.0,0.0,0.0,0.0,0.0,0.0,0.0,0.0,0.0,0.0,0.0,0.0,0.0,0.0,0.0,0.0,0.0,0.0,1.6697,1.8747,1.8628,1.6248,1.5238,1.3753,0.0,0.0,0.0,0.0,0.0,0.0,0.0,0.0,0.0,0.0,0.0,0.0,0.0,0.0,0.0,0.0,0.0,0.0,0.0,0.0,0.0,0.0,0.0,0.0,0.0,0.0,0.0,0.0,0.0,0.0,0.0,0.0,0.0,0.0,0.0,0.0,0.0,0.0,0.0,0.0,0.0,0.0,0.0,0.0,0.0,0.0,0.0,0.0,0.0,0.0,0.0,0.0,0.0,0.0,0.0,0.0,0.0,0.0,0.0,0.0,0.0,0.0,0.0,0.0,0.0,0.0,0.0,0.0,0.0,0.0,0.0,0.0,0.0,0.0,0.0,0.0,0.0,0.0,0.0,0.0,0.0,0.0,0.0,0.0,0.0,0.0,0.0,0.0,0.0,0.0,0.0,0.0,0.0,0.0,0.0,0.0,0.0,0.0,0.0,0.0,0.0,0.0,0.0,0.0,0.0,0.0,0.0,0.0,0.0,1.7861,1.9377,1.9741,1.8845,1.7108,1.5589,0.0,0.0,0.0,0.0,0.0,0.0,0.0,0.0,0.0,0.0,0.0,0.0,0.0,0.0,0.0,0.0,0.0,0.0,0.0,0.0,0.0,0.0,0.0,0.0,0.0,0.0,0.0,0.0,0.0,0.0,0.0,0.0,0.0,0.0,0.0,0.0,0.0,0.0,0.0,0.0,0.0,0.0,0.0,0.0,0.0,0.0,0.0,0.0,0.0,0.0,0.0,0.0,0.0,0.0,0.0,0.0,0.0,0.0,0.0,0.0,0.0,0.0,0.0,0.0,0.0,0.0,0.0,0.0,0.0,0.0,0.0,0.0,0.0,0.0,0.0,0.0,0.0,0.0,0.0,0.0,0.0,0.0,0.0,0.0,0.0,0.0,0.0,0.0,0.0,0.0,0.0,0.0,0.0,0.0,0.0,0.0,0.0,0.0,0.0,0.0,0.0,0.0,0.0,0.0,0.0,0.0,0.0,0.0,1.8075,1.9128,1.9917,2.0152,1.9813,1.8059,1.6507,0.0,0.0,0.0,0.0,0.0,0.0,0.0,0.0,0.0,0.0,0.0,0.0,0.0,0.0,0.0,0.0,0.0,0.0,0.0,0.0,0.0,0.0,0.0,0.0,0.0,0.0,0.0,0.0,0.0,0.0,0.0,0.0,0.0,0.0,0.0,0.0,0.0,0.0,0.0,0.0,0.0,0.0,0.0,0.0,0.0,0.0,0.0,0.0,0.0,0.0,0.0,0.0,0.0,0.0,0.0,0.0,0.0,0.0,0.0,0.0,0.0,0.0,0.0,0.0,0.0,0.0,0.0,0.0,0.0,0.0,0.0,0.0,0.0,0.0,0.0,0.0,0.0,0.0,0.0,0.0,0.0,0.0,0.0,0.0,0.0,0.0,0.0,0.0,0.0,0.0,0.0,0.0,0.0,0.0,0.0,0.0,0.0,0.0,0.0,0.0,0.0,0.0,0.0,0.0,0.0,0.0,0.0,0.0,1.9316,2.019,2.0247,2.0063,1.9681,1.8454,1.6929,0.0,0.0,0.0,0.0,0.0,0.0,0.0,0.0,0.0,0.0,0.0,0.0,0.0,0.0,0.0,0.0,0.0,0.0,0.0,0.0,0.0,0.0,0.0,0.0,0.0,0.0,0.0,0.0,0.0,0.0,0.0,0.0,0.0,0.0,0.0,0.0,0.0,0.0,0.0,0.0,0.0,0.0,0.0,0.0,0.0,0.0,0.0,0.0,0.0,0.0,0.0,0.0,0.0,0.0,0.0,0.0,0.0,0.0,0.0,0.0,0.0,0.0,0.0,0.0,0.0,0.0,0.0,0.0,0.0,0.0,0.0,0.0,0.0,0.0,0.0,0.0,0.0,0.0,0.0,0.0,0.0,0.0,0.0,0.0,0.0,0.0,0.0,0.0,0.0,0.0,0.0,0.0,0.0,0.0,0.0,0.0,0.0,0.0,0.0,0.0,0.0,0.0,0.0,0.0,0.0,0.0,0.0,0.0,1.8648,1.9707,1.9791,1.9767,1.9699,1.8912,1.7803,0.0,0.0,0.0,0.0,0.0,0.0,0.0,0.0,0.0,0.0,0.0,0.0,0.0,0.0,0.0,0.0,0.0,0.0,0.0,0.0,0.0,0.0,0.0,0.0,0.0,0.0,0.0,0.0,0.0,0.0,0.0,0.0,0.0,0.0,0.0,0.0,0.0,0.0,0.0,0.0,0.0,0.0,0.0,0.0,0.0,0.0,0.0,0.0,1.3925,0.0,0.0,0.0,0.0,0.0,0.0,0.0,0.0,0.0,0.0,0.0,0.0,0.0,0.0,0.0,0.0,0.0,0.0,0.0,0.0,0.0,0.0,0.0,0.0,0.0,0.0,0.0,0.0,0.0,0.0,0.0,0.0,0.0,0.0,0.0,0.0,0.0,0.0,0.0,0.0,0.0,0.0,0.0,0.0,0.0,0.0,0.0,0.0,0.0,0.0,0.0,0.0,0.0,0.0,0.0,0.0,0.0,0.0,0.0,1.9209,1.9589,1.9426,1.9207,1.8954,1.8589,1.7879,0.0,0.0,0.0,0.0,0.0,0.0,0.0,0.0,0.0,0.0,0.0,0.0,0.0,0.0,0.0,0.0,0.0,0.0,0.0,0.0,0.0,0.0,0.0,0.0,0.0,0.0,0.0,0.0,0.0,0.0,0.0,0.0,0.0,0.0,0.0,0.0,0.0,0.0,0.0,0.0,0.0,0.0,0.0,0.0,0.0,0.0,0.0,0.0,0.0,0.0,0.0,0.0,0.0,0.0,0.0,0.0,0.0,0.0,0.0,0.0,0.0,0.0,0.0,0.0,0.0,0.0,0.0,0.0,0.0,0.0,0.0,0.0,0.0,0.0,0.0,0.0,0.0,0.0,0.0,0.0,0.0,0.0,0.0,0.0,0.0,0.0,0.0,0.0,0.0,0.0,0.0,0.0,0.0,0.0,0.0,0.0,0.0,0.0,0.0,0.0,0.0,0.0,0.0,0.0,0.0,0.0,0.0,1.8775,1.9657,1.9471,1.9014,1.8564,1.8102,1.8092,1.7608,1.6531,0.0,0.0,0.0,0.0,0.0,0.0,0.0,0.0,0.0,0.0,0.0,0.0,0.0,0.0,0.0,0.0,0.0,0.0,0.0,0.0,0.0,0.0,0.0,0.0,0.0,0.0,0.0,0.0,0.0,0.0,0.0,0.0,0.0,0.0,0.0,0.0,0.0,0.0,1.3669,1.5033,0.0,0.0,0.0,0.0,0.0,0.0,0.0,0.0,1.5766,0.0,0.0,0.0,0.0,0.0,0.0,0.0,0.0,0.0,0.0,0.0,0.0,0.0,0.0,0.0,0.0,0.0,0.0,0.0,0.0,0.0,0.0,0.0,0.0,0.0,0.0,0.0,0.0,0.0,0.0,0.0,0.0,0.0,0.0,0.0,0.0,0.0,0.0,0.0,0.0,0.0,0.0,0.0,0.0,0.0,0.0,0.0,0.0,0.0,0.0,0.0,0.0,0.0,0.0,0.0,0.0,1.8928,1.777,1.7741,1.897,1.8492,1.8204,1.8092,1.8092,1.7334,1.5766,0.0,0.0,0.0,0.0,0.0,0.0,0.0,0.0,0.0,0.0,0.0,0.0,0.0,0.0,0.0,0.0,0.0,0.0,0.0,0.0,0.0,0.0,0.0,0.0,0.0,0.0,0.0,0.0,0.0,0.0,0.0,0.0,0.0,0.0,0.0,0.0,0.0,0.0,0.0,1.7709,1.8567,0.0,0.0,0.0,0.0,0.0,0.0,0.0,0.0,1.6241,0.0,0.0,0.0,0.0,0.0,0.0,0.0,0.0,0.0,0.0,0.0,0.0,0.0,0.0,0.0,0.0,0.0,0.0,0.0,0.0,0.0,0.0,0.0,0.0,0.0,0.0,0.0,0.0,0.0,0.0,0.0,0.0,0.0,0.0,0.0,0.0,0.0,0.0,0.0,0.0,0.0,0.0,0.0,0.0,0.0,0.0,0.0,0.0,0.0,0.0,0.0,0.0,0.0,0.0,0.0,1.7542,1.7946,1.8091,1.8074,1.7827,1.7568,1.7268,1.6731,1.6009,0.0,0.0,0.0,0.0,0.0,0.0,0.0,0.0,0.0,0.0,0.0,0.0,0.0,0.0,0.0,0.0,0.0,0.0,0.0,0.0,0.0,0.0,0.0,0.0,0.0,0.0,0.0,0.0,0.0,0.0,0.0,0.0,0.0,0.0,0.0,0.0,0.0,0.0,0.0,0.0,1.8262,1.9057,1.9003,0.0,0.0,0.0,0.0,0.0,0.0,1.7036,1.676,0.0,0.0,0.0,0.0,0.0,0.0,0.0,0.0,0.0,0.0,0.0,0.0,0.0,0.0,0.0,0.0,0.0,0.0,0.0,0.0,0.0,0.0,0.0,0.0,0.0,0.0,0.0,0.0,0.0,0.0,0.0,0.0,0.0,0.0,0.0,0.0,0.0,0.0,0.0,0.0,0.0,0.0,0.0,0.0,0.0,0.0,0.0,0.0,0.0,0.0,0.0,0.0,0.0,0.0,0.0,1.6017,1.7819,1.8285,1.7347,1.7198,1.693,1.6497,1.5688,1.4968,0.0,0.0,0.0,0.0,0.0,0.0,0.0,0.0,0.0,0.0,0.0,0.0,0.0,0.0,0.0,0.0,0.0,0.0,0.0,0.0,0.0,0.0,0.0,0.0,0.0,0.0,0.0,0.0,0.0,0.0,0.0,0.0,0.0,0.0,0.0,0.0,0.0,0.0,0.0,0.0,0.0,1.9659,2.0255,1.927,0.0,0.0,0.0,0.0,1.7746,1.7718,0.0,0.0,0.0,0.0,0.0,0.0,0.0,0.0,0.0,0.0,0.0,0.0,0.0,0.0,0.0,0.0,0.0,0.0,0.0,0.0,0.0,0.0,0.0,0.0,0.0,0.0,0.0,0.0,0.0,0.0,0.0,0.0,0.0,0.0,0.0,0.0,0.0,0.0,0.0,0.0,0.0,0.0,0.0,0.0,0.0,0.0,0.0,0.0,0.0,0.0,0.0,0.0,0.0,0.0,0.0,0.0,1.5873,1.5926,1.6358,1.7225,1.6837,1.6552,1.6509,1.6375,1.5389,0.0,0.0,0.0,0.0,0.0,0.0,0.0,0.0,0.0,0.0,0.0,0.0,0.0,0.0,0.0,0.0,0.0,0.0,0.0,0.0,0.0,0.0,0.0,0.0,0.0,0.0,0.0,0.0,0.0,0.0,0.0,0.0,0.0,0.0,0.0,0.0,0.0,0.0,0.0,0.0,0.0,2.1945,2.0072,2.0374,2.0564,0.0,0.0,1.9821,2.0055,1.9576,0.0,0.0,0.0,0.0,0.0,0.0,0.0,0.0,0.0,0.0,0.0,0.0,0.0,0.0,0.0,0.0,0.0,0.0,0.0,0.0,0.0,0.0,0.0,0.0,0.0,0.0,0.0,0.0,0.0,0.0,0.0,0.0,0.0,0.0,0.0,0.0,0.0,0.0,0.0,0.0,0.0,0.0,0.0,0.0,0.0,0.0,0.0,0.0,0.0,0.0,0.0,0.0,0.0,0.0,0.0,1.3496,1.5169,1.6064,1.6595,1.6833,1.6616,1.6513,1.65,1.5896,1.4926,0.0,0.0,0.0,0.0,0.0,0.0,0.0,0.0,0.0,0.0,0.0,0.0,0.0,0.0,0.0,0.0,0.0,0.0,0.0,0.0,0.0,0.0,0.0,0.0,0.0,0.0,0.0,0.0,0.0,0.0,0.0,0.0,0.0,0.0,0.0,0.0,0.0,0.0,0.0,0.0,0.0,0.0,2.112,2.1143,0.0,0.0,0.0,2.0202,1.9909,0.0,0.0,0.0,0.0,0.0,0.0,0.0,0.0,0.0,0.0,0.0,0.0,0.0,0.0,0.0,0.0,0.0,0.0,0.0,0.0,0.0,0.0,0.0,0.0,0.0,0.0,0.0,0.0,0.0,0.0,0.0,0.0,0.0,0.0,0.0,0.0,0.0,0.0,0.0,0.0,0.0,0.0,0.0,0.0,0.0,0.0,0.0,0.0,0.0,0.0,0.0,0.0,0.0,0.0,0.0,0.0,0.0,1.4593,1.6249,1.6911,1.6511,1.6513,1.6513,1.6488,1.558,0.0,0.0,0.0,0.0,0.0,0.0,0.0,0.0,0.0,0.0,0.0,0.0,0.0,0.0,0.0,0.0,0.0,0.0,0.0,0.0,0.0,0.0,0.0,0.0,0.0,0.0,0.0,0.9114,0.0,0.0,0.0,0.0,0.0,0.0,0.0,0.0,0.0,0.0,0.0,0.0,0.0,0.0,2.1072,2.1718,2.1435,2.1025,0.0,0.0,2.0391,1.9734,1.9632,1.9208,0.0,0.0,0.0,0.0,0.0,0.0,0.0,0.0,0.0,0.0,0.0,0.0,0.0,0.0,0.0,0.0,0.0,0.0,0.0,0.0,0.0,0.0,0.0,0.0,0.0,0.0,0.0,0.0,0.0,0.0,0.0,0.0,0.0,0.0,0.0,0.0,0.0,0.0,0.0,0.0,0.0,0.0,0.0,0.0,0.0,0.0,0.0,0.0,0.0,0.0,0.0,0.0,0.0,0.0,0.0,1.4598,1.5896,1.6543,1.6511,1.6513,1.6513,1.6488,1.5944,1.489,0.0,0.0,0.0,0.0,0.0,0.0,0.0,0.0,0.0,0.0,0.0,0.0,0.0,0.0,0.0,0.0,0.0,0.0,0.0,0.0,0.0,0.0,0.0,0.0,0.0,0.0,0.0,0.0,0.0,0.0,0.0,0.0,0.0,0.0,0.0,0.0,0.0,0.0,0.0,0.0,0.0,2.099,2.0979,2.1007,2.0986,0.0,0.0,2.0802,2.0303,2.0233,1.9669,1.7979,0.0,0.0,0.0,0.0,0.0,0.0,0.0,0.0,0.0,0.0,0.0,0.0,0.0,0.0,0.0,0.0,0.0,0.0,0.0,0.0,0.0,0.0,0.0,0.0,0.0,0.0,0.0,0.0,0.0,0.0,0.0,0.0,0.0,0.0,0.0,0.0,0.0,0.0,0.0,0.0,0.0,0.0,0.0,0.0,0.0,0.0,0.0,0.0,0.0,0.0,0.0,0.0,0.0,1.3017,1.4052,1.5667,1.6513,1.6513,1.6513,1.6513,1.6513,1.6287,1.5497,0.0,0.0,0.0,0.0,0.0,0.0,0.0,0.0,0.0,0.0,0.0,0.0,0.0,0.0,0.0,0.0,0.0,0.0,0.0,0.0,0.0,0.0,0.0,0.0,0.0,0.0,0.0,0.0,0.9695,0.9902,0.9977,0.0,0.0,0.0,0.0,0.0,0.0,0.0,0.0,0.0,0.0,2.0569,2.054,2.0807,0.0,0.0,2.0566,2.0487,2.0327,1.9745,1.8951,1.7864,1.6951,0.0,0.0,0.0,0.0,0.0,0.0,0.0,0.0,0.0,0.0,0.0,0.0,0.0,0.0,0.0,0.0,0.0,0.0,0.0,0.0,0.0,0.0,0.0,0.0,0.0,0.0,0.0,0.0,0.0,0.0,0.0,0.0,0.0,0.0,0.0,0.0,0.0,0.0,0.0,0.0,0.0,0.0,0.0,0.0,0.0,0.0,0.0,0.0,0.0,0.0,0.0,0.0,1.2838,1.3702,1.5551,1.6513,1.6513,1.6513,1.6513,1.65,1.6348,1.5679,0.0,0.0,0.0,0.0,0.0,0.0,0.0,0.0,0.0,0.0,0.0,0.0,0.0,0.0,0.0,0.0,0.0,0.0,0.0,0.0,0.0,0.0,0.0,0.0,0.0,0.0,0.0,0.0,0.9806,0.9972,0.9908,0.0,0.0,0.0,0.0,0.0,0.0,0.0,0.0,0.0,0.0,2.0057,2.0273,2.0578,2.0629,2.0185,2.0231,2.0264,2.015,1.9476,1.8768,1.8102,0.0,0.0,0.0,0.0,0.0,0.0,0.0,0.0,0.0,0.0,0.0,0.0,0.0,0.0,0.0,0.0,0.0,0.0,0.0,0.0,0.0,0.0,0.0,0.0,0.0,0.0,0.0,0.0,0.0,0.0,0.7977,0.0,0.0,0.0,0.0,0.0,0.0,0.0,0.0,0.0,0.0,0.0,0.0,0.0,0.0,0.0,0.0,0.0,0.0,0.0,0.0,0.0,0.0,1.2718,1.3711,1.5541,1.6513,1.6513,1.6513,1.6513,1.6488,1.6007,1.5211,1.4112,0.0,0.0,0.0,0.0,0.0,0.0,0.0,0.0,0.0,0.0,0.0,0.0,0.0,0.0,0.0,0.0,0.0,0.0,0.0,0.0,0.0,0.0,0.0,0.0,0.0,0.0,0.8931,0.9565,0.9871,0.0,0.0,0.0,0.0,0.0,0.0,0.0,0.0,0.0,0.0,1.9038,1.948,2.0187,2.0319,2.0173,1.9777,2.0047,2.0159,1.978,1.9678,1.9444,0.0,0.0,0.0,0.0,0.0,0.0,0.0,0.0,0.0,0.0,0.0,0.0,0.0,0.0,0.0,0.0,0.0,0.0,0.0,0.0,0.0,0.0,0.0,0.0,0.0,0.0,0.0,1.0894,1.0062,0.0,0.0,0.0,0.0,0.0,0.0,0.0,0.0,0.0,0.0,0.0,1.4299,1.4857,0.0,0.0,0.0,0.0,0.0,0.0,0.0,0.0,0.0,0.0,0.0,0.0,1.3237,1.4011,1.5641,1.6513,1.6513,1.6513,1.6513,1.6511,1.6335,1.5379,1.3559,0.0,0.0,0.0,0.0,0.0,0.0,0.0,0.0,0.0,0.0,0.0,0.0,0.0,0.0,0.0,0.0,0.0,0.0,0.0,0.0,0.0,0.0,0.0,0.0,0.0,0.8779,0.0,0.0,0.0,0.0,0.0,0.0,0.0,0.0,0.0,0.0,0.0,1.7716,1.8905,1.9036,1.9215,1.9817,1.9896,1.9859,0.0,0.0,0.0,0.0,0.0,0.0,0.0,0.0,0.0,0.0,0.0,0.0,0.0,0.0,1.7228,1.622,1.5581,1.5129,1.4844,0.0,0.0,0.0,0.0,0.0,0.0,0.0,0.0,0.0,0.0,0.0,0.0,0.0,0.0,1.2471,0.0,1.1583,0.0,0.0,0.0,0.0,0.0,0.0,0.0,0.0,1.4915,1.5232,1.4916,1.5503,1.5271,0.0,1.4338,1.3275,0.0,0.0,0.0,0.0,0.0,0.0,0.0,0.0,1.3652,1.4393,1.5768,1.6513,1.6513,1.6513,1.6513,1.6511,1.6323,1.5447,1.3839,1.3314,1.2123,0.0,0.0,0.0,0.0,0.0,0.0,0.0,0.0,0.0,0.0,0.0,0.0,0.0,0.0,0.0,0.0,0.0,0.0,0.0,0.0,0.0,0.0,0.0,0.9123,0.0,0.0,0.0,0.0,0.0,0.0,0.0,0.0,0.0,1.671,1.718,1.7824,1.8957,1.8983,1.9039,1.9378,0.0,0.0,0.0,0.0,0.0,0.0,0.0,1.8365,1.8025,1.7611,1.7127,1.6555,1.6982,1.7366,1.7134,0.0,0.0,1.6798,1.6131,1.5724,1.5724,1.5972,1.5984,1.5339,1.6188,1.6907,0.0,0.0,0.0,0.0,0.0,0.0,0.0,0.0,1.4307,1.4201,0.0,1.3501,0.0,0.0,0.0,0.0,0.0,1.4891,0.0,0.0,1.6612,1.6655,1.5654,1.6162,1.5871,1.489,1.5845,1.5569,1.4036,1.233,0.0,0.0,0.0,0.0,0.0,0.0,1.3995,1.488,1.5948,1.6513,1.6513,1.6513,1.6513,1.6488,1.6019,1.549,1.4928,1.4173,1.3202,1.1986,1.1182,0.0,0.0,0.0,0.0,0.0,0.0,0.0,0.0,0.0,0.0,0.0,0.0,0.0,0.0,0.0,0.0,0.0,0.0,0.0,0.0,0.958,0.0,0.0,0.0,0.0,0.0,0.0,0.0,0.0,0.0,0.0,1.6328,1.7047,1.792,1.8749,0.0,0.0,0.0,0.0,1.9199,1.8261,1.8473,1.8618,1.8202,1.8116,1.8088,1.8082,0.0,0.0,1.719,1.7596,1.7795,1.7217,1.7571,1.804,1.7978,1.7443,1.7058,1.7058,1.7016,1.7071,1.7098,1.7397,1.7947,1.5314,0.0,0.0,0.0,0.0,1.5481,1.5917,1.6258,1.6269,1.5888,1.5207,1.5041,0.0,0.0,0.0,0.0,0.0,0.0,1.5485,1.5704,1.6162,1.603,1.5414,1.5567,1.5326,1.4755,1.5061,1.4977,1.4504,1.3639,1.2709,1.1777,0.0,0.0,0.0,0.0,1.4854,1.4893,1.5936,1.6513,1.6513,1.6513,1.6513,1.6513,1.636,1.6019,1.549,1.5251,1.4407,1.2914,1.2378,0.0,0.0,0.0,0.0,0.0,0.0,0.0,0.0,0.0,0.0,0.0,0.0,0.0,0.0,0.0,0.0,0.0,0.0,0.0,0.9192,0.9244,0.9922,0.0,0.0,0.0,0.0,0.0,0.0,0.0,0.0,0.0,1.6256,1.6931,1.7619,0.0,0.0,1.7894,1.8269,1.8468,1.8424,1.8126,1.8222,0.0,0.0,1.8102,1.7963,1.7585,1.7219,1.6899,1.6713,1.6829,1.6905,1.6687,1.6834,1.6971,1.6962,1.7133,1.72,1.721,1.6952,1.6698,1.67,1.7136,1.7528,1.624,1.5284,1.5696,1.5838,1.5786,1.6051,1.6375,1.6678,1.6678,1.6454,1.6108,1.5905,1.537,1.4629,1.457,0.0,0.0,0.0,1.581,1.5867,1.5959,1.5708,1.5247,1.5262,1.5043,1.4591,1.4649,1.4709,1.4698,1.4373,1.37,1.2736,0.0,0.0,1.3043,1.4424,1.5275,1.549,1.6143,1.6391,1.6128,1.6151,1.6139,1.6139,1.638,1.635,1.6022,1.5806,1.515,1.3926,1.3243,1.2035,0.0,0.0,0.0,0.0,0.0,0.0,0.0,0.0,0.0,0.0,0.0,1.0414,0.9708,0.0,0.0,0.0,0.9756,0.9966,1.0228,1.0773,0.0,0.0,0.0,0.0,0.0,0.0,0.0,1.5318,1.5267,1.527,1.5615,1.6021,1.6646,1.7656,1.7507,1.7412,1.7747,0.0,1.7703,1.75,1.7463,1.7474,1.7471,1.7468,1.7353,1.7045,1.6527,1.616,1.6128,1.5962,1.5785,1.5787,1.5788,1.5863,1.6094,1.6409,1.6714,1.693,1.6733,1.6511,1.6513,1.6754,1.6977,1.6731,1.6788,1.6701,1.6637,1.6577,1.628,1.6155,1.6133,1.6124,1.6375,1.6799,1.628,1.6047,1.5993,1.586,0.0,1.5184,1.6116,1.6204,1.5768,1.5745,1.5484,1.4994,1.5105,1.4861,1.4318,1.4509,1.4582,1.456,1.4526,1.4304,1.3806,1.3258,1.3544,1.4604,1.4749,1.5287,1.627,1.6315,1.6086,1.5543,1.5521,1.5532,1.5532,1.6118,1.6398,1.6337,1.5938,1.5427,1.4843,1.3839,1.2639,1.1254,0.0,0.0,0.0,0.0,0.0,0.0,0.0,0.0,0.0,0.0,0.0,0.0,0.0,0.0,0.0,1.1766,0.0,1.2041,1.3284,0.0,0.0,0.0,1.4012,1.5427,1.4871,1.4651,1.5264,0.0,0.0,1.4709,1.4709,1.5275,1.688,1.7102,1.7092,1.7092,1.7102,1.6977,1.6514,1.6445,1.6436,1.6466,1.6405,1.6335,1.6281,1.5898,1.5543,1.5509,1.513,1.4753,1.4785,1.4721,1.4881,1.543,1.5561,1.5709,1.6303,1.6468,1.6513,1.6511,1.6532,1.6565,1.7045,1.7663,1.7348,1.7004,1.6713,1.7186,1.737,1.7339,1.704,1.7068,1.7306,1.6844,1.6382,1.5965,1.5336,1.4912,1.4659,1.4287,1.3984,1.3705,1.3708,1.3787,1.3947,1.3987,1.3892,1.3722,1.3754,1.3619,1.3342,1.3332,1.326,1.3135,1.2988,1.3096,1.3453,1.4283,1.462,1.4445,1.4903,1.5051,1.4926,1.4915,1.4915,1.4926,1.5499,1.5629,1.5223,1.5529,1.5261,1.4355,1.4022,1.3281,1.2012,1.0955,0.0,0.0,0.0,0.0,0.0,0.0,0.0,0.0,0.0,1.3079,1.0764,0.0,1.2695,0.0,1.2854,1.2824,1.2362,1.299,0.0,0.0,1.471,1.4586,1.6013,1.5166,1.4568,1.4829,1.4755,1.4707,1.4709,1.4709,1.4835,1.5264,1.532,1.5309,1.532,1.5719,1.5966,1.5845,1.5811,1.5814,1.579,1.5426,1.5164,1.5141,1.4994,1.4915,1.4903,1.4801,1.471,1.4711,1.4709,1.4783,1.4881,1.4911,1.513,1.5676,1.6183,1.6513,1.6513,1.6513,1.6513,1.628,1.6723,1.6514,1.6278,1.6083,1.6951,1.73,1.728,1.7063,1.7051,1.7093,1.6423,1.5739,1.5037,1.4459,1.4122,1.3966,1.3409,1.3105,1.3,1.3009,1.3127,1.3324,1.3145,1.3224,1.3505,1.2975,1.2709,1.2701,1.2371,1.2257,1.2415,1.2415,1.2428,1.252,1.369,1.4248,1.4202,1.4248,1.4284,1.4295,1.4295,1.4433,1.4698,1.5287,1.548,1.521,1.5529,1.5211,1.4179,1.4272,1.3813,1.2626,1.1844,1.1145,0.0,0.0,0.0,0.0,0.0,0.0,0.0,0.0,0.0,0.0,0.0,1.346,1.3171,1.375,1.3908,1.3343,1.4093,1.4853,1.5404,1.4857,1.4752,1.5568,1.4773,1.4213,1.4298,1.4054,1.3898,1.3894,1.3895,1.3895,1.3907,1.3918,1.4106,1.4617,1.4994,1.5193,1.5219,1.52,1.521,1.5188,1.4926,1.4709,1.4675,1.448,1.4306,1.4283,1.4078,1.3898,1.3905,1.3889,1.4004,1.4228,1.4299,1.4491,1.5051,1.5455,1.5877,1.6392,1.6513,1.6513,1.5141,1.5199,1.5199,1.5199,1.5246,1.6136,1.6507,1.6507,1.6434,1.6386,1.6306,1.5491,1.4647,1.3892,1.3486,1.33,1.3211,1.2905,1.2729,1.2704,1.2704,1.2749,1.284,1.2502,1.2726,1.338,1.2295,1.2007,1.2378,1.1657,1.1441,1.1708,1.1683,1.1665,1.1715,1.2831,1.3758,1.4433,1.3944,1.3684,1.3696,1.3684,1.3932,1.4456,1.5004,1.5297,1.535,1.5436,1.5064,1.4179,1.4498,1.4275,1.3279,1.2784,1.2306,0.0,1.1171,0.0,0.0,0.0,0.0,0.0,0.0,0.0,0.0,1.4367,1.4019,1.3316,1.452,1.5079,1.4391,1.5456,1.5784,1.4824,1.464,1.4549,1.4457,1.3913,1.3511,1.3442,1.2963,1.2627,1.263,1.263,1.2652,1.2764,1.2801,1.3204,1.4189,1.4503,1.4586,1.4592,1.4586,1.4546,1.4443,1.4432,1.441,1.4364,1.4014,1.3696,1.3684,1.3274,1.2939,1.2942,1.299,1.3125,1.3606,1.369,1.3885,1.4468,1.4606,1.4971,1.5876,1.6163,1.6281,1.4691,1.5199,1.5199,1.5199,1.52,1.54,1.5488,1.5445,1.507,1.4748,1.4419,1.423,1.4065,1.3851,1.3157,1.2675,1.2395,1.168,1.1251,1.1052,1.1052,1.1398,1.1996,1.1951,1.216,1.2583,1.2383,1.2118,1.1837,1.1493,1.1325,1.1395,1.1115,1.099,1.1002,0.0,0.0,0.0,1.3138,1.3055,1.3065,1.3067,1.3116,1.325,1.3446,0.0,1.3532,1.4092,1.431,1.4139,1.4597,0.0,0.0,0.0,0.0,0.0,0.0,0.0,0.0,0.0,0.0,0.0,1.3258,1.355,1.3813,1.5446,1.5676,1.379,1.5141,1.5568,1.4147,1.4606,1.4937,1.4709,1.426,1.3758,1.3219,1.2582,1.1984,1.1428,1.1266,1.1208,1.1262,1.1187,1.1425,1.1931,1.2009,1.2347,1.313,1.3671,1.3953,1.3965,1.3971,1.3788,1.3326,1.3286,1.3356,1.32,1.3164,1.3091,1.3101,1.3017,1.2915,1.2915,1.2915,1.2915,1.3064,1.3073,1.3286,1.3862,1.3968,1.419,1.4892,1.5051,1.5185,1.3712,0.0,1.3841,1.3774,0.0,1.3766,1.3766,1.3824,1.4544,1.4462,1.3818,1.38,1.3558,1.308,1.2551,1.2212,1.2012,1.1315,1.0915,1.0801,1.066,1.0807,1.1202,1.1195,1.1512,1.2092,1.1715,1.1525,1.1472,1.0822,1.0602,1.0791,1.0467,1.03,1.0312,1.032,1.0809,1.1863,1.1863,1.2015,1.2344,1.2344,1.2674,1.3302,0.0,0.0,0.0,0.0,0.0,0.0,0.0,0.0,0.0,0.0,0.0,1.3528,1.2493,1.1976,1.2187,1.2575,1.2893,1.3131,1.3531,1.3749,1.3748,1.5037,1.5354,1.4299,1.5016,1.5092,1.4013,1.4084,1.3981,1.3358,1.2988,1.2553,1.1923,1.1517,1.1169,1.0897,1.0801,1.0803,1.0804,1.08,1.0927,1.1266,1.1616,1.1922,1.2332,1.2939,1.3351,1.3357,1.3352,1.3272,1.2983,1.2915,1.2915,1.2915,1.2915,1.2915,1.2915,1.2915,1.2915,1.2915,1.2915,1.2915,1.2915,1.2915,1.298,1.3274,1.336,1.342,1.38,1.4271,1.4766,1.2563,1.2464,1.2172,1.216,1.2305,1.2305,1.2305,1.2409,0.0,0.0,0.0,1.3462,1.3025,1.2285,1.2069,1.1953,1.1866,1.1333,1.1042,1.0982,1.0727,1.0586,1.0586,1.0586,1.0958,1.1546,1.0926,1.081,1.1121,1.0171,0.9867,1.0129,0.9817,0.962,0.962,0.9614,0.9904,1.0427,1.0669,1.1057,1.1607,1.174,1.2319,1.3414,1.3495,1.3578,1.3729,1.3751,1.3833,1.3998,1.4383,1.4799,1.5155,1.4752,1.4433,1.4276,1.3482,1.3003,1.2986,1.2976,1.2924,1.2786,1.3138,1.3506,1.3828,1.4266,1.4425,1.4194,1.4295,1.4064,1.3345,1.3261,1.2831,1.1731,1.1628,1.1379,1.0737,1.0615,1.0577,1.0482,1.0387,1.0436,1.0382,1.0384,1.0504,1.0656,1.1028,1.1603,1.1839,1.2488,1.2966,1.2973,1.2995,1.2927,1.2915,1.2915,1.2915,1.2915,1.2915,1.2915,1.2915,1.2915,1.2915,1.2915,1.2915,1.2915,1.2915,1.2915,1.2915,1.2915,1.2915,1.2915,1.299,1.3692,1.4361,1.1722,1.1254,1.1213,1.1614,1.2305,1.2305,1.2305,1.2323,1.2586,1.2622,1.2482,1.25,1.2434,1.2298,1.224,1.2122,1.1886,1.1516,1.1229,0.0,1.0727,1.0586,1.0586,1.0586,1.0656,1.076,1.0649,1.0629,1.0613,1.0021,0.9732,0.9717,0.9221,0.8949,0.8936,0.8949,0.8982,0.9113,1.0231,1.0851,1.0939,1.1507,1.1876,1.2067,1.2303,1.2646,1.3119,1.3176,1.3433,1.3902,1.4394,1.4516,1.4138,1.4051,1.3773,1.3261,1.3073,1.2977,1.2897,1.2907,1.2624,1.1929,1.149,1.1929,1.3576,1.4313,1.3979,1.2387,1.2708,1.2558,1.1411,1.1295,1.1245,1.099,1.0952,1.0674,1.0025,0.9923,0.9751,0.9256,0.9081,0.9122,0.9199,0.9172,0.9407,0.9821,1.0221,1.0545,1.161,1.2439,1.2856,1.2915,1.2915,1.2915,1.2915,1.2915,1.2915,1.2915,1.2915,1.2915,1.2915,1.2915,1.2915,1.2915,1.2915,1.2915,1.2915,1.2915,1.2915,1.2915,1.2915,1.2915,1.2915,1.3138,1.3392,1.0821,1.054,1.0288,1.0721,1.1645,1.2105,1.2305,1.2305,1.2305,1.2305,1.2305,1.2305,1.2305,1.2305,1.2305,1.2231,1.2102,1.1619,1.1322,1.1179,1.0784,1.0586,1.0586,1.0586,1.0586,1.0586,1.0586,1.0586,1.0546,1.0135,0.992,0.988,0.9318,0.8951,0.8818,0.8791,0.8791,0.8811,0.9413,0.9891,1.0256,1.0555,1.0876,1.1254,1.1382,1.155,1.18,1.1848,1.2303,1.3262,1.3135,1.3296,1.3753,1.3104,1.2596,1.2317,1.1985,1.1792,1.1754,1.1772,1.1613,1.124,1.0956,1.0986,1.1534,1.2199,1.2199,1.1328,1.1548,1.1474,1.0855,1.08,1.0656,1.0287,1.0249,0.9987,0.9393,0.9262,0.9125,0.885,0.8791,0.8791,0.8791,0.8791,0.8931,0.9434,0.9763,1.0443,1.1349,1.1655,1.2057,1.272,1.2915,1.2915,1.2893,1.2915,1.2915,1.2915,1.2915,1.2915,1.2915,1.2915,1.2915,1.2915,1.2915,1.2915,1.2915,1.2915,1.2915,1.2915,1.2915,1.2915,1.2915,1.2915,1.3014,0.9869,0.9745,0.9383,0.9804,1.0714,1.1382,1.1646,1.1644,1.183,1.1959,1.1996,1.2169,1.2305,1.2305,1.2305,1.2305,1.2231,1.1764,1.1506,1.1446,1.0945,1.0693,1.0696,1.0633,1.0586,1.057,1.0403,1.0301,1.0253,0.977,0.9583,0.9631,0.9187,0.8886,0.8878,0.8838,0.8791,0.8791,0.8791,0.9048,0.9556,0.9731,1.0038,1.0529,1.0724,1.08,1.08,1.08,1.1283,1.2229,1.1806,1.1981,1.2912,1.2079,1.1497,1.146,1.1074,1.0733,1.0572,1.0427,1.0338,1.0338,1.0351,1.0128,0.9705,1.0038,1.033,1.0364,1.0491,1.0529,1.0312,1.0312,1.0133,0.964,0.9575,0.94,0.891,0.8791,0.8791,0.8791,0.8791,0.8791,0.8791,0.8791,0.8884,0.914,0.9609,1.0195,1.0751,1.0736,1.1138,1.2033,1.255,1.2601,1.2647,1.281,1.2881,1.2915,1.2915,1.2915,1.2915,1.2915,1.2915,1.2915,1.2915,1.2915,1.2915,1.2915,1.2915,1.2915,1.2915,1.2915,1.2915,1.271,1.2747,0.8849,0.8577,0.8522,0.8928,0.963,0.9765,0.9776,0.9765,1.0546,1.0938,1.1013,1.1904,1.2268,1.2305,1.2305,1.2305,1.2278,1.1989,1.1835,1.1768,1.1223,1.0949,1.0859,1.0688,1.0586,1.045,0.9779,0.9418,0.9368,0.8347,0.8047,0.846,0.82,0.8435,0.9028,0.8925,0.8798,0.8791,0.8791,0.8818,0.891,0.9484,0.984,0.9891,1.0478,1.08,1.0712,1.08,1.0843,1.0977,1.0906,1.0939,1.1057,1.0931,1.0876,1.0864,1.0792,1.0542,0.9935,0.9329,0.9035,0.8982,0.9048,0.9021,0.8929,0.8969,0.9008,0.9133,0.9562,0.9633,0.9074,0.9048,0.9074,0.9021,0.8956,0.8857,0.8778,0.8791,0.8791,0.8791,0.8712,0.8791,0.8778,0.8831,0.8844,0.8918,0.9133,0.9456,0.9944,1.0053,1.019,1.093,1.1485,1.1868,1.1963,1.2488,1.2642,1.2783,1.2856,1.2774,1.2737,1.281,1.2915,1.2881,1.2915,1.2915,1.2915,1.2903,1.2844,1.2725,1.2737,1.281,1.2808,1.2348,1.2163,0.7756,0.7624,0.7533,0.7984,0.8738,0.9256,0.9467,0.9478,0.9765,0.9914,0.9951,1.0346,1.1174,1.2268,1.2305,1.2305,1.2285,1.2022,1.1906,1.1799,1.0748,1.0238,1.0157,0.9396,0.9064,0.9048,0.8694,0.8533,0.8436,0.8026,0.7819,0.7913,0.8229,0.8442,0.8481,0.8824,0.8971,0.8798,0.8791,0.8791,0.8818,0.9061,0.9204,0.9224,0.9484,0.9614,0.9614,0.9627,0.9788,1.0128,0.9852,0.9801,1.0185,0.9832,0.9627,0.9614,0.9614,0.9504,0.9237,0.8956,0.8791,0.8791,0.8791,0.8791,0.8791,0.8791,0.8791,0.8831,0.9048,0.9074,0.8818,0.8791,0.8791,0.8791,0.8791,0.8626,0.8182,0.8142,0.8142,0.8142,0.8156,0.8348,0.8738,0.9112,0.9218,0.9165,0.927,0.9572,0.9729,0.9736,0.984,1.0146,1.0718,1.1125,1.1243,1.1425,1.1667,1.168,1.1646,1.1708,1.2187,1.2254,1.2354,1.2754,1.2779,1.2801,1.2915,1.249,1.2246,1.2203,1.1841,1.1658,1.1667,1.1433,1.1417,0.7117,0.71,0.7009,0.7296,0.7886,0.852,0.8757,0.8717,0.887,0.8913,0.8922,0.9183,1.0064,1.1347,1.1471,1.149,1.1446,1.129,1.1184,1.1074,0.9991,0.9445,0.931,0.8507,0.8039,0.7956,0.7762,0.7523,0.7328,0.7279,0.727,0.7382,0.8052,0.8319,0.8149,0.8832,0.9071,0.8818,0.8791,0.8791,0.8791,0.8791,0.8791,0.8791,0.8791,0.8791,0.8791,0.8791,0.9008,0.9484,0.9041,0.9021,0.9465,0.9061,0.8791,0.8791,0.8791,0.8791,0.8791,0.8791,0.8791,0.8791,0.8791,0.8791,0.8752,0.8606,0.8494,0.8467,0.8335,0.8268,0.8765,0.8619,0.8494,0.8487,0.8355,0.795,0.7477,0.7396,0.7396,0.7402,0.7415,0.7563,0.811,0.8515,0.8707,0.8757,0.9213,0.9641,0.9524,0.957,0.968,0.9601,1.0069,1.0465,1.0638,1.0956,1.0868,1.0809,1.0902,1.1078,1.1433,1.1502,1.1552,1.189,1.2192,1.227,1.2052,1.1698,1.1506,1.1388,1.1019,1.0661,1.0948,1.07,1.0663,0.7117,0.7117,0.711,0.7044,0.698,0.7069,0.692,0.694,0.7664,0.7998,0.8015,0.8789,0.932,0.9429,0.9423,0.9448,0.9504,0.9559,0.9581,0.9536,0.904,0.876,0.8626,0.834,0.8069,0.7712,0.7062,0.6383,0.5657,0.5591,0.5943,0.6726,0.7345,0.7868,0.8299,0.8893,0.9071,0.8831,0.8791,0.8791,0.8791,0.8791,0.8791,0.8791,0.8791,0.8791,0.8791,0.8791,0.8831,0.8844,0.8831,0.8818,0.8857,0.8818,0.8791,0.8791,0.8791,0.8791,0.8791,0.8791,0.8765,0.8752,0.8699,0.8738,0.8547,0.807,0.7763,0.775,0.7208,0.7362,0.8361,0.8063,0.7763,0.7716,0.7155,0.6818,0.6683,0.6651,0.6642,0.6656,0.6723,0.6818,0.6815,0.6871,0.7413,0.7793,0.8219,0.866,0.8981,0.9372,0.9574,0.9471,0.9612,0.9892,1.0266,1.0489,1.0787,1.0637,1.0364,1.072,1.0788,1.0847,1.0896,1.0968,1.1174,1.1182,1.0973,1.0859,1.0783,1.0598,1.0231,1.0051,1.0223,1.0086,1.0027,0.7117,0.7117,0.7117,0.7065,0.7011,0.6948,0.6865,0.6767,0.695,0.7014,0.7006,0.7281,0.7384,0.7384,0.7384,0.8084,0.9239,0.9315,0.9315,0.9195,0.8393,0.7898,0.7681,0.6944,0.6481,0.6296,0.6009,0.5719,0.5462,0.5395,0.5541,0.6058,0.7194,0.7773,0.7828,0.8875,0.9299,0.8844,0.8791,0.8791,0.8791,0.8791,0.8791,0.8791,0.8791,0.8791,0.8791,0.8791,0.8791,0.8791,0.8791,0.8791,0.8791,0.8791,0.8791,0.8791,0.8791,0.8791,0.8791,0.8791,0.8573,0.8156,0.8103,0.7903,0.7469,0.7155,0.6993,0.6921,0.6804,0.6939,0.7141,0.7128,0.6993,0.6947,0.675,0.6353,0.6023,0.5891,0.5901,0.595,0.6272,0.6588,0.656,0.6834,0.7057,0.7247,0.8093,0.8637,0.8886,0.9437,0.9792,0.9781,0.9741,0.9677,0.9548,0.9729,0.9839,0.9628,0.9523,0.9788,0.9946,1.0118,1.0201,1.0555,1.0602,1.0572,1.0517,1.0262,1.0164,0.9684,0.9316,0.9452,0.9471,0.9444,0.9411,0.7117,0.7117,0.7117,0.7117,0.7085,0.6997,0.6927,0.6887,0.6709,0.6614,0.6546,0.6433,0.6368,0.6358,0.632,0.6988,0.8241,0.8332,0.8332,0.8262,0.7482,0.7044,0.6765,0.604,0.5614,0.5494,0.5416,0.5395,0.5395,0.5395,0.5395,0.5524,0.6887,0.7489,0.7492,0.8699,0.9219,0.8963,0.8918,0.8884,0.8811,0.8791,0.8791,0.8791,0.8791,0.8791,0.8791,0.8791,0.8791,0.8791,0.8791,0.8685,0.8494,0.8441,0.8335,0.8129,0.8089,0.8083,0.8083,0.8089,0.7876,0.7423,0.7335,0.7101,0.6642,0.638,0.6253,0.6213,0.6,0.5919,0.5919,0.5909,0.6,0.6136,0.6055,0.5728,0.5259,0.5183,0.5173,0.5226,0.5586,0.5894,0.5973,0.6185,0.633,0.6426,0.7467,0.8069,0.8208,0.8768,0.9242,0.9153,0.8941,0.8884,0.8871,0.897,0.9194,0.9031,0.9061,0.9198,0.9309,0.9458,0.9658,1.0038,1.0198,1.0169,1.0015,0.9738,0.9357,0.889,0.8883,0.9061,0.8995,0.8897,0.8989,0.7029,0.6918,0.7073,0.6985,0.6959,0.7037,0.7011,0.6931,0.6873,0.6793,0.6688,0.6552,0.6471,0.6477,0.6358,0.6377,0.6548,0.6625,0.6602,0.656,0.6437,0.6292,0.6096,0.5922,0.5718,0.5583,0.5463,0.5395,0.5395,0.5395,0.5395,0.5557,0.633,0.7014,0.7427,0.8331,0.8948,0.9025,0.9068,0.9044,0.8844,0.8791,0.8791,0.8791,0.8738,0.8699,0.8725,0.8765,0.8791,0.8791,0.8791,0.8441,0.7897,0.7723,0.7402,0.6899,0.6696,0.6656,0.6696,0.6777,0.6818,0.6602,0.6588,0.6529,0.6272,0.5814,0.5501,0.5437,0.5034,0.4625,0.4667,0.4694,0.4911,0.5314,0.5072,0.4722,0.4612,0.4529,0.4512,0.4615,0.4823,0.4684,0.4649,0.4977,0.5317,0.5653,0.6225,0.6759,0.6951,0.7523,0.7567,0.7424,0.7604,0.7867,0.8029,0.8228,0.8468,0.8658,0.8791,0.8916,0.8956,0.9074,0.9106,0.9387,0.9426,0.9398,0.9424,0.918,0.9114,0.8791,0.8791,0.8791,0.8791,0.8791,0.8791,0.5442,0.4838,0.56,0.5935,0.6024,0.676,0.7068,0.7018,0.693,0.688,0.6793,0.6603,0.6495,0.646,0.6345,0.63,0.628,0.628,0.628,0.628,0.628,0.6199,0.6028,0.5961,0.583,0.5617,0.5453,0.5395,0.5395,0.5395,0.5395,0.5574,0.6268,0.6621,0.6722,0.801,0.8679,0.8397,0.8893,0.9071,0.8824,0.8778,0.8778,0.8738,0.8315,0.8036,0.8076,0.852,0.8778,0.8752,0.8791,0.8467,0.779,0.7208,0.685,0.6642,0.6588,0.6588,0.6588,0.6548,0.6312,0.5968,0.5846,0.5591,0.5226,0.4979,0.4842,0.4825,0.4598,0.4491,0.4491,0.4491,0.4598,0.4787,0.4625,0.4474,0.4405,0.4419,0.4537,0.4619,0.4681,0.4711,0.4754,0.4852,0.4964,0.5111,0.5727,0.6224,0.6376,0.6751,0.7255,0.7135,0.7101,0.6865,0.7105,0.7394,0.7701,0.8159,0.8473,0.8765,0.8791,0.8791,0.8791,0.8791,0.8791,0.8791,0.8791,0.8791,0.8791,0.8791,0.8791,0.8791,0.8791,0.8791,0.8791,0.4976,0.433,0.4596,0.5023,0.5425,0.6207,0.6716,0.7037,0.7004,0.6989,0.6935,0.6753,0.6607,0.6556,0.6423,0.6351,0.6303,0.628,0.628,0.628,0.628,0.6222,0.6095,0.5986,0.583,0.5603,0.5467,0.5395,0.5395,0.5395,0.5395,0.5524,0.5943,0.6314,0.6409,0.7398,0.7858,0.7786,0.8212,0.8341,0.8048,0.7977,0.7983,0.7916,0.753,0.7316,0.7329,0.7763,0.799,0.7983,0.799,0.7624,0.6929,0.6416,0.6082,0.5864,0.581,0.58,0.5828,0.5741,0.566,0.5209,0.5122,0.4976,0.4584,0.4491,0.4491,0.4491,0.4491,0.4491,0.4491,0.4491,0.4491,0.4491,0.4505,0.436,0.4136,0.3804,0.3661,0.3723,0.406,0.4339,0.4415,0.4837,0.4874,0.4952,0.5325,0.5641,0.5684,0.5904,0.6125,0.6188,0.5883,0.5871,0.6179,0.6534,0.6931,0.7536,0.8142,0.8533,0.8791,0.8791,0.8791,0.8791,0.8791,0.8791,0.8791,0.8791,0.8791,0.8791,0.8791,0.8791,0.8791,0.8791,0.8818,0.5225,0.5068,0.3994,0.4085,0.4979,0.5223,0.5802,0.6694,0.6912,0.688,0.6872,0.6843,0.6782,0.6678,0.6535,0.6395,0.6317,0.628,0.628,0.628,0.628,0.6263,0.6222,0.5959,0.5759,0.5616,0.5481,0.5399,0.5395,0.5395,0.5395,0.5425,0.5508,0.5798,0.6388,0.6662,0.6978,0.72,0.7339,0.7252,0.6827,0.6741,0.6739,0.6742,0.6629,0.6548,0.6556,0.6529,0.6561,0.6602,0.671,0.6362,0.5706,0.5501,0.5177,0.4722,0.4532,0.4625,0.4556,0.4722,0.4667,0.4625,0.4598,0.4491,0.4487,0.4491,0.4491,0.4491,0.4491,0.4491,0.4491,0.4491,0.446,0.4405,0.4294,0.4009,0.3307,0.2686,0.2561,0.2583,0.3101,0.3684,0.3614,0.4303,0.4556,0.4657,0.472,0.4734,0.4819,0.4934,0.472,0.4762,0.4939,0.509,0.5473,0.5914,0.6294,0.6659,0.7377,0.799,0.856,0.8672,0.8778,0.8791,0.8791,0.8791,0.8791,0.8791,0.8791,0.8791,0.8791,0.8791,0.8791,0.8791,0.8818,0.3551,0.2727,0.2415,0.2459,0.2883,0.366,0.4239,0.4639,0.5534,0.596,0.6006,0.6506,0.6756,0.6699,0.6477,0.6334,0.6306,0.628,0.628,0.628,0.628,0.628,0.6219,0.5952,0.5786,0.5708,0.5532,0.5395,0.5395,0.5395,0.5395,0.5395,0.5412,0.5491,0.5785,0.6363,0.6568,0.6617,0.7148,0.7186,0.6842,0.6744,0.6744,0.6571,0.6068,0.5832,0.5733,0.5304,0.5605,0.6493,0.605,0.5719,0.5433,0.5058,0.4718,0.4556,0.4491,0.4491,0.4491,0.4491,0.4491,0.4491,0.4491,0.4491,0.4491,0.4491,0.4491,0.4491,0.4491,0.4491,0.4491,0.4491,0.4267,0.3721,0.3624,0.3328,0.2661,0.2345,0.2263,0.2449,0.2642,0.2814,0.2979,0.3227,0.3574,0.3822,0.3996,0.4112,0.4262,0.4507,0.4544,0.4527,0.4622,0.4636,0.4836,0.5281,0.5642,0.586,0.647,0.7216,0.7864,0.8408,0.8613,0.8791,0.8791,0.8791,0.8791,0.8791,0.8791,0.8791,0.8791,0.8791,0.8791,0.8791,0.8791,0.2436,0.1746,0.1255,0.1344,0.1835,0.2549,0.3415,0.4374,0.5068,0.5692,0.6147,0.6618,0.6817,0.6688,0.6542,0.6392,0.629,0.628,0.628,0.628,0.628,0.628,0.6219,0.6003,0.5846,0.5776,0.5569,0.547,0.5405,0.5395,0.5395,0.5395,0.5395,0.5395,0.5462,0.5824,0.6023,0.5879,0.6249,0.6338,0.6076,0.6007,0.5915,0.5734,0.5315,0.5099,0.5017,0.4708,0.4942,0.5459,0.5304,0.5068,0.5044,0.4746,0.4491,0.4491,0.4491,0.4491,0.4491,0.4491,0.4491,0.4491,0.4491,0.4491,0.4491,0.4491,0.4491,0.4491,0.4491,0.4491,0.4491,0.4491,0.3943,0.3079,0.2843,0.2536,0.1828,0.141,0.1365,0.0,0.1767,0.2031,0.2128,0.2417,0.278,0.3135,0.35,0.3698,0.3913,0.4217,0.4491,0.4491,0.4491,0.4532,0.456,0.4897,0.5072,0.5277,0.5683,0.6402,0.7278,0.8004,0.8395,0.86,0.8705,0.8791,0.8791,0.8791,0.8791,0.8791,0.8791,0.8778,0.8778,0.8633,0.8659,0.1812,0.1701,0.0494,0.0628,0.1478,0.1634,0.2639,0.4443,0.471,0.5312,0.6035,0.6543,0.6337,0.6512,0.5978,0.6143,0.6044,0.5728,0.5747,0.5689,0.5709,0.5747,0.5925,0.599,0.5912,0.5812,0.5692,0.5542,0.546,0.5419,0.5395,0.5395,0.5395,0.5395,0.5412,0.5458,0.532,0.5296,0.5355,0.5369,0.5208,0.5105,0.506,0.4934,0.4758,0.4619,0.4584,0.4491,0.457,0.4515,0.4491,0.4556,0.4529,0.4519,0.4505,0.4491,0.4491,0.4491,0.4491,0.4491,0.4491,0.4491,0.4491,0.4491,0.4491,0.4491,0.4491,0.4491,0.4491,0.4491,0.4491,0.4491,0.379,0.2718,0.2272,0.1868,0.109,0.0,0.0,0.0,0.0,0.1071,0.1367,0.0,0.2367,0.2238,0.2654,0.3012,0.3407,0.3882,0.4222,0.4491,0.4491,0.4491,0.4491,0.4543,0.4598,0.4722,0.5072,0.5737,0.6725,0.7448,0.8006,0.835,0.854,0.8705,0.8791,0.8791,0.8752,0.8685,0.8606,0.8685,0.8738,0.8454,0.8361,0.179,0.1701,0.0494,0.0157,0.0359,0.0404,0.0718,0.1367,0.2259,0.2995,0.3206,0.3888,0.4665,0.5235,0.4536,0.425,0.4881,0.4338,0.3787,0.3787,0.3785,0.4334,0.4996,0.5553,0.5924,0.5878,0.5708,0.5593,0.5556,0.545,0.5395,0.5395,0.5395,0.5395,0.5395,0.5408,0.5385,0.5331,0.5324,0.521,0.5079,0.5005,0.4889,0.4725,0.458,0.4487,0.4491,0.4491,0.4491,0.4491,0.4419,0.4322,0.446,0.4491,0.4491,0.4491,0.4491,0.4491,0.4491,0.4491,0.4491,0.4491,0.4491,0.4491,0.4491,0.4491,0.4491,0.4491,0.4491,0.4491,0.4491,0.4491,0.3694,0.2607,0.212,0.1647,0.0,0.0,0.0,0.0,0.0,0.0,0.0,0.0,0.0,0.0,0.1758,0.2208,0.278,0.3386,0.3812,0.4108,0.4242,0.4228,0.4491,0.4491,0.4491,0.4491,0.4732,0.4976,0.5986,0.6827,0.7349,0.792,0.8435,0.8501,0.8322,0.8659,0.8606,0.8507,0.8414,0.848,0.8454,0.8228,0.7998,0.0964,0.0874,0.0247,0.0,0.0,0.0,0.0314,0.0874,0.1478,0.2147,0.2675,0.3307,0.3756,0.4121,0.3532,0.3555,0.3736,0.3411,0.3124,0.3163,0.3163,0.3435,0.3822,0.451,0.4974,0.5724,0.5806,0.5688,0.5586,0.545,0.5395,0.5395,0.5395,0.5395,0.5395,0.5395,0.5395,0.5388,0.5395,0.5334,0.525,0.5143,0.4958,0.4763,0.4595,0.4429,0.3965,0.3946,0.3746,0.3525,0.3456,0.3818,0.4391,0.4477,0.4477,0.4491,0.4491,0.4491,0.4491,0.4491,0.4491,0.4474,0.4491,0.4491,0.4491,0.4491,0.4491,0.4491,0.4491,0.4491,0.446,0.4098,0.3372,0.2482,0.187,0.1202,0.0,0.0,0.0,0.0,0.0,0.0,0.0,0.0,0.0,0.0,0.0,0.1632,0.1839,0.2452,0.3157,0.3522,0.3752,0.3993,0.4367,0.4491,0.4491,0.4491,0.4556,0.4694,0.5126,0.5932,0.6676,0.7192,0.7652,0.7574,0.75,0.7931,0.8348,0.8209,0.8129,0.8209,0.8222,0.8129,0.7756,0.0,0.0,0.0,0.0,0.0,0.0,0.0516,0.1366,0.1522,0.1836,0.2854,0.305,0.2803,0.3022,0.2747,0.2709,0.2607,0.2529,0.2267,0.2287,0.2287,0.252,0.281,0.3113,0.3784,0.5391,0.5209,0.5108,0.5031,0.52,0.5012,0.5169,0.5375,0.5395,0.5395,0.5395,0.5395,0.5395,0.5395,0.5392,0.5368,0.523,0.4984,0.4528,0.4115,0.3772,0.328,0.3133,0.2941,0.2261,0.2195,0.2899,0.3721,0.4139,0.4267,0.4208,0.407,0.4125,0.4377,0.4349,0.4239,0.4322,0.4294,0.4294,0.4267,0.4239,0.4308,0.4377,0.4377,0.4222,0.4267,0.3635,0.2885,0.211,0.1415,0.0817,0.0,0.0,0.0,0.0,0.0,0.0,0.0,0.0,0.0,0.0,0.0,0.1039,0.1261,0.162,0.2369,0.3176,0.3505,0.3952,0.4339,0.4491,0.4491,0.4491,0.4491,0.4529,0.4584,0.5085,0.5819,0.6299,0.661,0.6691,0.705,0.7643,0.7889,0.7803,0.7691,0.7616,0.7777,0.8017,0.7486,0.0,0.0,0.0,0.0,0.0,0.0,0.0,0.027,0.0,0.0,0.0,0.0661,0.1267,0.1512,0.0912,0.0,0.0,0.0,0.0,0.0,0.0,0.1097,0.1742,0.1879,0.2495,0.3226,0.3466,0.3382,0.3685,0.39,0.4216,0.4386,0.4957,0.5296,0.5292,0.5395,0.5342,0.5209,0.5226,0.5226,0.511,0.5045,0.4741,0.4012,0.3368,0.2743,0.249,0.2384,0.2325,0.2219,0.2193,0.2324,0.2514,0.2585,0.2899,0.3289,0.3079,0.3259,0.3984,0.3804,0.358,0.3511,0.3511,0.3541,0.3555,0.3569,0.3735,0.4032,0.3882,0.3616,0.3569,0.288,0.2136,0.149,0.1125,0.0752,0.0,0.0,0.0,0.0,0.0,0.0,0.0,0.0,0.0,0.0,0.0,0.0,0.0919,0.1252,0.1761,0.2585,0.3371,0.3868,0.438,0.4449,0.4491,0.4491,0.4491,0.4491,0.4532,0.4546,0.4956,0.5532,0.6096,0.647,0.69,0.7238,0.7362,0.723,0.7109,0.6993,0.7015,0.705,0.6785,0.0,0.0,0.0,0.0,0.0,0.0,0.0,0.0,0.0,0.0,0.0,0.0,0.0265,0.0548,0.0299,0.0,0.0,0.0,0.0,0.0,0.0,0.0196,0.0,0.0,0.1019,0.1366,0.1449,0.2053,0.2833,0.3178,0.3322,0.3536,0.4234,0.4655,0.4805,0.516,0.5024,0.4838,0.4652,0.445,0.4098,0.4048,0.3771,0.3604,0.2835,0.217,0.1673,0.1627,0.1413,0.1122,0.1037,0.0,0.0,0.0,0.0,0.2404,0.2371,0.2426,0.3148,0.2899,0.2746,0.273,0.2722,0.2746,0.276,0.2799,0.2979,0.3195,0.3597,0.3208,0.281,0.2095,0.1533,0.1139,0.0,0.0,0.0,0.0,0.0,0.0,0.0,0.0,0.0,0.0,0.0,0.0,0.0,0.0,0.0,0.0,0.0,0.1959,0.277,0.3394,0.3863,0.4029,0.4098,0.4167,0.4349,0.4349,0.4449,0.4449,0.4563,0.4908,0.5465,0.5963,0.5886,0.5959,0.6294,0.6686,0.6659,0.6556,0.6245,0.6018,0.5855,0.0,0.0,0.0,0.0,0.0,0.0,0.0,0.0,0.0,0.0,0.0,0.0,0.0,0.0,0.0,0.0,0.0,0.0,0.0,0.0,0.0,0.0,0.0,0.0,0.0,0.0,0.0,0.0,0.1843,0.2341,0.2413,0.2652,0.3282,0.3747,0.3913,0.4284,0.4234,0.4015,0.3716,0.333,0.2861,0.2558,0.265,0.313,0.2478,0.1557,0.0965,0.0891,0.0638,0.0,0.0,0.0,0.0,0.0,0.0,0.1521,0.1759,0.1863,0.2171,0.2018,0.1969,0.1983,0.1991,0.1994,0.2071,0.2158,0.229,0.2316,0.2439,0.2612,0.2001,0.1329,0.095,0.0752,0.0,0.0,0.0,0.0,0.0,0.0,0.0,0.0,0.0,0.0,0.0,0.0,0.0,0.0,0.0,0.0,0.0,0.0,0.2097,0.2764,0.3206,0.343,0.3456,0.3442,0.3777,0.3998,0.417,0.4339,0.4449,0.4532,0.4674,0.5053,0.4859,0.4989,0.5637,0.61,0.6213,0.6036,0.5578,0.5418,0.5351,0.0,0.0,0.0,0.0,0.0,0.0,0.0,0.0,0.0,0.0,0.0,0.0,0.0,0.0,0.0,0.0,0.0,0.0,0.0,0.0,0.0,0.0,0.0,0.0,0.0,0.0,0.0,0.0,0.0715,0.1246,0.1446,0.1671,0.2327,0.2865,0.2878,0.3253,0.2961,0.2878,0.2811,0.2728,0.2527,0.1874,0.1619,0.1467,0.095,0.0,0.0,0.0,0.0,0.0,0.0,0.0,0.0,0.0,0.0,0.021,0.038,0.0793,0.1682,0.1532,0.1225,0.1232,0.1221,0.1227,0.1341,0.176,0.206,0.2173,0.1832,0.1462,0.1207,0.0603,0.0,0.0,0.0,0.0,0.0,0.0,0.0,0.0,0.0,0.0,0.0,0.0,0.0,0.0,0.0,0.0,0.0,0.0,0.0,0.0,0.1484,0.2151,0.251,0.2746,0.2885,0.2813,0.3121,0.3525,0.3622,0.379,0.4194,0.4277,0.4332,0.4474,0.4639,0.4924,0.5324,0.5501,0.5574,0.525,0.4773,0.4749,0.4887,0.0,0.0,0.0,0.0,0.0,0.0,0.0,0.0,0.0,0.0,0.0,0.0,0.0,0.0,0.0,0.0,0.0,0.0,0.0,0.0,0.0,0.0,0.0,0.0,0.0,0.0,0.0,0.0,0.0,0.0,0.0,0.0,0.141,0.1905,0.198,0.2444,0.2313,0.1959,0.1509,0.1459,0.1525,0.1124,0.0806,0.124,0.042,0.0,0.0,0.0,0.0,0.0,0.0,0.0,0.0,0.0,-0.0727,-0.074,-0.0714,-0.0179,0.0678,0.0619,0.0,0.0,0.0,0.0476,0.0631,0.1111,0.1357,0.0938,0.108,0.0917,0.0582,0.02,0.0,0.0,0.0,0.0,0.0,0.0,0.0,0.0,0.0,0.0,0.0,0.0,0.0,0.0,0.0,0.0,0.0,0.0,0.0,0.0,0.0938,0.154,0.1801,0.2037,0.2341,0.2355,0.2425,0.2746,0.2883,0.3118,0.3506,0.3854,0.395,0.415,0.4419,0.468,0.4921,0.4934,0.4921,0.4608,0.4332,0.4501,0.4612,0.0,0.0,0.0,0.0,0.0,-0.0314,0.0,0.0,0.0,0.0,-0.0897,0.0,0.0,0.0,0.0,0.0,0.0,-0.0764,-0.0764,-0.0725,-0.051,0.0,0.0,0.0,0.0,0.0,0.0,0.0,0.0,0.0,0.0,0.0,0.0,0.095,0.1166,0.1442,0.1493,0.1007,0.0471,0.0505,0.0756,0.0387,0.0454,0.0572,0.0,0.0,0.0,0.0,0.0,0.0,0.0,-0.1203,-0.1572,-0.1652,-0.1662,-0.1664,-0.1649,-0.1229,-0.0456,0.0,0.0,0.0,0.0,0.0,0.0127,0.0,0.0709,0.0207,0.0483,0.0433,0.0,0.0,0.0,0.0,0.0,0.0,0.0,0.0,0.0,0.0,0.0,0.0,0.0,0.0,0.0,0.0,0.0,0.0,0.0,0.0,0.0,0.0,0.0,0.0,0.0,0.0,0.0,0.1813,0.187,0.1952,0.2063,0.2393,0.2821,0.3141,0.3362,0.3367,0.3359,0.3915,0.4432,0.4346,0.4246,0.4136,0.4042,0.4167,0.4346,0.0,0.0,0.0,0.0,-0.0157,-0.1232,-0.1679,-0.1768,-0.2791,-0.3104,-0.2992,-0.3204,-0.2917,-0.2915,-0.2705,-0.2709,-0.2773,-0.2869,-0.2617,-0.2327,-0.2035,-0.1567,-0.1273,0.0,0.0,0.0,0.0,0.0,0.0,0.0,0.0,0.0,0.0,0.0,0.0,0.0,0.0,0.0,0.0,0.0,0.0,0.0,0.0,0.0,0.0,0.0,-0.0034,-0.0689,-0.1191,-0.1207,-0.1765,-0.2291,-0.2498,-0.2569,-0.2589,-0.2589,-0.2589,-0.2067,-0.1229,-0.0503,0.0,0.0,0.0,0.0,0.0,0.0,0.0,0.0,0.0,0.0,0.0,0.0,0.0,0.0,0.0,0.0,0.0,0.0,0.0,0.0,0.0,0.0,0.0,0.0,0.0,0.0,0.0,0.0,0.0,0.0,0.0,0.0,0.0,0.0,0.0,0.0,0.0,0.0,0.1006,0.1104,0.1215,0.163,0.2169,0.2183,0.235,0.2325,0.2482,0.3162,0.3624,0.3638,0.3569,0.3442,0.3317,0.3287,0.3674,-0.0449,-0.1098,-0.1121,-0.1121,-0.1188,-0.2391,-0.2904,-0.297,-0.3414,-0.3592,-0.3657,-0.352,-0.3427,-0.3406,-0.3249,-0.3186,-0.3113,-0.3104,-0.3182,-0.3046,-0.2696,-0.254,-0.2306,-0.2033,0.0,-0.1058,-0.0922,-0.051,0.0,0.0,0.0,0.0,0.0,0.0,0.0,0.0,0.0,0.0,0.0,0.0,0.0,0.0,0.0,0.0,0.0,0.0,-0.0739,-0.109,-0.1608,-0.211,-0.2577,-0.3028,-0.3447,-0.348,-0.3495,-0.3497,-0.3513,-0.2759,-0.1608,-0.093,-0.0612,0.0,0.0,0.0,0.0,0.0,0.0,0.0,0.0,0.0,0.0,0.0,0.0,0.0,0.0,0.0,0.0,0.0,0.0,0.0,0.0,0.0,0.0,0.0,0.0,0.0,0.0,0.0,0.0,0.0,0.0,0.0,0.0,0.0,0.0,0.0,0.0,0.0,0.0,0.0364,0.0559,0.1062,0.1464,0.1422,0.1407,0.1562,0.1898,0.2524,0.2801,0.276,0.276,0.2732,0.2593,0.2508,0.288,-0.1031,-0.1857,-0.2572,-0.2638,-0.2525,-0.3638,-0.4128,-0.4194,-0.4572,-0.4639,-0.4634,-0.4542,-0.4488,-0.4391,-0.4296,-0.4263,-0.4341,-0.4255,-0.4144,-0.4023,-0.3867,-0.3632,-0.3474,-0.3046,-0.2347,-0.1821,-0.1509,-0.1059,0.0,0.0,0.0,0.0,0.0,0.0,0.0,0.0,0.0,0.0,0.0,0.0,0.0,0.0,0.0,0.0,0.0,0.0,-0.1609,-0.2125,-0.2544,-0.3028,-0.348,-0.3863,-0.4198,-0.4417,-0.44,-0.4417,-0.4234,-0.353,-0.2193,-0.1057,-0.0689,0.0,0.0,0.0,0.0,0.0,0.0,0.0,0.0,0.0,0.0,0.0,0.0,0.0,0.0,0.0,0.0,0.0,0.0,0.0,0.0,0.0,0.0,0.0,0.0,0.0,0.0,0.0,0.0,0.0,0.0,0.0,0.0,0.0,0.0,0.0,0.0,0.0,0.0,0.0,0.0028,0.0419,0.0252,-0.0252,-0.0084,0.0643,0.1005,0.1173,0.1535,0.187,0.1786,0.1661,0.223,0.2174,0.2131,-0.1835,-0.2102,-0.4287,-0.4576,-0.3838,-0.4865,-0.5356,-0.5467,-0.6312,-0.6716,-0.6621,-0.6662,-0.6614,-0.6473,-0.6076,-0.5931,-0.5863,-0.5898,-0.5844,-0.557,-0.4982,-0.4708,-0.4394,-0.3887,-0.3263,-0.1958,-0.188,-0.1587,-0.0157,0.0,0.0,0.0,0.0,0.0,0.0,0.0,0.0,0.0,0.0,0.0,0.0,0.0,0.0,-0.089,-0.124,-0.1725,-0.2527,-0.3128,-0.3563,-0.3982,-0.4586,-0.4921,-0.509,-0.5156,-0.5173,-0.5209,-0.5243,-0.4367,-0.2761,-0.1058,0.0,0.0,0.0,0.0,0.0,0.0,0.0,0.0,0.0,0.0,0.0,0.0,0.0,0.0,0.0,0.0,0.0,0.0,0.0,0.0,0.0,0.0,0.0,0.0,0.0,0.0,0.0,0.0,0.0,0.0,0.0,0.0,0.0,0.0,0.0,0.0,0.0,0.0,0.0,0.0,-0.0924,-0.0811,-0.1176,-0.1824,-0.1414,-0.0573,-0.0448,-0.0406,0.0266,0.0894,0.0573,0.0601,0.1298,0.0,0.0,-0.3462,-0.4265,-0.5092,-0.5622,-0.5933,-0.6337,-0.6517,-0.658,-0.694,-0.7117,-0.7093,-0.7007,-0.694,-0.6843,-0.6685,-0.6573,-0.6477,-0.6348,-0.628,-0.6219,-0.5828,-0.5828,-0.555,-0.5157,-0.4513,-0.3908,-0.3519,-0.2543,-0.1118,-0.0961,-0.0491,0.0,0.0,0.0,0.0,0.0,0.0,0.0,0.0,0.0,0.0,-0.0538,-0.1023,-0.139,-0.1942,-0.2659,-0.3461,-0.3999,-0.4301,-0.4735,-0.5326,-0.5375,-0.5395,-0.5395,-0.5395,-0.5395,-0.5342,-0.4569,-0.2813,0.0,0.0,0.0,0.0,0.0,0.0,0.0,0.0,0.0,0.0,0.0,0.0,0.0,0.0,0.0,0.0,0.0,0.0,0.0,0.0,0.0,0.0,0.0,0.0,0.0,0.0,0.0,0.0,0.0,0.0,0.0,0.0,0.0,0.0,0.0,0.0,0.0,-0.0719,0.0,0.0,0.0,-0.1803,-0.1832,-0.2014,-0.235,-0.2097,-0.1817,-0.1482,-0.1091,-0.0476,-0.0126,-0.0196,0.0,0.0,0.0,0.0,-0.4688,-0.5425,-0.5825,-0.6406,-0.7051,-0.7117,-0.7117,-0.7117,-0.7117,-0.7117,-0.7097,-0.7019,-0.6951,-0.6847,-0.6685,-0.6542,-0.6484,-0.6364,-0.628,-0.628,-0.6277,-0.6199,-0.6219,-0.6199,-0.5376,-0.4982,-0.4533,-0.3694,-0.2133,-0.1743,-0.1,0.0,0.0,0.0,0.0,0.0,0.0,0.0,0.0,0.0,-0.0521,-0.1023,-0.1608,-0.226,-0.2911,-0.3578,-0.4215,-0.4569,-0.4722,-0.5226,-0.5395,-0.5395,-0.5395,-0.5395,-0.5395,-0.5395,-0.4586,-0.3766,-0.216,-0.0941,0.0,0.0,0.0,0.0,0.0,0.0,0.0,0.0,0.0,0.0,0.0,0.0,0.0,0.0,0.0,0.0,0.0,0.0,0.0,0.0,0.0,0.0,0.0,0.0,0.0,0.0,0.0,-0.0214,-0.0163,0.0,0.0,0.0,0.0,0.0,0.0,0.0,-0.1452,-0.1486,-0.1931,-0.2457,-0.2623,-0.2639,-0.2764,-0.2847,-0.2736,-0.2541,-0.2134,-0.1675,-0.1159,-0.0755,-0.0545,0.0,0.0,0.0,0.0,-0.5447,-0.5605,-0.6631,-0.7073,-0.7117,-0.7117,-0.7117,-0.7117,-0.7117,-0.7117,-0.7114,-0.7107,-0.7043,-0.6911,-0.6776,-0.6634,-0.6518,-0.6392,-0.6323,-0.628,-0.628,-0.628,-0.628,-0.6238,-0.5786,-0.5176,-0.4766,-0.4494,-0.3145,-0.2347,-0.1312,-0.0431,0.0,0.0,0.0,0.0,0.0,0.0,0.0,0.0,-0.0667,-0.1354,-0.2206,-0.3025,-0.3864,-0.4479,-0.4994,-0.5269,-0.5279,-0.5402,-0.5395,-0.5395,-0.5395,-0.5395,-0.5395,-0.4904,-0.3682,-0.2594,-0.1559,-0.0521,0.0,0.0,0.0,0.0,0.0,0.0,0.0,0.0,0.0,0.0,0.0,0.0,0.0,0.0,0.0,0.0,0.0,0.0,0.0,0.0,0.0,0.0,0.0,0.0,-0.1239,-0.1138,-0.11,-0.1061,-0.0917,0.0,0.0,0.0,0.0,0.0,-0.1584,-0.2018,-0.222,-0.2251,-0.2633,-0.3083,-0.3243,-0.3419,-0.3544,-0.3586,-0.3519,-0.3253,-0.2716,-0.2313,-0.1953,-0.1577,-0.1174,0.0,0.0,0.0,0.0,-0.6628,-0.6653,-0.6962,-0.7117,-0.7117,-0.7117,-0.7117,-0.7117,-0.7117,-0.7117,-0.7117,-0.7117,-0.7186,-0.7046,-0.6908,-0.6836,-0.6682,-0.6505,-0.6375,-0.6337,-0.6354,-0.63,-0.6338,-0.6354,-0.6083,-0.5964,-0.5686,-0.5293,-0.4237,-0.3184,-0.2152,-0.1331,-0.0988,-0.0668,0.0,0.0,0.0,0.0,0.0,0.0,-0.0911,-0.1688,-0.26,-0.3401,-0.4644,-0.5215,-0.5473,-0.5545,-0.5508,-0.5419,-0.5402,-0.5395,-0.5395,-0.5359,-0.5243,-0.4367,-0.3311,-0.2327,-0.1374,0.0,0.0,0.0,0.0,0.0,0.0,0.0,0.0,0.0,0.0,0.0,0.0,0.0,0.0,0.0,0.0,0.0,0.0,0.0,0.0,0.0,0.0,-0.094,-0.109,-0.171,-0.2193,-0.2076,-0.1972,-0.1929,-0.1704,-0.1208,-0.1004,-0.1065,-0.1488,-0.2037,-0.231,-0.2695,-0.2882,-0.3058,-0.3411,-0.3699,-0.3895,-0.4073,-0.4267,-0.4228,-0.4035,-0.3649,-0.3169,-0.288,-0.2758,-0.2244,-0.1827,-0.141,-0.0992,-0.0559,-0.0504,-0.7117,-0.7117,-0.7117,-0.7117,-0.7117,-0.7117,-0.7312,-0.7665,-0.7316,-0.7117,-0.7165,-0.7617,-0.7782,-0.787,-0.8164,-0.8251,-0.7955,-0.7497,-0.7171,-0.6933,-0.6567,-0.6679,-0.6721,-0.6891,-0.6911,-0.6891,-0.6737,-0.6363,-0.527,-0.4198,-0.3147,-0.1624,-0.1598,-0.0942,0.0,0.0,0.0,0.0,0.0,0.0,-0.0953,-0.1989,-0.2789,-0.3567,-0.4996,-0.5485,-0.5646,-0.5591,-0.5518,-0.546,-0.5453,-0.5395,-0.5395,-0.5359,-0.4636,-0.378,-0.3061,-0.1959,-0.094,-0.0337,0.0,0.0,0.0,0.0,0.0,0.0,0.0,0.0,0.0,0.0,0.0,0.0,0.0,0.0,0.0,0.0,0.0,0.0,0.0,0.0,-0.109,-0.1658,-0.2193,-0.2813,-0.3049,-0.2728,-0.2659,-0.2771,-0.2521,-0.2084,-0.1918,-0.1926,-0.2437,-0.2995,-0.3202,-0.336,-0.3596,-0.3806,-0.4048,-0.4317,-0.4508,-0.4477,-0.4422,-0.4436,-0.4436,-0.405,-0.3671,-0.3729,-0.3594,-0.3035,-0.2466,-0.2023,-0.1549,-0.1033,-0.1188,-0.7117,-0.7117,-0.718,-0.7338,-0.7268,-0.7467,-0.8101,-0.8842,-0.8013,-0.7445,-0.7727,-0.8562,-0.8957,-0.9043,-0.955,-0.9683,-0.9214,-0.8595,-0.8166,-0.7887,-0.7346,-0.7346,-0.7763,-0.7897,-0.7916,-0.7897,-0.7595,-0.6965,-0.6196,-0.5179,-0.383,-0.1841,-0.1817,-0.1268,0.0,0.0,0.0,0.0,0.0,-0.0241,-0.1067,-0.214,-0.3172,-0.381,-0.4728,-0.5457,-0.5521,-0.551,-0.5458,-0.5477,-0.5359,-0.5216,-0.5395,-0.5123,-0.4165,-0.3278,-0.2609,-0.1592,0.0,0.0,0.0,0.0,0.0,0.0,0.0,0.0,0.0,0.0,0.0,0.0,0.0,0.0,0.0,0.0,0.0,0.0,0.0,0.0,0.0,-0.1558,-0.2143,-0.2659,-0.2945,-0.3532,-0.4054,-0.353,-0.3476,-0.3694,-0.3532,-0.3127,-0.2935,-0.2913,-0.3326,-0.3789,-0.3858,-0.405,-0.4336,-0.4559,-0.4606,-0.4568,-0.4511,-0.4491,-0.4491,-0.4491,-0.4491,-0.4491,-0.4305,-0.425,-0.4053,-0.3677,-0.3134,-0.2649,-0.2147,-0.1672,-0.1577,-0.7117,-0.7205,-0.8079,-0.8478,-0.8601,-0.9401,-0.9874,-1.0183,-0.9918,-0.9722,-0.9831,-1.0043,-1.0175,-1.0257,-1.0559,-1.0543,-1.0004,-0.9722,-0.9301,-0.8981,-0.8485,-0.8389,-0.8898,-0.8936,-0.8936,-0.8656,-0.818,-0.7288,-0.6389,-0.5728,-0.4866,-0.295,-0.2599,-0.18,0.0,0.0,0.0,0.0,0.0,0.0,-0.0516,-0.1267,-0.2126,-0.2588,-0.3253,-0.4326,-0.4381,-0.4121,-0.4667,-0.5157,-0.4639,-0.4781,-0.5342,-0.4719,-0.3849,-0.2845,-0.211,-0.1141,0.0,0.0,0.0,0.0,0.0,0.0,0.0,0.0,0.0,0.0,0.0,0.0,0.0,0.0,0.0,0.0,0.0,0.0,-0.0923,-0.1507,-0.204,-0.2591,-0.3193,-0.3578,-0.3846,-0.4201,-0.4725,-0.4907,-0.4904,-0.4954,-0.4818,-0.4511,-0.4147,-0.4111,-0.424,-0.4542,-0.4537,-0.4433,-0.4544,-0.4566,-0.4538,-0.4522,-0.4508,-0.4505,-0.4491,-0.4491,-0.4491,-0.4491,-0.4491,-0.4446,-0.425,-0.4001,-0.3707,-0.3192,-0.297,-0.2563,-0.2272,-0.7426,-0.8017,-0.9165,-0.9666,-0.9771,-1.033,-1.0869,-1.13,-1.1359,-1.167,-1.197,-1.1649,-1.1364,-1.1498,-1.1735,-1.164,-1.1186,-1.0695,-1.0324,-1.0014,-0.9674,-0.9599,-0.9744,-0.9927,-0.9965,-0.9669,-0.837,-0.7326,-0.6451,-0.6083,-0.5237,-0.3456,-0.2968,0.0,0.0,0.0,0.0,0.0,0.0,0.0,0.0,-0.0912,-0.1542,-0.1877,-0.2553,-0.3534,-0.4073,-0.3961,-0.4574,-0.5198,-0.5019,-0.494,-0.5107,-0.4553,-0.3647,-0.2728,-0.1859,0.0,0.0,0.0,0.0,0.0,0.0,0.0,0.0,0.0,0.0,0.0,0.0,0.0,0.0,0.0,0.0,0.0,0.0,0.0,-0.1827,-0.2596,-0.298,-0.3332,-0.3951,-0.455,-0.4738,-0.4788,-0.5193,-0.5193,-0.5379,-0.5541,-0.5524,-0.5754,-0.5439,-0.5206,-0.5271,-0.501,-0.4759,-0.4594,-0.4494,-0.4498,-0.4543,-0.4491,-0.4505,-0.4491,-0.4491,-0.4491,-0.4491,-0.4491,-0.4491,-0.4491,-0.4491,-0.4308,-0.4042,-0.3721,-0.3525,-0.3248,-0.2762,-0.8057,-0.9209,-1.033,-1.0821,-1.0848,-1.1047,-1.1643,-1.2413,-1.252,-1.3075,-1.3675,-1.2829,-1.2553,-1.2822,-1.3169,-1.3258,-1.2909,-1.1875,-1.1327,-1.0859,-1.0239,-1.0533,-1.0733,-1.0802,-1.0353,-0.9588,-0.8423,-0.7326,-0.6315,-0.6122,-0.5356,-0.3573,-0.2695,0.0,0.0,0.0,0.0,0.0,0.0,0.0,0.0,-0.0882,-0.1272,-0.18,-0.2347,-0.3359,-0.4146,-0.4405,-0.4704,-0.5332,-0.5486,-0.5383,-0.5043,-0.4519,-0.3832,-0.2978,-0.2227,-0.1392,0.0,0.0,0.0,0.0,-0.0101,0.0,0.0,0.0,0.0,0.0,0.0,0.0,0.0,0.0,0.0,-0.1359,-0.1609,-0.1877,-0.278,-0.3632,-0.3954,-0.4189,-0.4688,-0.5342,-0.5425,-0.5458,-0.5591,-0.5557,-0.5657,-0.5706,-0.5912,-0.6333,-0.6415,-0.6173,-0.6067,-0.5721,-0.5375,-0.4757,-0.4556,-0.4704,-0.4746,-0.4598,-0.4491,-0.4491,-0.4491,-0.4491,-0.4491,-0.4491,-0.4491,-0.4491,-0.4491,-0.4491,-0.4322,-0.4042,-0.376,-0.3442,-0.2931,-0.9231,-1.0373,-1.1509,-1.198,-1.212,-1.2975,-1.3582,-1.3737,-1.3716,-1.3934,-1.3916,-1.3723,-1.3489,-1.3732,-1.3561,-1.3447,-1.308,-1.2447,-1.2282,-1.1924,-1.1267,-1.1607,-1.1471,-1.0634,-0.972,-0.8836,-0.8027,-0.7303,-0.6432,-0.6203,-0.5276,-0.3357,-0.3124,-0.215,0.0,0.0,0.0,0.0,0.0,0.0,0.0,-0.051,-0.0843,-0.1019,-0.096,-0.2542,-0.3436,-0.2881,-0.3939,-0.502,-0.5701,-0.5522,-0.5125,-0.4569,-0.3915,-0.3463,-0.2711,-0.2228,-0.1694,-0.1292,-0.1124,-0.1007,-0.089,0.0,0.0,0.0,0.0,0.0,0.0,0.0,0.0,0.0,-0.2193,-0.2561,-0.2845,-0.3215,-0.3837,-0.4536,-0.505,-0.5186,-0.5385,-0.5686,-0.5732,-0.5996,-0.6461,-0.658,-0.6957,-0.7022,-0.701,-0.7224,-0.7352,-0.7196,-0.6976,-0.6968,-0.6807,-0.516,-0.4718,-0.4879,-0.4893,-0.4639,-0.4491,-0.4491,-0.4491,-0.4491,-0.4491,-0.4491,-0.4491,-0.4491,-0.4491,-0.4491,-0.4491,-0.4322,-0.4039,-0.3801,-0.343]},{"header":{"parameterUnit":"m.s-1","parameterCategory":1,"la1":31.0,"la2":29.5877,"lo1":-88.7671,"lo2":-86.6584,"dy":0.0162,"dx":0.0185,"nx":115,"ny":88,"refTime":"2024-07-26T06:00:00:Z","depth":0,"parameterNumber":3,"parameterNumberName":"V-component_of_WINDS"},"data":[0.0,0.0,0.0,0.0,0.0,0.0,0.0,0.0,0.0,0.0,0.0,0.0,0.0,0.0,0.0,0.0,0.0,0.0,0.0,0.0,0.0,0.0,0.0,0.0,0.0,0.0,0.0,0.0,0.0,0.0,0.0,0.0,0.0,0.0,0.0,0.0,0.0,0.0,0.0,0.0,0.0,0.0,0.0,0.0,0.0,0.0,0.0,0.0,0.0,0.0,0.0,0.0,0.0,0.0,0.0,0.0,0.0,0.0,0.0,0.0,0.0,0.0,0.0,0.0,0.0,0.0,0.0,0.0,0.0,0.0,0.0,0.0,0.0,0.0,0.0,0.0,0.0,0.0,0.0,0.0,0.0,0.0,0.0,0.0,0.0,0.0,0.0,0.0,0.0,0.0,0.0,0.0,0.0,0.0,0.0,0.0,0.0,0.0,0.0,0.0,0.0,0.0,0.0,0.0,0.0,0.0,0.0,0.0,0.0,0.0,0.0,0.0,0.0,0.0,0.0,0.0,0.0,0.0,0.0,0.0,0.0,0.0,0.0,0.0,0.0,0.0,0.0,0.0,0.0,0.0,0.0,0.0,0.0,0.0,0.0,0.0,0.0,0.0,0.0,0.0,0.0,0.0,0.0,0.0,0.0,0.0,0.0,0.0,0.0,0.0,0.0,0.0,0.0,0.0,0.0,0.0,0.0,0.0,0.0,0.0,0.0,0.0,0.0,0.0,0.0,0.0,0.0,0.0,0.0,0.0,0.0,0.0,0.0,0.0,0.0,0.0,0.0,0.0,0.0,0.0,0.0,0.0,0.0,0.0,0.0,0.0,0.0,0.0,0.0,0.0,0.0,0.0,0.0,0.0,0.0,0.0,0.0,0.0,0.0,0.0,0.0,0.0,0.0,0.0,0.0,0.0,0.0,0.0,0.0,0.0,0.0,0.0,0.0,0.0,0.0,0.0,0.0,0.0,0.0,0.0,0.0,0.0,0.0,0.0,0.0,0.0,0.0,0.0,0.0,0.0,0.0,0.0,0.0,0.0,0.0,0.0,0.0,0.0,0.0,0.0,0.0,0.0,0.0,0.0,0.0,0.0,0.0,0.0,0.0,0.0,0.0,0.0,0.0,0.0,0.0,0.0,0.0,0.0,0.0,0.0,0.0,0.0,0.0,0.0,0.0,0.0,0.0,0.0,0.0,0.0,0.0,0.0,0.0,0.0,0.0,0.0,0.0,0.0,0.0,0.0,0.0,0.0,0.0,0.0,0.0,0.0,0.0,0.0,0.0,0.0,0.0,0.0,0.0,0.0,0.0,0.0,0.0,0.0,0.0,0.0,0.0,0.0,0.0,0.0,0.0,0.0,0.0,0.0,0.0,0.0,0.0,0.0,0.0,0.0,0.0,0.0,0.0,0.0,0.0,0.0,0.0,0.0,0.0,0.0,0.0,0.0,0.0,0.0,0.0,0.0,0.0,0.0,0.0,0.0,0.0,0.0,0.0,0.0,0.0,0.0,0.0,0.0,0.0,0.0,0.0,0.0,0.0,0.0,0.0,0.0,0.0,0.0,0.0,0.0,0.0,0.0,0.0,0.0,0.0,0.0,0.0,0.0,0.0,0.0,0.0,0.0,0.0,0.0,0.0,0.0,0.0,0.0,0.0,0.0,0.0,0.0,0.0,0.0,0.0,0.0,0.0,0.0,0.0,0.0,0.0,0.0,0.0,0.0,0.0,0.0,0.0,0.0,0.0,0.0,0.0,0.0,0.0,0.0,0.0,0.0,0.0,0.0,0.0,0.0,0.0,0.0,0.0,0.0,0.0,0.0,0.0,0.0,0.0,0.0,0.0,0.0,0.0,0.0,0.0,0.0,0.0,0.0,0.0,0.0,0.0,0.0,0.0,0.0,0.0,0.0,0.0,0.0,0.0,0.0,0.0,0.0,0.0,0.0,0.0,0.0,0.0,0.0,0.0,0.0,0.0,0.0,0.0,0.0,0.0,0.0,0.0,0.0,0.0,0.0,0.0,0.0,0.0,0.0,0.0,0.0,0.0,0.0,0.0,0.0,0.0,0.0,0.0,0.0,0.0,0.0,0.0,0.0,0.0,0.0,0.0,0.0,0.0,0.0,0.0,0.0,0.0,0.0,0.0,0.0,0.0,0.0,0.0,0.0,0.0,0.0,0.0,0.0,0.0,0.0,0.0,0.0,0.0,0.0,0.0,0.0,0.0,0.0,0.0,0.0,0.0,0.0,0.0,0.0,0.0,0.0,0.0,0.0,0.0,0.0,0.0,0.0,0.0,0.0,0.0,0.0,0.0,0.0,0.0,0.0,0.0,0.0,0.0,0.0,0.0,0.0,0.0,0.0,0.0,0.0,0.0,0.0,0.0,0.0,0.0,0.0,0.0,0.0,0.0,0.0,0.0,0.0,0.0,0.0,0.0,0.0,0.0,0.0,0.0,0.0,0.0,0.0,0.0,0.0,0.0,0.0,0.0,0.0,0.0,0.0,0.0,0.0,0.0,0.0,0.0,0.0,0.0,0.0,0.0,0.0,0.0,0.0,0.0,0.0,0.0,0.0,0.0,0.0,0.0,0.0,0.0,0.0,0.0,0.0,0.0,0.0,0.0,0.0,0.0,0.0,0.0,0.0,0.0,0.0,0.0,0.0,0.0,0.0,0.0,0.0,0.0,0.0,0.0,0.0,0.0,0.0,0.0,0.0,0.0,0.0,0.0,0.0,0.0,0.0,0.0,0.0,0.0,0.0,0.0,0.0,0.0,0.0,0.0,0.0,0.0,0.0,0.0,0.0,0.0,0.0,0.0,0.0,0.0,0.0,0.0,0.0,0.0,0.0,0.0,0.0,0.0,0.0,0.0,0.0,0.0,0.0,0.0,0.0,0.0,0.0,0.0,0.0,0.0,0.0,0.0,0.0,0.0,0.0,0.0,0.0,0.0,0.0,0.0,0.0,0.0,0.0,0.0,0.0,0.0,0.0,0.0,0.0,0.0,0.0,0.0,0.0,0.0,0.0,0.0,0.0,0.0,0.0,0.0,0.0,0.0,0.0,0.0,0.0,0.0,0.0,0.0,0.0,0.0,0.0,0.0,0.0,0.0,0.0,0.0,0.0,0.0,0.0,0.0,0.0,0.0,0.0,0.0,0.0,0.0,0.0,0.0,0.0,0.0,0.0,0.0,0.0,0.0,0.0,0.0,0.0,0.0,0.0,0.0,0.0,0.0,0.0,0.0,0.0,0.0,0.0,0.0,0.0,0.0,0.0,0.0,0.0,0.0,0.0,0.0,0.0,0.0,0.0,0.0,0.0,0.0,0.0,0.0,0.0,0.0,0.0,0.0,0.0,0.0,0.0,0.0,0.0,0.0,0.0,0.0,0.0,0.0,0.0,0.0,0.0,0.0,0.0,0.0,0.0,0.0,0.0,0.0,0.0,0.0,0.0,0.0,0.0,0.0,0.0,0.0,0.0,0.0,0.0,0.0,0.0,0.0,0.0,0.0,0.0,0.0,0.0,0.0,0.0,0.0,0.0,0.0,0.0,0.0,0.0,0.0,0.0,0.0,0.0,0.0,0.0,0.0,0.0,0.0,0.0,0.0,0.0,0.0,0.0,0.0,0.0,0.0,0.0,0.0,0.0,0.0,0.0,0.0,0.0,0.0,0.0,0.0,0.0,0.0,0.0,0.0,0.0,0.0,0.0,0.0,0.0,0.0,0.0,0.0,0.0,0.0,0.0,0.0,0.0,0.0,0.0,0.0,0.0,0.0,0.0,0.0,0.0,0.0,0.0,0.0,0.0,0.0,0.0,0.0,0.0,0.0,0.0,0.0,0.0,0.0,0.0,0.0,0.0,0.0,0.0,0.0,0.0,0.0,0.0,0.0,0.0,0.0,0.0,0.0,0.0,0.0,0.0,0.0,0.0,0.0,0.0,0.0,0.0,0.0,0.0,0.0,0.0,0.0,0.0,0.0,0.0,0.0,0.0,0.0,0.0,0.0,0.0,0.0,0.0,0.0,0.0,0.0,0.0,0.0,0.0,0.0,0.0,0.0,0.0,0.0,0.0,0.0,0.0,0.0,0.0,0.0,0.0,0.0,0.0,0.0,0.0,0.0,0.0,0.0,0.0,0.0,0.0,0.0,0.0,0.0,0.0,0.0,0.0,0.0,0.0,0.0,0.0,0.0,0.0,0.0,0.0,0.0,0.0,0.0,0.0,0.0,0.0,0.0,0.0,0.0,0.0,0.0,0.0,0.0,0.0,0.0,0.0,0.0,0.0,0.5238,0.0,0.0,0.0,0.0,0.0,0.0,0.0,0.0,0.0,0.0,0.0,0.0,0.0,0.0,0.0,0.0,0.0,0.0,0.0,0.0,0.0,0.0,0.0,0.0,0.0,0.0,0.0,0.0,0.0,0.0,0.0,0.0,0.0,0.0,0.0,0.0,0.0,0.0,0.0,0.0,0.0,0.0,0.0,0.0,0.0,0.0,0.0,0.0,0.0,0.0,0.0,0.0,0.0,0.0,0.0,0.0,0.0,0.0,0.0,0.0,0.0,0.0,0.0,0.0,0.0,0.0,0.0,0.0,0.0,0.0,0.0,0.0,0.0,0.0,0.0,0.0,0.0,0.0,0.0,0.0,0.0,0.0,0.0,0.0,0.0,0.0,0.0,0.0,0.0,0.0,0.0,0.0,0.0,0.0,0.0,0.0,0.0,0.0,0.0,0.0,0.0,0.0,0.0,0.0,0.0,0.0,0.0,0.0,0.0,0.0,0.4806,0.485,0.4828,0.4829,0.4866,0.0,0.0,0.0,0.0,0.0,0.0,0.0,0.0,0.0,0.0,0.0,0.0,0.0,0.0,0.0,0.0,0.0,0.0,0.0,0.0,0.0,0.0,0.0,0.0,0.0,0.0,0.0,0.0,0.0,0.0,0.0,0.0,0.0,0.0,0.0,0.0,0.0,0.0,0.0,0.0,0.0,0.0,0.0,0.0,0.0,0.0,0.0,0.0,0.0,0.0,0.0,0.0,0.0,0.0,0.0,0.0,0.0,0.0,0.0,0.0,0.0,0.0,0.0,0.0,0.0,0.0,0.0,0.0,0.0,0.0,0.0,0.0,0.0,0.0,0.0,0.0,0.0,0.0,0.0,0.0,0.0,0.0,0.0,0.0,0.0,0.0,0.0,0.0,0.0,0.0,0.0,0.0,0.0,0.0,0.0,0.0,0.0,0.0,0.0,0.0,0.0,0.0,0.0,0.0,0.0,0.0,0.0,0.0,0.0,0.0,0.0,0.0,0.494,0.4982,0.4964,0.0,0.0,0.0,0.0,0.0,0.0,0.0,0.0,0.0,0.0,0.0,0.0,0.0,0.0,0.0,0.0,0.0,0.0,0.0,0.0,0.0,0.0,0.0,0.0,0.0,0.0,0.0,0.0,0.0,0.0,0.0,0.0,0.0,0.0,0.0,0.0,0.0,0.0,0.0,0.0,0.0,0.0,0.0,0.0,0.0,0.0,0.0,0.0,0.0,0.0,0.0,0.0,0.0,0.0,0.0,0.0,0.0,0.0,0.0,0.0,0.0,0.0,0.0,0.0,0.0,0.0,0.0,0.0,0.0,0.0,0.0,0.0,0.0,0.0,0.0,0.0,0.0,0.0,0.0,0.0,0.0,0.0,0.0,0.0,0.0,0.0,0.0,0.0,0.0,0.0,0.0,0.0,0.0,0.0,0.0,0.0,0.0,0.0,0.0,0.0,0.0,0.0,0.0,0.0,0.0,0.0,0.0,0.0,0.0,0.0,0.4726,0.6082,0.5777,0.0,0.647,0.0,0.0,0.0,0.0,0.0,0.0,0.0,0.0,0.0,0.0,0.0,0.0,0.0,0.0,0.0,0.0,0.0,0.0,0.0,0.0,0.0,0.0,0.0,0.0,0.0,0.0,0.0,0.0,0.0,0.0,0.0,0.0,0.0,0.0,0.0,0.0,0.0,0.0,0.0,0.0,0.0,0.0,0.0,0.0,0.0,0.0,0.0,0.0,0.0,0.0,0.0,0.0,0.0,0.0,0.0,0.0,0.0,0.0,0.0,0.0,0.0,0.0,0.0,0.0,0.0,0.0,0.0,0.0,0.0,0.0,0.0,0.0,0.0,0.0,0.0,0.0,0.0,0.0,0.0,0.0,0.0,0.0,0.0,0.0,0.0,0.0,0.0,0.0,0.0,0.0,0.0,0.0,0.0,0.0,0.0,0.0,0.0,0.0,0.0,0.0,0.0,0.0,0.0,0.0,0.0,0.0,0.0,0.0,0.0,0.0,0.0,0.5409,0.5396,0.5681,0.0,0.0,0.0,0.0,0.0,0.0,0.0,0.0,0.0,0.0,0.0,0.0,0.0,0.0,0.0,0.0,0.0,0.0,0.0,0.0,0.0,0.0,0.0,0.0,0.0,0.0,0.0,0.0,0.0,0.0,0.0,0.0,0.0,0.0,0.0,0.0,0.0,0.0,0.0,0.0,0.0,0.0,0.0,0.0,0.0,0.0,0.0,0.0,0.0,0.0,0.0,0.0,0.0,0.0,0.0,0.0,0.0,0.0,0.0,0.0,0.0,0.0,0.0,0.0,0.0,0.0,0.0,0.0,0.0,0.0,0.0,0.0,0.0,0.0,0.0,0.0,0.0,0.0,0.0,0.0,0.0,0.0,0.0,0.0,0.0,0.0,0.0,0.0,0.0,0.0,0.0,0.0,0.0,0.0,0.0,0.0,0.0,0.0,0.0,0.0,0.0,0.0,0.0,0.0,0.0,0.0,0.0,0.0,0.0,0.0,0.4978,0.0,0.53,0.5598,0.5864,0.6008,0.0,0.0,0.0,0.0,0.0,0.0,0.0,0.0,0.0,0.0,0.0,0.0,0.0,0.0,0.0,0.0,0.0,0.0,0.0,0.0,0.0,0.0,0.0,0.0,0.0,0.0,0.0,0.0,0.0,0.0,0.0,0.0,0.0,0.0,0.0,0.0,0.0,0.0,0.0,0.0,0.0,0.0,0.0,0.0,0.0,0.0,0.0,0.0,0.0,0.0,0.0,0.0,0.0,0.0,0.0,0.0,0.0,0.0,0.0,0.0,0.0,0.0,0.0,0.0,0.0,0.0,0.0,0.0,0.0,0.0,0.0,0.0,0.0,0.0,0.0,0.0,0.0,0.0,0.0,0.0,0.0,0.0,0.0,0.0,0.0,0.0,0.0,0.0,0.0,0.0,0.0,0.0,0.0,0.0,0.0,0.0,0.0,0.0,0.0,0.0,0.0,0.0,0.0,0.0,0.0,0.0,0.0,0.0,0.0,0.5257,0.5368,0.6475,0.6955,0.6863,0.0,0.0,0.0,0.0,0.0,0.0,0.0,0.0,0.0,0.0,0.0,0.0,0.0,0.0,0.0,0.0,0.0,0.0,0.0,0.0,0.0,0.0,0.0,0.0,0.0,0.0,0.0,0.0,0.0,0.0,0.0,0.0,0.0,0.0,0.0,0.0,0.0,0.0,0.0,0.0,0.0,0.0,0.0,0.0,0.0,0.0,0.0,0.0,0.0,0.0,0.0,0.0,0.0,0.0,0.0,0.0,0.0,0.0,0.0,0.0,0.0,0.0,0.0,0.0,0.0,0.0,0.0,0.0,0.0,0.0,0.0,0.0,0.0,0.0,0.0,0.0,0.0,0.0,0.0,0.0,0.0,0.0,0.0,0.0,0.0,0.0,0.0,0.0,0.0,0.0,0.0,0.0,0.0,0.0,0.0,0.0,0.0,0.0,0.0,0.0,0.0,0.0,0.0,0.0,0.0,0.0,0.0,0.0,0.0,0.4456,0.485,0.5878,0.7522,0.6911,0.6711,0.0,0.0,0.0,0.0,0.0,0.0,0.0,0.0,0.0,0.0,0.0,0.0,0.0,0.0,0.0,0.0,0.0,0.0,0.0,0.0,0.0,0.0,0.0,0.0,0.0,0.0,0.0,0.0,0.0,0.0,0.0,0.0,0.0,0.0,0.0,0.0,0.0,0.0,0.0,0.0,0.0,0.0,0.0,0.0,0.0,0.0,0.0,0.0,0.0,0.0,0.0,0.0,0.0,0.0,0.0,0.0,0.0,0.0,0.0,0.0,0.0,0.0,0.0,0.0,0.0,0.0,0.0,0.0,0.0,0.0,0.0,0.0,0.0,0.0,0.0,0.0,0.0,0.0,0.0,0.0,0.0,0.0,0.0,0.0,0.0,0.0,0.0,0.0,0.0,0.0,0.0,0.0,0.0,0.0,0.0,0.0,0.0,0.0,0.0,0.0,0.0,0.0,0.0,0.0,0.0,0.0,0.0,0.0,0.0,0.4222,0.0,0.6578,0.0,0.6984,0.6689,0.0,0.0,0.0,0.0,0.0,0.0,0.0,0.0,0.0,0.0,0.0,0.0,0.0,0.0,0.0,0.0,0.0,0.0,0.0,0.0,0.0,0.0,0.0,0.0,0.0,0.0,0.0,0.0,0.0,0.0,0.0,0.0,0.0,0.0,0.0,0.0,0.0,0.0,0.0,0.0,0.0,0.0,0.0,0.0,0.0,0.0,0.0,0.0,0.0,0.0,0.0,0.0,0.0,0.0,0.0,0.0,0.0,0.0,0.0,0.0,0.0,0.0,0.0,0.0,0.0,0.0,0.0,0.0,0.0,0.0,0.0,0.0,0.0,0.0,0.0,0.0,0.0,0.0,0.0,0.0,0.0,0.0,0.0,0.0,0.0,0.0,0.0,0.0,0.0,0.0,0.0,0.0,0.0,0.0,0.0,0.0,0.0,0.0,0.0,0.0,0.0,0.0,0.0,0.0,0.0,0.0,0.0,0.0,0.4235,0.5645,0.7017,0.7392,0.6599,0.7291,0.6885,0.0,0.0,0.0,0.0,0.0,0.0,0.0,0.0,0.0,0.0,0.0,0.0,0.0,0.0,0.0,0.0,0.0,0.0,0.0,0.0,0.0,0.0,0.0,0.0,0.0,0.0,0.0,0.0,0.0,0.0,0.0,0.0,0.0,0.0,0.0,0.0,0.0,0.0,0.0,0.0,0.0,0.0,0.0,0.0,0.0,0.0,0.0,0.0,0.0,0.0,0.0,0.0,0.0,0.0,0.0,0.0,0.0,0.0,0.0,0.0,0.0,0.0,0.0,0.0,0.0,0.0,0.0,0.0,0.0,0.0,0.0,0.0,0.0,0.0,0.0,0.0,0.0,0.0,0.0,0.0,0.0,0.0,0.0,0.0,0.0,0.0,0.0,0.0,0.0,0.0,0.0,0.0,0.0,0.0,0.0,0.0,0.0,0.0,0.0,0.0,0.0,0.0,0.0,0.0,0.0,0.0,0.0,0.0,0.0,0.5395,0.7036,0.8069,0.8335,0.7656,0.7374,0.0,0.0,0.0,0.0,0.0,0.0,0.0,0.0,0.0,0.0,0.0,0.0,0.0,0.0,0.0,0.0,0.0,0.0,0.0,0.0,0.0,0.0,0.0,0.0,0.0,0.0,0.0,0.0,0.0,0.0,0.0,0.0,0.0,0.0,0.0,0.0,0.0,0.0,0.0,0.0,0.0,0.0,0.0,0.0,0.0,0.0,0.0,0.0,0.0,0.0,0.0,0.0,0.0,0.0,0.0,0.0,0.0,0.0,0.0,0.0,0.0,0.0,0.0,0.0,0.0,0.0,0.0,0.0,0.0,0.0,0.0,0.0,0.0,0.0,0.0,0.0,0.0,0.0,0.0,0.0,0.0,0.0,0.0,0.0,0.0,0.0,0.0,0.0,0.0,0.0,0.0,0.0,0.0,0.0,0.0,0.0,0.0,0.0,0.0,0.0,0.0,0.0,0.0,0.0,0.0,0.0,0.0,0.0,0.0,0.6815,0.8469,0.9478,0.967,0.882,0.8446,0.8549,0.0,0.0,0.0,0.0,0.0,0.0,0.0,0.0,0.0,0.0,0.0,0.0,0.0,0.0,0.0,0.0,0.0,0.0,0.0,0.0,0.0,0.0,0.0,0.0,0.0,0.0,0.0,0.0,0.0,0.0,0.0,0.0,0.0,0.0,0.0,0.0,0.0,0.0,0.0,0.0,0.0,0.0,0.0,0.0,0.0,0.0,0.0,0.0,0.0,0.0,0.0,0.0,0.0,0.0,0.0,0.0,0.0,0.0,0.0,0.0,0.0,0.0,0.0,0.0,0.0,0.0,0.0,0.0,0.0,0.0,0.0,0.0,0.0,0.0,0.0,0.0,0.0,0.0,0.0,0.0,0.0,0.0,0.0,0.0,0.0,0.0,0.0,0.0,0.0,0.0,0.0,0.0,0.0,0.0,0.0,0.0,0.0,0.0,0.0,0.0,0.0,0.0,0.0,0.0,0.0,0.0,0.0,0.0,0.9398,1.1043,1.1542,1.0767,1.062,0.9946,0.0,0.0,0.0,0.0,0.0,0.0,0.0,0.0,0.0,0.0,0.0,0.0,0.0,0.0,0.0,0.0,0.0,0.0,0.0,0.0,0.0,0.0,0.0,0.0,0.0,0.0,0.0,0.0,0.0,0.0,0.0,0.0,0.0,0.0,0.0,0.0,0.0,0.0,0.0,0.0,0.0,0.0,0.0,0.0,0.0,0.0,0.0,0.0,0.0,0.0,0.0,0.0,0.0,0.0,0.0,0.0,0.0,0.0,0.0,0.0,0.0,0.0,0.0,0.0,0.0,0.0,0.0,0.0,0.0,0.0,0.0,0.0,0.0,0.0,0.0,0.0,0.0,0.0,0.0,0.0,0.0,0.0,0.0,0.0,0.0,0.0,0.0,0.0,0.0,0.0,0.0,0.0,0.0,0.0,0.0,0.0,0.0,0.0,0.0,0.0,0.0,0.0,0.0,0.0,0.0,0.0,0.0,0.0,0.0,1.0812,1.3255,1.413,1.3165,1.2105,1.1274,0.0,0.0,0.0,0.0,0.0,0.0,0.0,0.0,0.0,0.0,0.0,0.0,0.0,0.0,0.0,0.0,0.0,0.0,0.0,0.0,0.0,0.0,0.0,0.0,0.0,0.0,0.0,0.0,0.0,0.0,0.0,0.0,0.0,0.0,0.0,0.0,0.0,0.0,0.0,0.0,0.0,0.0,0.0,0.0,0.0,0.0,0.0,0.0,0.0,0.0,0.0,0.0,0.0,0.0,0.0,0.0,0.0,0.0,0.0,0.0,0.0,0.0,0.0,0.0,0.0,0.0,0.0,0.0,0.0,0.0,0.0,0.0,0.0,0.0,0.0,0.0,0.0,0.0,0.0,0.0,0.0,0.0,0.0,0.0,0.0,0.0,0.0,0.0,0.0,0.0,0.0,0.0,0.0,0.0,0.0,0.0,0.0,0.0,0.0,0.0,0.0,0.0,0.0,0.0,0.0,0.0,0.0,0.0,1.0607,1.2069,1.4388,1.5446,1.5117,1.3842,1.2752,0.0,0.0,0.0,0.0,0.0,0.0,0.0,0.0,0.0,0.0,0.0,0.0,0.0,0.0,0.0,0.0,0.0,0.0,0.0,0.0,0.0,0.0,0.0,0.0,0.0,0.0,0.0,0.0,0.0,0.0,0.0,0.0,0.0,0.0,0.0,0.0,0.0,0.0,0.0,0.0,0.0,0.0,0.0,0.0,0.0,0.0,0.0,0.0,0.0,0.0,0.0,0.0,0.0,0.0,0.0,0.0,0.0,0.0,0.0,0.0,0.0,0.0,0.0,0.0,0.0,0.0,0.0,0.0,0.0,0.0,0.0,0.0,0.0,0.0,0.0,0.0,0.0,0.0,0.0,0.0,0.0,0.0,0.0,0.0,0.0,0.0,0.0,0.0,0.0,0.0,0.0,0.0,0.0,0.0,0.0,0.0,0.0,0.0,0.0,0.0,0.0,0.0,0.0,0.0,0.0,0.0,0.0,0.0,1.1463,1.3269,1.4863,1.5941,1.6441,1.5502,1.4221,0.0,0.0,0.0,0.0,0.0,0.0,0.0,0.0,0.0,0.0,0.0,0.0,0.0,0.0,0.0,0.0,0.0,0.0,0.0,0.0,0.0,0.0,0.0,0.0,0.0,0.0,0.0,0.0,0.0,0.0,0.0,0.0,0.0,0.0,0.0,0.0,0.0,0.0,0.0,0.0,0.0,0.0,0.0,0.0,0.0,0.0,0.0,0.0,0.0,0.0,0.0,0.0,0.0,0.0,0.0,0.0,0.0,0.0,0.0,0.0,0.0,0.0,0.0,0.0,0.0,0.0,0.0,0.0,0.0,0.0,0.0,0.0,0.0,0.0,0.0,0.0,0.0,0.0,0.0,0.0,0.0,0.0,0.0,0.0,0.0,0.0,0.0,0.0,0.0,0.0,0.0,0.0,0.0,0.0,0.0,0.0,0.0,0.0,0.0,0.0,0.0,0.0,0.0,0.0,0.0,0.0,0.0,0.0,1.2519,1.3976,1.5497,1.6367,1.6511,1.5869,1.4972,0.0,0.0,0.0,0.0,0.0,0.0,0.0,0.0,0.0,0.0,0.0,0.0,0.0,0.0,0.0,0.0,0.0,0.0,0.0,0.0,0.0,0.0,0.0,0.0,0.0,0.0,0.0,0.0,0.0,0.0,0.0,0.0,0.0,0.0,0.0,0.0,0.0,0.0,0.0,0.0,0.0,0.0,0.0,0.0,0.0,0.0,0.0,0.0,0.5884,0.0,0.0,0.0,0.0,0.0,0.0,0.0,0.0,0.0,0.0,0.0,0.0,0.0,0.0,0.0,0.0,0.0,0.0,0.0,0.0,0.0,0.0,0.0,0.0,0.0,0.0,0.0,0.0,0.0,0.0,0.0,0.0,0.0,0.0,0.0,0.0,0.0,0.0,0.0,0.0,0.0,0.0,0.0,0.0,0.0,0.0,0.0,0.0,0.0,0.0,0.0,0.0,0.0,0.0,0.0,0.0,0.0,0.0,0.0,1.3497,1.5185,1.6319,1.6993,1.7216,1.6978,1.5958,0.0,0.0,0.0,0.0,0.0,0.0,0.0,0.0,0.0,0.0,0.0,0.0,0.0,0.0,0.0,0.0,0.0,0.0,0.0,0.0,0.0,0.0,0.0,0.0,0.0,0.0,0.0,0.0,0.0,0.0,0.0,0.0,0.0,0.0,0.0,0.0,0.0,0.0,0.0,0.0,0.0,0.0,0.0,0.0,0.0,0.0,0.0,0.0,0.0,0.0,0.0,0.0,0.0,0.0,0.0,0.0,0.0,0.0,0.0,0.0,0.0,0.0,0.0,0.0,0.0,0.0,0.0,0.0,0.0,0.0,0.0,0.0,0.0,0.0,0.0,0.0,0.0,0.0,0.0,0.0,0.0,0.0,0.0,0.0,0.0,0.0,0.0,0.0,0.0,0.0,0.0,0.0,0.0,0.0,0.0,0.0,0.0,0.0,0.0,0.0,0.0,0.0,0.0,0.0,0.0,0.0,0.0,1.2149,1.438,1.6447,1.712,1.7636,1.8082,1.8092,1.6911,1.4386,0.0,0.0,0.0,0.0,0.0,0.0,0.0,0.0,0.0,0.0,0.0,0.0,0.0,0.0,0.0,0.0,0.0,0.0,0.0,0.0,0.0,0.0,0.0,0.0,0.0,0.0,0.0,0.0,0.0,0.0,0.0,0.0,0.0,0.0,0.0,0.0,0.0,0.0,0.5102,0.6169,0.0,0.0,0.0,0.0,0.0,0.0,0.0,0.0,0.7904,0.0,0.0,0.0,0.0,0.0,0.0,0.0,0.0,0.0,0.0,0.0,0.0,0.0,0.0,0.0,0.0,0.0,0.0,0.0,0.0,0.0,0.0,0.0,0.0,0.0,0.0,0.0,0.0,0.0,0.0,0.0,0.0,0.0,0.0,0.0,0.0,0.0,0.0,0.0,0.0,0.0,0.0,0.0,0.0,0.0,0.0,0.0,0.0,0.0,0.0,0.0,0.0,0.0,0.0,0.0,0.0,1.1387,1.3089,1.4985,1.7081,1.7683,1.8007,1.8092,1.8092,1.7165,1.5192,0.0,0.0,0.0,0.0,0.0,0.0,0.0,0.0,0.0,0.0,0.0,0.0,0.0,0.0,0.0,0.0,0.0,0.0,0.0,0.0,0.0,0.0,0.0,0.0,0.0,0.0,0.0,0.0,0.0,0.0,0.0,0.0,0.0,0.0,0.0,0.0,0.0,0.0,0.0,0.7908,0.8707,0.0,0.0,0.0,0.0,0.0,0.0,0.0,0.0,0.8727,0.0,0.0,0.0,0.0,0.0,0.0,0.0,0.0,0.0,0.0,0.0,0.0,0.0,0.0,0.0,0.0,0.0,0.0,0.0,0.0,0.0,0.0,0.0,0.0,0.0,0.0,0.0,0.0,0.0,0.0,0.0,0.0,0.0,0.0,0.0,0.0,0.0,0.0,0.0,0.0,0.0,0.0,0.0,0.0,0.0,0.0,0.0,0.0,0.0,0.0,0.0,0.0,0.0,0.0,0.0,1.2028,1.4179,1.6218,1.8054,1.838,1.8655,1.8907,1.8259,1.7224,0.0,0.0,0.0,0.0,0.0,0.0,0.0,0.0,0.0,0.0,0.0,0.0,0.0,0.0,0.0,0.0,0.0,0.0,0.0,0.0,0.0,0.0,0.0,0.0,0.0,0.0,0.0,0.0,0.0,0.0,0.0,0.0,0.0,0.0,0.0,0.0,0.0,0.0,0.0,0.0,0.8298,0.9179,0.9423,0.0,0.0,0.0,0.0,0.0,0.0,0.9431,0.9799,0.0,0.0,0.0,0.0,0.0,0.0,0.0,0.0,0.0,0.0,0.0,0.0,0.0,0.0,0.0,0.0,0.0,0.0,0.0,0.0,0.0,0.0,0.0,0.0,0.0,0.0,0.0,0.0,0.0,0.0,0.0,0.0,0.0,0.0,0.0,0.0,0.0,0.0,0.0,0.0,0.0,0.0,0.0,0.0,0.0,0.0,0.0,0.0,0.0,0.0,0.0,0.0,0.0,0.0,0.0,1.2332,1.5135,1.7333,1.8807,1.8996,1.9262,1.966,1.8655,1.7448,0.0,0.0,0.0,0.0,0.0,0.0,0.0,0.0,0.0,0.0,0.0,0.0,0.0,0.0,0.0,0.0,0.0,0.0,0.0,0.0,0.0,0.0,0.0,0.0,0.0,0.0,0.0,0.0,0.0,0.0,0.0,0.0,0.0,0.0,0.0,0.0,0.0,0.0,0.0,0.0,0.0,0.9549,1.0237,1.0599,0.0,0.0,0.0,0.0,1.0002,1.0672,0.0,0.0,0.0,0.0,0.0,0.0,0.0,0.0,0.0,0.0,0.0,0.0,0.0,0.0,0.0,0.0,0.0,0.0,0.0,0.0,0.0,0.0,0.0,0.0,0.0,0.0,0.0,0.0,0.0,0.0,0.0,0.0,0.0,0.0,0.0,0.0,0.0,0.0,0.0,0.0,0.0,0.0,0.0,0.0,0.0,0.0,0.0,0.0,0.0,0.0,0.0,0.0,0.0,0.0,0.0,0.0,1.2359,1.5532,1.7754,1.8839,1.9369,1.9639,1.9675,1.9558,1.832,0.0,0.0,0.0,0.0,0.0,0.0,0.0,0.0,0.0,0.0,0.0,0.0,0.0,0.0,0.0,0.0,0.0,0.0,0.0,0.0,0.0,0.0,0.0,0.0,0.0,0.0,0.0,0.0,0.0,0.0,0.0,0.0,0.0,0.0,0.0,0.0,0.0,0.0,0.0,0.0,0.0,1.0291,0.9547,1.1265,1.2038,0.0,0.0,1.2176,1.3751,1.3065,0.0,0.0,0.0,0.0,0.0,0.0,0.0,0.0,0.0,0.0,0.0,0.0,0.0,0.0,0.0,0.0,0.0,0.0,0.0,0.0,0.0,0.0,0.0,0.0,0.0,0.0,0.0,0.0,0.0,0.0,0.0,0.0,0.0,0.0,0.0,0.0,0.0,0.0,0.0,0.0,0.0,0.0,0.0,0.0,0.0,0.0,0.0,0.0,0.0,0.0,0.0,0.0,0.0,0.0,0.0,1.1745,1.348,1.658,1.8593,1.9321,1.9584,1.9723,1.9708,1.8965,1.7612,0.0,0.0,0.0,0.0,0.0,0.0,0.0,0.0,0.0,0.0,0.0,0.0,0.0,0.0,0.0,0.0,0.0,0.0,0.0,0.0,0.0,0.0,0.0,0.0,0.0,0.0,0.0,0.0,0.0,0.0,0.0,0.0,0.0,0.0,0.0,0.0,0.0,0.0,0.0,0.0,0.0,0.0,1.12,1.2207,0.0,0.0,0.0,1.3674,1.4565,0.0,0.0,0.0,0.0,0.0,0.0,0.0,0.0,0.0,0.0,0.0,0.0,0.0,0.0,0.0,0.0,0.0,0.0,0.0,0.0,0.0,0.0,0.0,0.0,0.0,0.0,0.0,0.0,0.0,0.0,0.0,0.0,0.0,0.0,0.0,0.0,0.0,0.0,0.0,0.0,0.0,0.0,0.0,0.0,0.0,0.0,0.0,0.0,0.0,0.0,0.0,0.0,0.0,0.0,0.0,0.0,0.0,1.4325,1.7482,1.9304,1.9699,1.9723,1.9723,1.9693,1.8568,0.0,0.0,0.0,0.0,0.0,0.0,0.0,0.0,0.0,0.0,0.0,0.0,0.0,0.0,0.0,0.0,0.0,0.0,0.0,0.0,0.0,0.0,0.0,0.0,0.0,0.0,0.0,0.5229,0.0,0.0,0.0,0.0,0.0,0.0,0.0,0.0,0.0,0.0,0.0,0.0,0.0,0.0,1.0999,1.246,1.3055,1.3234,0.0,0.0,1.4798,1.5125,1.5064,1.459,0.0,0.0,0.0,0.0,0.0,0.0,0.0,0.0,0.0,0.0,0.0,0.0,0.0,0.0,0.0,0.0,0.0,0.0,0.0,0.0,0.0,0.0,0.0,0.0,0.0,0.0,0.0,0.0,0.0,0.0,0.0,0.0,0.0,0.0,0.0,0.0,0.0,0.0,0.0,0.0,0.0,0.0,0.0,0.0,0.0,0.0,0.0,0.0,0.0,0.0,0.0,0.0,0.0,0.0,0.0,1.4376,1.7829,1.9672,1.9699,1.9723,1.9723,1.9693,1.9001,1.7745,0.0,0.0,0.0,0.0,0.0,0.0,0.0,0.0,0.0,0.0,0.0,0.0,0.0,0.0,0.0,0.0,0.0,0.0,0.0,0.0,0.0,0.0,0.0,0.0,0.0,0.0,0.0,0.0,0.0,0.0,0.0,0.0,0.0,0.0,0.0,0.0,0.0,0.0,0.0,0.0,0.0,1.2042,1.2296,1.3626,1.4188,0.0,0.0,1.5097,1.6204,1.5915,1.5367,1.4821,0.0,0.0,0.0,0.0,0.0,0.0,0.0,0.0,0.0,0.0,0.0,0.0,0.0,0.0,0.0,0.0,0.0,0.0,0.0,0.0,0.0,0.0,0.0,0.0,0.0,0.0,0.0,0.0,0.0,0.0,0.0,0.0,0.0,0.0,0.0,0.0,0.0,0.0,0.0,0.0,0.0,0.0,0.0,0.0,0.0,0.0,0.0,0.0,0.0,0.0,0.0,0.0,0.0,1.3495,1.4937,1.8083,1.9723,1.9723,1.9723,1.9723,1.9723,1.9453,1.8306,0.0,0.0,0.0,0.0,0.0,0.0,0.0,0.0,0.0,0.0,0.0,0.0,0.0,0.0,0.0,0.0,0.0,0.0,0.0,0.0,0.0,0.0,0.0,0.0,0.0,0.0,0.0,0.0,0.5897,0.612,0.644,0.0,0.0,0.0,0.0,0.0,0.0,0.0,0.0,0.0,0.0,1.3151,1.4183,1.4552,0.0,0.0,1.5515,1.597,1.6424,1.6025,1.5484,1.499,1.4255,0.0,0.0,0.0,0.0,0.0,0.0,0.0,0.0,0.0,0.0,0.0,0.0,0.0,0.0,0.0,0.0,0.0,0.0,0.0,0.0,0.0,0.0,0.0,0.0,0.0,0.0,0.0,0.0,0.0,0.0,0.0,0.0,0.0,0.0,0.0,0.0,0.0,0.0,0.0,0.0,0.0,0.0,0.0,0.0,0.0,0.0,0.0,0.0,0.0,0.0,0.0,0.0,1.3692,1.5285,1.8208,1.9723,1.9723,1.9723,1.9723,1.9708,1.9504,1.8459,0.0,0.0,0.0,0.0,0.0,0.0,0.0,0.0,0.0,0.0,0.0,0.0,0.0,0.0,0.0,0.0,0.0,0.0,0.0,0.0,0.0,0.0,0.0,0.0,0.0,0.0,0.0,0.0,0.5827,0.6044,0.6652,0.0,0.0,0.0,0.0,0.0,0.0,0.0,0.0,0.0,0.0,1.4192,1.5416,1.5401,1.5528,1.6382,1.6511,1.6501,1.6518,1.6198,1.5766,1.5223,0.0,0.0,0.0,0.0,0.0,0.0,0.0,0.0,0.0,0.0,0.0,0.0,0.0,0.0,0.0,0.0,0.0,0.0,0.0,0.0,0.0,0.0,0.0,0.0,0.0,0.0,0.0,0.0,0.0,0.0,0.6597,0.0,0.0,0.0,0.0,0.0,0.0,0.0,0.0,0.0,0.0,0.0,0.0,0.0,0.0,0.0,0.0,0.0,0.0,0.0,0.0,0.0,0.0,1.391,1.5329,1.8217,1.9723,1.9723,1.9723,1.9723,1.9693,1.9076,1.8087,1.6688,0.0,0.0,0.0,0.0,0.0,0.0,0.0,0.0,0.0,0.0,0.0,0.0,0.0,0.0,0.0,0.0,0.0,0.0,0.0,0.0,0.0,0.0,0.0,0.0,0.0,0.0,0.5156,0.5543,0.5946,0.0,0.0,0.0,0.0,0.0,0.0,0.0,0.0,0.0,0.0,1.4297,1.5134,1.556,1.609,1.6427,1.6448,1.6489,1.6507,1.6505,1.6475,1.6298,0.0,0.0,0.0,0.0,0.0,0.0,0.0,0.0,0.0,0.0,0.0,0.0,0.0,0.0,0.0,0.0,0.0,0.0,0.0,0.0,0.0,0.0,0.0,0.0,0.0,0.0,0.0,1.0954,0.9963,0.0,0.0,0.0,0.0,0.0,0.0,0.0,0.0,0.0,0.0,0.0,1.5267,1.5949,0.0,0.0,0.0,0.0,0.0,0.0,0.0,0.0,0.0,0.0,0.0,0.0,1.4573,1.6261,1.8516,1.9723,1.9723,1.9723,1.9723,1.9699,1.9489,1.8328,1.6159,0.0,0.0,0.0,0.0,0.0,0.0,0.0,0.0,0.0,0.0,0.0,0.0,0.0,0.0,0.0,0.0,0.0,0.0,0.0,0.0,0.0,0.0,0.0,0.0,0.0,0.5373,0.0,0.0,0.0,0.0,0.0,0.0,0.0,0.0,0.0,0.0,0.0,1.3966,1.4408,1.5658,1.6447,1.6245,1.6365,1.6225,0.0,0.0,0.0,0.0,0.0,0.0,0.0,0.0,0.0,0.0,0.0,0.0,0.0,0.0,1.6206,1.4414,1.3544,1.3051,1.2932,0.0,0.0,0.0,0.0,0.0,0.0,0.0,0.0,0.0,0.0,0.0,0.0,0.0,0.0,1.3286,0.0,1.2272,0.0,0.0,0.0,0.0,0.0,0.0,0.0,0.0,1.6294,1.7426,1.7697,1.7992,1.7959,0.0,1.6494,1.4776,0.0,0.0,0.0,0.0,0.0,0.0,0.0,0.0,1.5329,1.7039,1.8792,1.9723,1.9723,1.9723,1.9723,1.9699,1.9474,1.845,1.651,1.5367,1.3839,0.0,0.0,0.0,0.0,0.0,0.0,0.0,0.0,0.0,0.0,0.0,0.0,0.0,0.0,0.0,0.0,0.0,0.0,0.0,0.0,0.0,0.0,0.0,0.5854,0.0,0.0,0.0,0.0,0.0,0.0,0.0,0.0,0.0,1.2322,1.4225,1.5666,1.5784,1.6685,1.718,1.6827,0.0,0.0,0.0,0.0,0.0,0.0,0.0,1.6645,1.7012,1.6767,1.6594,1.6755,1.6435,1.623,1.6474,0.0,0.0,1.5836,1.5291,1.5151,1.5151,1.5457,1.5724,1.5678,1.5599,1.5257,0.0,0.0,0.0,0.0,0.0,0.0,0.0,0.0,1.5126,1.5145,0.0,1.4463,0.0,0.0,0.0,0.0,0.0,1.4271,0.0,0.0,1.8551,1.95,2.0263,1.9936,1.9643,1.9471,1.9589,1.8678,1.6727,1.3891,0.0,0.0,0.0,0.0,0.0,0.0,1.6224,1.7753,1.9049,1.9723,1.9723,1.9723,1.9723,1.9693,1.9091,1.8439,1.7712,1.625,1.4841,1.3622,1.2005,0.0,0.0,0.0,0.0,0.0,0.0,0.0,0.0,0.0,0.0,0.0,0.0,0.0,0.0,0.0,0.0,0.0,0.0,0.0,0.0,0.6333,0.0,0.0,0.0,0.0,0.0,0.0,0.0,0.0,0.0,0.0,1.4557,1.5741,1.6839,1.7237,0.0,0.0,0.0,0.0,1.7382,1.6642,1.7703,1.8477,1.8202,1.8096,1.8068,1.8102,0.0,0.0,1.7474,1.7538,1.7449,1.6754,1.7783,1.8418,1.7763,1.7443,1.7302,1.7302,1.7316,1.7372,1.7399,1.7626,1.7656,2.2865,0.0,0.0,0.0,0.0,1.9704,1.9832,2.0235,2.0226,1.9252,1.7629,1.7436,0.0,0.0,0.0,0.0,0.0,0.0,1.8723,2.0397,2.1472,2.1838,2.1585,2.1475,2.1094,2.0567,2.0611,2.0333,1.9736,1.8432,1.6194,1.3181,0.0,0.0,0.0,0.0,1.7468,1.885,1.944,1.9723,1.9723,1.9723,1.9723,1.9723,1.9519,1.9091,1.8439,1.7976,1.6925,1.5221,1.4083,0.0,0.0,0.0,0.0,0.0,0.0,0.0,0.0,0.0,0.0,0.0,0.0,0.0,0.0,0.0,0.0,0.0,0.0,0.0,0.6786,0.688,0.7409,0.0,0.0,0.0,0.0,0.0,0.0,0.0,0.0,0.0,1.7019,1.7725,1.8146,0.0,0.0,1.8288,1.7913,1.8129,1.8145,1.7696,1.8183,0.0,0.0,1.8603,1.822,1.8612,1.8977,1.9185,1.9036,1.9064,1.9023,1.8799,1.9112,1.933,1.913,1.8739,1.8465,1.8455,1.8745,1.8998,1.9022,1.8762,1.8531,2.647,2.4166,2.2652,2.241,2.2969,2.2425,2.2384,2.2719,2.2719,2.201,2.0875,2.0588,1.9717,1.8411,1.7932,0.0,0.0,0.0,2.1028,2.2245,2.2897,2.307,2.2792,2.231,2.1939,2.1657,2.1215,2.1007,2.0991,2.0598,1.8944,1.6173,0.0,0.0,1.6826,1.7674,1.8592,1.9473,1.9649,1.9773,1.9938,1.9945,1.9929,1.9929,1.9782,1.9528,1.9115,1.8837,1.8036,1.6615,1.5557,1.389,0.0,0.0,0.0,0.0,0.0,0.0,0.0,0.0,0.0,0.0,0.0,0.6699,0.5913,0.0,0.0,0.0,0.6839,0.7769,0.8745,0.916,0.0,0.0,0.0,0.0,0.0,0.0,0.0,1.632,1.7757,1.8773,1.9197,1.9521,1.9405,1.8545,1.8712,1.8774,1.8458,0.0,1.8716,1.8746,1.8913,1.9195,1.9618,1.9147,1.8855,1.916,1.9609,1.9912,1.9938,1.9821,1.9712,1.9736,1.996,2.01,1.9764,1.9555,1.9398,1.9262,1.9484,1.9699,1.9723,1.9337,1.9168,2.9199,2.8895,2.5996,2.4753,2.4605,2.391,2.3616,2.3584,2.3543,2.3797,2.4216,2.3578,2.324,2.3135,2.2082,0.0,2.2458,2.262,2.3035,2.3571,2.3564,2.3759,2.4025,2.2957,2.2533,2.272,2.1688,2.1143,2.111,2.111,2.0788,2.0183,1.9564,1.9343,1.9491,1.9529,1.9633,1.9847,1.9836,1.9997,2.0348,2.0365,2.0357,2.0357,1.9971,1.9717,1.9665,1.9057,1.8365,1.7631,1.651,1.4864,1.2679,0.0,0.0,0.0,0.0,0.0,0.0,0.0,0.0,0.0,0.0,0.0,0.0,0.0,0.0,0.0,0.8726,0.0,1.1514,1.2388,0.0,0.0,0.0,1.4243,1.5343,1.6123,1.7154,1.8703,0.0,0.0,2.0983,2.1007,2.0526,1.9227,1.9057,1.9066,1.9066,1.9057,1.9168,1.9594,1.9729,1.9762,1.9864,1.9812,1.9794,1.9839,2.0122,2.0348,2.035,2.0147,1.9892,1.9868,2.0472,2.0838,2.0041,2.0211,2.022,1.9821,1.9735,1.9723,1.9699,1.9681,1.9654,3.0949,3.0555,2.9268,2.8405,2.785,2.7238,2.7005,2.6956,2.6428,2.5756,2.5005,2.428,2.3697,2.3202,2.3225,2.3777,2.4732,2.5061,2.5788,2.6753,2.6795,2.638,2.5653,2.5364,2.4522,2.3267,2.2975,2.2555,2.2015,2.1998,2.1905,2.1752,2.1589,2.1112,2.035,2.0518,2.0783,2.1142,2.0845,2.0739,2.0829,2.0837,2.0837,2.0829,2.0406,1.9936,1.9485,1.8965,1.8147,1.6995,1.6637,1.5447,1.3152,1.1709,0.0,0.0,0.0,0.0,0.0,0.0,0.0,0.0,0.0,0.8514,0.7338,0.0,0.9308,0.0,1.0691,1.1764,1.2552,1.3276,0.0,0.0,1.5792,1.6433,1.8299,1.8175,1.8584,2.0248,2.0903,2.1151,2.1007,2.1007,2.0894,2.0534,2.0516,2.0501,2.0492,2.0188,1.9893,1.9765,1.9967,2.0287,2.0578,2.0681,2.0657,2.0697,2.078,2.0837,2.0821,2.0942,2.0935,2.0767,2.1007,2.136,2.1601,2.1246,2.0682,2.0246,1.9918,1.9723,1.9723,1.9723,1.9723,3.1995,3.1743,3.1346,3.094,3.0447,2.9139,2.8545,2.8512,2.8119,2.7553,2.6928,2.6701,2.6521,2.6342,2.6219,2.649,2.708,2.6967,2.7246,2.788,2.7897,2.7561,2.6944,2.6619,2.5814,2.4648,2.4468,2.3902,2.3062,2.3174,2.2992,2.2484,2.2484,2.2163,2.1549,2.136,2.1299,2.133,2.1299,2.1251,2.1267,2.1267,2.1197,2.1015,2.0541,1.9903,1.9122,1.8838,1.8087,1.6786,1.6527,1.5578,1.3703,1.2536,1.1366,0.0,0.0,0.0,0.0,0.0,0.0,0.0,0.0,0.0,0.0,0.0,1.1547,1.1963,1.2977,1.4045,1.5081,1.5982,1.703,1.8358,1.8429,1.8861,2.0107,1.9828,1.9995,2.1124,2.159,2.1737,2.1601,2.1577,2.1577,2.1569,2.1586,2.1439,2.1071,2.0756,2.0416,1.9834,2.0216,2.0696,2.0977,2.0997,2.1007,2.1007,2.1142,2.126,2.1275,2.1575,2.1737,2.1617,2.1697,2.1902,2.2199,2.1757,2.1134,2.0739,2.044,2.0163,1.9797,1.9723,1.9723,3.2657,3.2501,3.2501,3.2501,3.2327,3.0308,2.9438,2.9438,2.9344,2.9259,2.9192,2.9522,2.9907,3.0265,2.9634,2.9268,2.9115,2.8482,2.8133,2.8037,2.8037,2.8017,2.7932,2.7314,2.6756,2.626,2.5923,2.5174,2.4162,2.4302,2.3886,2.2947,2.2807,2.2772,2.2746,2.2113,2.1595,2.1173,2.1522,2.1688,2.1681,2.1688,2.153,2.1182,2.0628,1.9823,1.8809,1.8663,1.8032,1.6786,1.6459,1.5715,1.4429,1.3501,1.2715,0.0,1.1257,0.0,0.0,0.0,0.0,0.0,0.0,0.0,0.0,1.2558,1.3822,1.4342,1.5435,1.6673,1.8052,1.915,2.0112,2.0902,2.1055,2.1094,2.1134,2.1146,2.1336,2.1748,2.2172,2.2432,2.2409,2.2409,2.2419,2.2332,2.2311,2.203,2.1361,2.1126,2.0831,2.0107,2.0663,2.1239,2.1238,2.1221,2.1213,2.1221,2.1477,2.1681,2.1688,2.201,2.2299,2.2275,2.2247,2.2281,2.2312,2.1961,2.156,2.115,2.1055,2.0797,2.0139,1.996,1.9839,3.3438,3.2501,3.2501,3.2501,3.2457,3.2016,3.1843,3.1799,3.1199,3.0618,3.0061,3.0129,3.0206,3.0305,3.0485,3.0181,2.9514,2.97,2.9405,2.8791,2.8791,2.8614,2.8305,2.8154,2.7596,2.6716,2.6594,2.6136,2.5276,2.4682,2.4286,2.4059,2.3435,2.3105,2.3099,0.0,0.0,0.0,2.2137,2.2163,2.218,2.2156,2.2128,2.2025,2.103,0.0,1.8993,1.8532,1.7791,1.6794,1.7148,0.0,0.0,0.0,0.0,0.0,0.0,0.0,0.0,0.0,0.0,0.0,1.5234,1.4869,1.3194,1.5129,1.6465,1.6398,1.7865,1.9034,1.9561,2.0265,2.0821,2.0983,2.1291,2.1595,2.1838,2.1986,2.2274,2.2827,2.2972,2.3044,2.2996,2.3032,2.2915,2.2678,2.2615,2.2476,2.2097,2.172,2.1563,2.1764,2.1877,2.2038,2.207,2.2003,2.1983,2.2077,2.2099,2.2142,2.2159,2.2209,2.2313,2.2313,2.2313,2.2313,2.2317,2.2221,2.2003,2.1552,2.1483,2.1337,2.0854,2.0739,2.0544,3.4315,0.0,3.3313,3.3151,0.0,3.3133,3.3133,3.3067,3.2286,3.1872,3.1731,3.1739,3.1843,3.2021,3.1813,3.1505,3.1038,3.0467,2.9989,2.9574,2.9189,2.8905,2.8713,2.8694,2.8316,2.7604,2.7809,2.7359,2.6383,2.5769,2.5205,2.4635,2.386,2.3443,2.3437,2.3455,2.3212,2.2758,2.2758,2.2656,2.25,2.25,2.2316,2.1948,0.0,0.0,0.0,0.0,0.0,0.0,0.0,0.0,0.0,0.0,0.0,1.5257,1.4988,1.5056,1.5512,1.5703,1.6173,1.7152,1.7977,1.7958,1.6789,1.7723,1.8502,1.889,1.9792,2.0419,2.0751,2.1103,2.1452,2.1799,2.2022,2.2272,2.2572,2.2694,2.2867,2.3171,2.3496,2.3602,2.3236,2.3195,2.3135,2.2972,2.2797,2.266,2.2507,2.2186,2.2055,2.2257,2.2305,2.2308,2.2319,2.2313,2.2313,2.2313,2.2313,2.2313,2.2313,2.2313,2.2313,2.2313,2.2313,2.2313,2.2313,2.2313,2.223,2.201,2.1935,2.1899,2.1661,2.1307,2.0943,3.5354,3.5016,3.4373,3.3984,3.3807,3.3807,3.3807,3.3748,0.0,0.0,0.0,3.3321,3.3494,3.3752,3.3103,3.2729,3.2491,3.1084,3.0338,3.0173,2.9372,2.8987,2.8987,2.8987,2.8827,2.8534,2.8839,2.8486,2.7526,2.6891,2.6129,2.5188,2.4261,2.3772,2.3772,2.3795,2.3655,2.3386,2.3277,2.3052,2.278,2.2733,2.2425,2.181,2.1623,2.1084,2.0141,2.0102,1.9641,1.8725,1.8431,1.8073,1.7647,1.7935,1.8043,1.7968,1.862,1.9075,1.9252,1.9283,1.9388,1.9619,2.0206,2.0478,2.0286,1.9908,2.0131,2.1193,2.1243,2.1374,2.183,2.1881,2.2113,2.2716,2.2791,2.2916,2.3224,2.3259,2.3276,2.3405,2.3852,2.4001,2.3491,2.3427,2.3352,2.3283,2.3087,2.2804,2.2682,2.2443,2.2261,2.2302,2.2312,2.2306,2.2313,2.2313,2.2313,2.2313,2.2313,2.2313,2.2313,2.2313,2.2313,2.2313,2.2313,2.2313,2.2313,2.2313,2.2313,2.2313,2.2313,2.2313,2.2247,2.1753,2.1317,3.6688,3.5423,3.5293,3.471,3.3807,3.3807,3.3807,3.38,3.3662,3.3648,3.3721,3.3714,3.376,3.3788,3.3685,3.325,3.2546,3.1641,3.0852,0.0,2.9372,2.8987,2.8987,2.8987,2.8982,2.8923,2.8964,2.8909,2.8623,2.7301,2.6512,2.6206,2.4869,2.4136,2.4141,2.4136,2.4103,2.4054,2.3494,2.3171,2.3129,2.283,2.2663,2.2517,2.1718,2.102,2.0543,2.0484,2.0223,1.9808,2.0249,2.0258,1.9639,1.963,1.9421,1.8873,1.8933,1.9376,2.0245,2.0285,2.0829,2.197,2.2489,2.2347,2.1387,2.0972,2.122,2.2231,2.2094,2.2225,2.2857,2.2936,2.2961,2.3105,2.3123,2.3253,2.3582,2.352,2.3613,2.3958,2.4129,2.4197,2.4042,2.4011,2.392,2.371,2.3647,2.3376,2.291,2.247,2.2324,2.2313,2.2313,2.2313,2.2313,2.2313,2.2313,2.2313,2.2313,2.2313,2.2313,2.2313,2.2313,2.2313,2.2313,2.2313,2.2313,2.2313,2.2313,2.2313,2.2313,2.2313,2.2313,2.2137,2.1961,3.7737,3.6984,3.6102,3.5343,3.4679,3.4065,3.3807,3.3807,3.3807,3.3807,3.3807,3.3807,3.3807,3.3807,3.3807,3.3605,3.3195,3.1978,3.1213,3.0766,2.958,2.8987,2.8987,2.8987,2.8987,2.8987,2.8987,2.8987,2.8877,2.78,2.7255,2.7145,2.5645,2.4635,2.4226,2.4194,2.4194,2.4208,2.3896,2.366,2.3483,2.3329,2.3159,2.2978,2.2521,2.2216,2.2018,2.1992,2.1718,2.1146,2.1592,2.1539,2.0877,2.1176,2.1278,2.0989,2.1157,2.1466,2.1932,2.1966,2.2249,2.2854,2.31,2.3064,2.2729,2.238,2.238,2.2876,2.2788,2.2825,2.3147,2.3195,2.3283,2.3448,2.3465,2.3599,2.3883,2.3934,2.3966,2.4152,2.4194,2.4194,2.4194,2.4194,2.4372,2.4496,2.4472,2.4126,2.3627,2.2843,2.2323,2.2312,2.2313,2.2313,2.2303,2.2313,2.2313,2.2313,2.2313,2.2313,2.2313,2.2313,2.2313,2.2313,2.2313,2.2313,2.2313,2.2313,2.2313,2.2313,2.2313,2.2313,2.2313,2.2313,2.2233,3.8683,3.8372,3.7114,3.6196,3.5529,3.4643,3.4184,3.3999,3.3935,3.3889,3.3876,3.3835,3.3807,3.3807,3.3807,3.3807,3.3605,3.232,3.1666,3.1501,3.002,2.928,2.9238,2.9115,2.8987,2.8992,2.9074,2.9089,2.9003,2.8323,2.783,2.7482,2.6169,2.5136,2.4475,2.4281,2.4194,2.4194,2.4194,2.4079,2.384,2.3748,2.3577,2.334,2.323,2.3195,2.3195,2.3195,2.2942,2.2407,2.2589,2.2474,2.1975,2.2422,2.2748,2.2767,2.3022,2.3248,2.3299,2.3386,2.3426,2.3426,2.342,2.3538,2.3758,2.3577,2.3408,2.3414,2.3357,2.334,2.3437,2.3437,2.3515,2.3785,2.3811,2.3902,2.4151,2.4194,2.4194,2.4194,2.4194,2.4194,2.4194,2.4194,2.441,2.4857,2.491,2.4613,2.4183,2.3289,2.2774,2.2513,2.2409,2.2357,2.2354,2.2328,2.231,2.2313,2.2313,2.2313,2.2313,2.2313,2.2313,2.2313,2.2313,2.2313,2.2313,2.2313,2.2313,2.2313,2.2313,2.2313,2.2313,2.2408,2.2387,3.9509,3.889,3.8642,3.7547,3.5939,3.5741,3.5251,3.4626,3.4294,3.4171,3.4147,3.3909,3.382,3.3807,3.3807,3.3807,3.3733,3.2883,3.2461,3.2277,3.0834,3.0081,2.9989,2.9365,2.8987,2.9057,2.9228,2.9367,2.9321,2.8754,2.7947,2.6986,2.6106,2.5579,2.523,2.4562,2.4213,2.4194,2.4194,2.4185,2.4151,2.3847,2.3682,2.366,2.3363,2.3195,2.3236,2.3195,2.3153,2.3111,2.3124,2.3129,2.3052,2.3112,2.3159,2.3165,2.3177,2.3335,2.3621,2.395,2.4084,2.4103,2.4079,2.4089,2.4123,2.4108,2.4094,2.4026,2.3816,2.3767,2.4069,2.4079,2.4069,2.4089,2.4113,2.417,2.4199,2.4194,2.4194,2.4194,2.4223,2.4194,2.4199,2.4305,2.4341,2.4543,2.4797,2.4634,2.423,2.3974,2.3788,2.3242,2.2754,2.2557,2.2617,2.2443,2.2402,2.2366,2.2324,2.2349,2.237,2.2328,2.2313,2.231,2.2313,2.2313,2.2313,2.232,2.2331,2.2377,2.237,2.2328,2.2352,2.2565,2.2665,4.0136,3.9804,3.9324,3.8278,3.6929,3.6198,3.572,3.5373,3.4768,3.4502,3.4491,3.4375,3.4136,3.382,3.3807,3.3807,3.3752,3.2974,3.2601,3.2473,3.1105,3.0433,3.0357,2.9743,2.9416,2.9421,2.9528,2.9575,2.9542,2.9312,2.8741,2.7883,2.7343,2.6623,2.5625,2.5137,2.469,2.4213,2.4194,2.4194,2.4185,2.4074,2.3978,2.3991,2.3847,2.3795,2.3795,2.379,2.3703,2.3538,2.3676,2.3698,2.3493,2.3664,2.379,2.3795,2.3795,2.386,2.3986,2.4113,2.4194,2.4194,2.4194,2.4194,2.4194,2.4194,2.4194,2.418,2.4079,2.4069,2.4185,2.4194,2.4194,2.4194,2.4194,2.4233,2.4366,2.4379,2.4379,2.4379,2.4375,2.433,2.438,2.5034,2.5328,2.5222,2.56,2.5947,2.5471,2.4756,2.4547,2.5034,2.4985,2.4271,2.3374,2.2915,2.2837,2.283,2.2826,2.2794,2.2563,2.2394,2.2316,2.2315,2.2301,2.2311,2.2313,2.2532,2.2643,2.2622,2.2747,2.2819,2.2837,2.2868,2.2744,4.0492,4.0396,3.9877,3.9011,3.8019,3.7181,3.6564,3.6051,3.541,3.5016,3.4812,3.4724,3.4459,3.4099,3.4037,3.4031,3.3963,3.3438,3.3185,3.3037,3.193,3.126,3.0995,3.0354,2.9935,2.9756,2.9746,2.9827,2.9876,2.9888,2.9569,2.8936,2.8432,2.7479,2.6142,2.5651,2.5007,2.4268,2.4194,2.4194,2.4194,2.4194,2.4194,2.4194,2.4194,2.4194,2.4194,2.4194,2.4094,2.3847,2.4061,2.4089,2.3876,2.4074,2.4194,2.4194,2.4194,2.4194,2.4194,2.4194,2.4194,2.4194,2.4194,2.4194,2.4209,2.4261,2.428,2.4289,2.4335,2.4358,2.4204,2.4256,2.428,2.4303,2.4307,2.4422,2.4551,2.4575,2.4575,2.4594,2.459,2.4545,2.4596,2.5449,2.6023,2.5388,2.6428,2.7085,2.6256,2.526,2.5218,2.5936,2.6533,2.6232,2.4211,2.3596,2.3508,2.3212,2.3147,2.3063,2.2868,2.2636,2.2369,2.2391,2.2339,2.2452,2.2636,2.2865,2.2984,2.2934,2.307,2.3259,2.3147,2.3177,2.3064,4.0492,4.0492,4.0454,3.995,3.9208,3.9092,3.8147,3.6773,3.6349,3.5797,3.5153,3.4846,3.4708,3.4658,3.4639,3.4653,3.4638,3.4542,3.4475,3.4386,3.359,3.2836,3.2124,3.1331,3.0514,2.982,2.992,3.0112,3.0336,3.0349,3.0222,2.9877,2.8986,2.7957,2.6832,2.5919,2.5007,2.4305,2.4194,2.4194,2.4194,2.4194,2.4194,2.4194,2.4194,2.4194,2.4194,2.4194,2.418,2.4175,2.418,2.4185,2.417,2.4185,2.4194,2.4194,2.4194,2.4194,2.4194,2.4194,2.4204,2.4209,2.4228,2.4214,2.4261,2.4383,2.4482,2.4486,2.4631,2.4606,2.4326,2.4406,2.4482,2.4518,2.4647,2.4742,2.4779,2.4767,2.479,2.4786,2.4768,2.4742,2.4783,2.5476,2.5588,2.5291,2.6018,2.6553,2.5495,2.575,2.5821,2.5672,2.6681,2.7887,2.5449,2.4489,2.4017,2.3613,2.3414,2.3253,2.3136,2.3,2.2717,2.2487,2.2473,2.2643,2.3005,2.3189,2.3224,2.3288,2.3494,2.3571,2.3476,2.3833,2.373,4.0492,4.0492,4.0492,4.0323,4.0015,3.9531,3.8931,3.8254,3.7049,3.6401,3.6044,3.5491,3.5211,3.5211,3.5211,3.5016,3.4709,3.4689,3.4689,3.462,3.3979,3.3215,3.2383,3.173,3.099,3.027,3.0209,3.0305,3.0392,3.0404,3.0358,3.0199,2.9607,2.8571,2.7298,2.6523,2.5548,2.4341,2.4194,2.4194,2.4194,2.4194,2.4194,2.4194,2.4194,2.4194,2.4194,2.4194,2.4194,2.4194,2.4194,2.4194,2.4194,2.4194,2.4194,2.4194,2.4194,2.4194,2.4194,2.4194,2.4252,2.4375,2.4393,2.4458,2.4574,2.4647,2.4693,2.4693,2.4746,2.4708,2.465,2.4654,2.4693,2.4685,2.476,2.4845,2.4907,2.4898,2.4876,2.4904,2.4866,2.4804,2.4973,2.5506,2.5831,2.5697,2.6731,2.7135,2.6849,2.6743,2.6677,2.7056,2.7319,2.728,2.687,2.5596,2.482,2.421,2.3832,2.3703,2.3574,2.3479,2.3251,2.3028,2.2899,2.3064,2.3517,2.3566,2.3587,2.3746,2.3955,2.3881,2.3853,2.4052,2.4044,4.0492,4.0492,4.0492,4.0492,4.0439,3.9938,3.9534,3.9184,3.8046,3.7388,3.7004,3.625,3.5885,3.5827,3.5615,3.5331,3.5,3.4958,3.4958,3.4915,3.4551,3.3865,3.3065,3.2391,3.1635,3.0862,3.0519,3.0404,3.0404,3.0404,3.0404,3.0361,2.9981,2.909,2.7838,2.7279,2.6261,2.4922,2.4585,2.4493,2.425,2.4194,2.4194,2.4194,2.4194,2.4194,2.4194,2.4194,2.4194,2.4194,2.4194,2.4233,2.428,2.4298,2.4335,2.4384,2.4397,2.4378,2.4378,2.4397,2.4467,2.4567,2.4614,2.4662,2.479,2.4838,2.485,2.486,2.4933,2.4952,2.4952,2.4974,2.4933,2.49,2.4919,2.4997,2.5079,2.5055,2.5077,2.5126,2.5329,2.5279,2.518,2.6013,2.6179,2.5834,2.7156,2.8082,2.7166,2.7442,2.708,2.7357,2.6481,2.617,2.5947,2.5375,2.4921,2.4398,2.4074,2.4001,2.3937,2.3858,2.3756,2.3577,2.3594,2.3776,2.3884,2.3914,2.4023,2.4179,2.4161,2.4074,2.4099,2.4156,2.4122,4.0508,4.0527,4.05,4.0516,4.05,4.0427,4.0015,3.9434,3.9227,3.8646,3.793,3.7042,3.658,3.65,3.5827,3.5486,3.5435,3.5421,3.5405,3.5393,3.5376,3.4906,3.4029,3.3266,3.2429,3.1561,3.0788,3.0404,3.0404,3.0404,3.0404,3.0355,3.0103,2.9429,2.8461,2.8067,2.7137,2.5708,2.5299,2.4934,2.43,2.4194,2.4194,2.4194,2.4214,2.4228,2.4218,2.4204,2.4194,2.4194,2.4194,2.4298,2.4439,2.4495,2.4594,2.4719,2.4775,2.4786,2.4775,2.4753,2.4742,2.48,2.4804,2.4799,2.4866,2.4937,2.5007,2.5041,2.5165,2.5264,2.5256,2.5251,2.519,2.5068,2.5138,2.5246,2.5266,2.5281,2.5344,2.5523,2.6022,2.6146,2.5954,2.6688,2.7041,2.6314,2.7167,2.7884,2.6344,2.7242,2.723,2.5626,2.5165,2.5432,2.5177,2.4907,2.4723,2.4491,2.4278,2.4128,2.4113,2.4069,2.4036,2.3907,2.3891,2.4049,2.4039,2.4071,2.4096,2.4194,2.4194,2.4194,2.4194,2.4194,2.4194,4.0653,4.069,4.0651,4.0623,4.061,4.0534,4.0342,4.0054,3.9554,3.9146,3.8646,3.7331,3.6715,3.6523,3.5869,3.55,3.5503,3.5503,3.5503,3.5503,3.5503,3.5042,3.4298,3.3914,3.3064,3.1753,3.083,3.0404,3.0404,3.0404,3.0404,3.0352,3.0136,2.956,2.8756,2.8282,2.7265,2.5796,2.5465,2.5007,2.4286,2.4199,2.4199,2.4214,2.4321,2.4415,2.4401,2.4271,2.4199,2.4209,2.4194,2.4289,2.4474,2.4631,2.4753,2.479,2.4804,2.4804,2.4804,2.4815,2.4855,2.492,2.4949,2.5027,2.5126,2.5176,2.5203,2.5187,2.5269,2.5308,2.5308,2.5308,2.5269,2.5214,2.5264,2.5291,2.5303,2.5301,2.5895,2.6792,2.6801,2.6717,2.7046,2.7783,2.7624,2.7001,2.7536,2.7368,2.7012,2.7142,2.7618,2.6396,2.5879,2.5073,2.5087,2.4963,2.4706,2.4518,2.4349,2.4204,2.4194,2.4194,2.4194,2.4194,2.4194,2.4194,2.4194,2.4194,2.4194,2.4194,2.4194,2.4194,2.4194,2.4194,2.4194,4.0713,4.0767,4.0738,4.0726,4.0695,4.0622,4.0541,4.0427,3.9977,3.9761,3.9454,3.8296,3.7469,3.7061,3.6311,3.5788,3.5519,3.5503,3.5503,3.5503,3.5503,3.5176,3.4564,3.3949,3.3064,3.1775,3.0808,3.0404,3.0404,3.0404,3.0404,3.0361,3.0222,2.9867,2.9287,2.8932,2.798,2.6497,2.6143,2.5527,2.4678,2.4413,2.4432,2.4454,2.4534,2.4599,2.4595,2.4482,2.4409,2.4432,2.4409,2.4505,2.467,2.4809,2.4913,2.4965,2.4978,2.5,2.4994,2.4993,2.5012,2.511,2.5108,2.5157,2.5271,2.5308,2.5308,2.5308,2.5308,2.5308,2.5308,2.5308,2.5308,2.5308,2.5305,2.5291,2.5309,2.5361,2.6151,2.7247,2.7475,2.7492,2.7776,2.8241,2.7997,2.7646,2.7557,2.7194,2.7106,2.7119,2.7069,2.6735,2.5803,2.5304,2.5251,2.504,2.4731,2.4553,2.4379,2.4266,2.4194,2.4194,2.4194,2.4194,2.4194,2.4194,2.4194,2.4194,2.4194,2.4194,2.4194,2.4194,2.4194,2.4194,2.4185,4.0721,4.0721,4.0781,4.0792,4.0732,4.0701,4.0642,4.0545,4.0488,4.0434,4.0257,3.9311,3.8588,3.7873,3.6827,3.6038,3.5596,3.5503,3.5503,3.5503,3.5503,3.5407,3.5176,3.3795,3.266,3.1852,3.0885,3.0423,3.0404,3.0404,3.0404,3.0379,3.0364,3.027,2.9971,2.9972,2.8996,2.7531,2.7272,2.6486,2.5043,2.4884,2.4824,2.4783,2.4793,2.4815,2.4792,2.4799,2.4811,2.48,2.4771,2.4823,2.4962,2.5007,2.5096,2.5246,2.53,2.5264,2.5276,2.5246,2.5256,2.5264,2.5269,2.5308,2.5288,2.5308,2.5308,2.5308,2.5308,2.5308,2.5308,2.5308,2.5293,2.5303,2.5322,2.5309,2.5332,2.5425,2.6301,2.7614,2.8032,2.8099,2.8286,2.89,2.8367,2.7459,2.7468,2.7109,2.6241,2.6299,2.6596,2.6172,2.5483,2.5373,2.5274,2.5114,2.484,2.4745,2.456,2.4409,2.4257,2.4237,2.4199,2.4194,2.4194,2.4194,2.4194,2.4194,2.4194,2.4194,2.4194,2.4194,2.4194,2.4194,2.4185,4.0842,4.0925,4.0944,4.0942,4.0914,4.0813,4.0757,4.0713,4.066,4.0639,4.0336,3.9012,3.8315,3.7869,3.65,3.5692,3.5538,3.5503,3.5503,3.5503,3.5503,3.5503,3.5157,3.3757,3.2814,3.2372,3.1173,3.0404,3.0404,3.0404,3.0404,3.0404,3.0401,3.0367,3.0292,3.0096,2.9472,2.852,2.821,2.7353,2.5989,2.5672,2.5389,2.4849,2.4916,2.4952,2.4955,2.509,2.5024,2.4829,2.4901,2.4959,2.5022,2.5141,2.5227,2.5276,2.5308,2.5308,2.5308,2.5308,2.5308,2.5308,2.5308,2.5308,2.5308,2.5308,2.5308,2.5308,2.5308,2.5308,2.5308,2.5308,2.5327,2.5373,2.5387,2.5388,2.5447,2.5517,2.6191,2.7822,2.8079,2.8573,2.942,2.9767,2.9373,2.8081,2.7563,2.7309,2.608,2.5563,2.5933,2.5757,2.5324,2.5321,2.5244,2.5115,2.4996,2.4946,2.4795,2.4608,2.4429,2.4289,2.4238,2.4194,2.4194,2.4194,2.4194,2.4194,2.4194,2.4194,2.4194,2.4194,2.4194,2.4194,2.4194,4.0924,4.1017,4.1074,4.1052,4.0994,4.0936,4.0834,4.0762,4.0721,4.0658,4.0375,3.9548,3.8661,3.793,3.6984,3.6138,3.5561,3.5503,3.5503,3.5503,3.5503,3.5503,3.5157,3.4045,3.326,3.2756,3.1583,3.0827,3.0462,3.0404,3.0404,3.0404,3.0404,3.0404,3.0392,3.0225,2.9768,2.906,2.8782,2.8083,2.692,2.6415,2.6076,2.5536,2.5347,2.5132,2.5149,2.5248,2.5204,2.5077,2.509,2.5119,2.5144,2.5221,2.5308,2.5308,2.5308,2.5308,2.5308,2.5308,2.5308,2.5308,2.5308,2.5308,2.5308,2.5308,2.5308,2.5308,2.5308,2.5308,2.5308,2.5308,2.534,2.542,2.5447,2.546,2.554,2.5567,2.6312,2.7422,2.8128,2.86,2.9964,3.0079,2.938,2.8343,2.7513,2.6738,2.57,2.5454,2.5308,2.5308,2.5308,2.53,2.5295,2.5192,2.5138,2.5096,2.4987,2.4812,2.457,2.4363,2.4252,2.4201,2.4205,2.4194,2.4194,2.4194,2.4194,2.4194,2.4194,2.4199,2.4199,2.4252,2.4242,4.0995,4.1019,4.1149,4.1128,4.1028,4.1022,4.095,4.0774,4.0744,4.069,4.053,4.0451,3.9317,3.8021,3.7614,3.6954,3.5525,3.5537,3.5534,3.5544,3.554,3.5534,3.5406,3.4523,3.3744,3.3067,3.2176,3.133,3.0769,3.0538,3.0404,3.0404,3.0404,3.0404,3.0401,3.0373,2.9981,2.9469,2.9339,2.888,2.8016,2.738,2.6891,2.6299,2.5597,2.5305,2.5271,2.5308,2.5274,2.5284,2.5308,2.5276,2.5281,2.5303,2.5305,2.5308,2.5308,2.5308,2.5308,2.5308,2.5308,2.5308,2.5308,2.5308,2.5308,2.5308,2.5308,2.5308,2.5308,2.5308,2.5308,2.5308,2.5363,2.5461,2.5485,2.5518,2.5602,2.5664,2.6172,2.7344,2.7988,2.8456,2.9128,2.9258,2.8868,2.7859,2.7254,2.6568,2.5772,2.5408,2.5314,2.5308,2.5308,2.5308,2.5308,2.5279,2.5269,2.5246,2.5138,2.4974,2.4666,2.4457,2.428,2.4206,2.4201,2.4205,2.4194,2.4194,2.4209,2.4233,2.4261,2.4233,2.4214,2.4294,2.4326,4.0996,4.1019,4.1149,4.1171,4.117,4.117,4.1126,4.1071,4.0973,4.0906,4.0733,4.0144,3.9235,3.8158,3.7618,3.659,3.5723,3.5655,3.5659,3.5659,3.5639,3.5616,3.5411,3.4695,3.4138,3.3551,3.2372,3.1618,3.1308,3.0712,3.0404,3.0404,3.0404,3.0404,3.0404,3.0382,3.0346,3.0138,3.0099,2.9643,2.8992,2.8569,2.7816,2.6714,2.5808,2.5368,2.5308,2.5308,2.5308,2.5308,2.5301,2.5317,2.5293,2.5308,2.5308,2.5308,2.5308,2.5308,2.5308,2.5308,2.5308,2.5308,2.5308,2.5308,2.5308,2.5308,2.5308,2.5308,2.5308,2.5308,2.5308,2.5308,2.5377,2.5472,2.5517,2.5552,2.5644,2.5723,2.6641,2.7871,2.791,2.7832,2.9258,2.8769,2.8184,2.7363,2.6817,2.6392,2.5906,2.54,2.532,2.5313,2.5351,2.5353,2.5308,2.5308,2.5308,2.5308,2.5224,2.5157,2.4876,2.4618,2.4467,2.4329,2.4197,2.4215,2.4298,2.4242,2.4261,2.4275,2.4307,2.4284,2.4294,2.4371,2.4345,4.1102,4.1084,4.1171,4.1191,4.1191,4.1191,4.1171,4.1104,4.1048,4.0959,4.0811,4.0333,3.9686,3.8805,3.7981,3.7135,3.6312,3.5834,3.5703,3.57,3.57,3.5675,3.5616,3.5141,3.4704,3.4093,3.2929,3.2157,3.158,3.091,3.0404,3.0404,3.0404,3.0404,3.0404,3.0404,3.0404,3.0365,3.0404,3.0157,2.9775,2.9258,2.8299,2.6926,2.6142,2.5775,2.5395,2.5359,2.535,2.5381,2.5391,2.5359,2.5305,2.531,2.531,2.5308,2.5308,2.5308,2.5308,2.5308,2.5308,2.5291,2.5308,2.5308,2.5308,2.5308,2.5308,2.5308,2.5308,2.5308,2.5293,2.5335,2.5402,2.5485,2.5537,2.5597,2.5742,2.6055,2.666,2.7871,2.7832,2.8086,2.8418,2.832,2.7812,2.7129,2.6426,2.5984,2.5892,2.5468,2.5371,2.5362,2.5388,2.5391,2.5329,2.5308,2.5308,2.5308,2.5276,2.5251,2.5127,2.4889,2.47,2.4575,2.4456,2.4439,2.4482,2.4408,2.433,2.4357,2.4384,2.4357,2.4352,2.4384,2.4321,4.1191,4.1191,4.1191,4.1191,4.1191,4.1191,4.1149,4.1051,4.1026,4.1014,4.0818,4.0745,4.0078,3.9494,3.8672,3.7852,3.6998,3.6162,3.5788,3.5786,3.5786,3.5751,3.571,3.5587,3.5266,3.4404,3.3602,3.2828,3.199,3.1072,3.0667,3.0483,3.0388,3.0404,3.0404,3.0404,3.0404,3.0404,3.0404,3.0385,3.025,2.966,2.8632,2.7521,2.6933,2.6629,2.6123,2.5866,2.5691,2.5682,2.557,2.5441,2.5373,2.5328,2.5327,2.5317,2.5339,2.533,2.5308,2.5313,2.5331,2.5317,2.5322,2.5322,2.5327,2.5331,2.532,2.5308,2.5308,2.5314,2.5327,2.5366,2.5442,2.5558,2.5664,2.5827,2.6055,2.6738,2.75,2.7422,2.791,2.834,2.832,2.8203,2.7559,2.6934,2.625,2.5741,2.5672,2.5574,2.5476,2.5408,2.5443,2.5397,2.5334,2.5308,2.5308,2.5308,2.5308,2.5281,2.5271,2.5135,2.4956,2.4859,2.4778,2.4756,2.4636,2.452,2.4462,2.4469,2.4485,2.4528,2.4478,2.44,2.4344,4.1191,4.1191,4.1191,4.1191,4.1191,4.1191,4.1191,4.119,4.1152,4.1152,4.1035,4.0405,4.0038,3.958,3.8895,3.8066,3.7109,3.6289,3.5937,3.5937,3.5918,3.5901,3.5856,3.5849,3.5675,3.5322,3.4612,3.3776,3.2821,3.2049,3.1102,3.0605,3.0439,3.0421,3.0402,3.0404,3.0393,3.0416,3.0414,3.0414,3.0334,3.0147,2.9623,2.8548,2.806,2.7696,2.7426,2.6906,2.6578,2.6528,2.5884,2.5598,2.5521,2.5533,2.5441,2.5413,2.542,2.5397,2.5333,2.5361,2.5374,2.5383,2.5383,2.5399,2.5397,2.5395,2.5371,2.5365,2.5408,2.5428,2.5395,2.5522,2.5536,2.5738,2.6089,2.6513,2.6875,2.7715,2.8437,2.8027,2.8242,2.8516,2.8555,2.8379,2.7832,2.7344,2.6797,2.6211,2.5921,2.577,2.5584,2.5533,2.5501,2.541,2.5327,2.5315,2.5308,2.5308,2.5308,2.5308,2.53,2.5298,2.5201,2.5081,2.503,2.5017,2.4881,2.4683,2.4606,2.4604,2.4639,2.4693,2.4666,2.4636,2.4569,4.1191,4.1191,4.1191,4.1191,4.1191,4.1191,4.1191,4.1191,4.1191,4.1191,4.1094,4.0762,4.0546,4.0172,3.91,3.793,3.6777,3.6269,3.6016,3.6016,3.5996,3.5995,3.5957,3.5957,3.5923,3.5755,3.54,3.449,3.3219,3.2266,3.1446,3.0735,3.0489,3.0467,3.0443,3.0425,3.0428,3.0438,3.0447,3.0458,3.0487,3.0494,3.0038,2.935,2.8943,2.857,2.8114,2.7843,2.7542,2.7418,2.6757,2.6367,2.6152,2.5879,2.5586,2.5551,2.5495,2.549,2.5411,2.5441,2.5458,2.544,2.55,2.5458,2.5456,2.5432,2.553,2.5563,2.5904,2.5896,2.5529,2.5892,2.599,2.5756,2.6074,2.6348,2.668,2.7754,2.8184,2.8418,2.875,2.8984,2.918,2.8848,2.8223,2.7715,2.7305,2.6797,2.6289,2.5898,2.5664,2.5609,2.5553,2.5458,2.5372,2.5346,2.5335,2.5323,2.5313,2.5313,2.5315,2.5315,2.5315,2.525,2.5235,2.5202,2.512,2.4942,2.484,2.4737,2.4745,2.4792,2.4873,2.4888,2.4807,4.1191,4.1191,4.1191,4.1191,4.1191,4.1191,4.1191,4.1191,4.1191,4.1191,4.1172,4.0996,4.0957,4.0703,3.9394,3.7773,3.6289,3.6172,3.6016,3.6016,3.6016,3.6016,3.6016,3.6016,3.5996,3.5957,3.5898,3.5137,3.3758,3.2709,3.1764,3.1098,3.0743,3.0513,3.0492,3.0482,3.0489,3.0498,3.0536,3.0561,3.0589,3.0577,3.0294,2.962,2.9623,2.9412,2.9007,2.8638,2.8528,2.8301,2.7793,2.7246,2.7148,2.6602,2.6191,2.603,2.576,2.5635,2.5788,2.582,2.5921,2.592,2.6018,2.6057,2.6129,2.6318,2.617,2.6148,2.6548,2.6669,2.6154,2.647,2.637,2.6024,2.5996,2.6289,2.6582,2.7305,2.8223,2.8613,2.9101,2.9453,2.9668,2.9805,2.9258,2.8476,2.8047,2.7266,2.6719,2.5977,2.5684,2.5644,2.5578,2.5495,2.5424,2.5414,2.5391,2.5393,2.5365,2.5331,2.5343,2.5334,2.5315,2.53,2.5294,2.5261,2.522,2.5154,2.4977,2.4868,2.486,2.4904,2.5031,2.5086,2.504,4.1191,4.1191,4.1191,4.1191,4.1191,4.1191,4.1191,4.1191,4.1191,4.1191,4.1152,4.0508,4.0586,4.0508,3.9355,3.8086,3.7109,3.6328,3.6016,3.6016,3.6016,3.6016,3.6016,3.6016,3.6016,3.6016,3.6016,3.5469,3.4504,3.3571,3.2702,3.189,3.1085,3.0628,3.0764,3.0628,3.058,3.0587,3.0594,3.0601,3.0618,3.0646,3.0582,3.0531,3.0532,3.0527,3.0176,2.9746,2.9453,2.9336,2.8613,2.8203,2.8125,2.8105,2.8008,2.7538,2.6794,2.5964,2.6548,2.6714,2.673,2.6866,2.7277,2.7746,2.7604,2.7541,2.7521,2.7806,2.7948,2.7617,2.6965,2.6966,2.6543,2.6641,2.6953,2.707,2.7148,2.6777,2.7695,2.8223,2.8535,2.9531,3.0176,3.0351,3.0351,2.9531,2.8711,2.7891,2.709,2.6309,2.5723,2.5684,2.5641,2.5554,2.5482,2.5458,2.5442,2.5431,2.5415,2.5381,2.5368,2.5363,2.5319,2.5305,2.5296,2.5291,2.5261,2.5187,2.5046,2.5007,2.5011,2.5101,2.5216,2.5241,2.5214,4.1191,4.1191,4.1191,4.1191,4.1191,4.1191,4.1191,4.1191,4.1191,4.1191,4.1152,4.084,4.0371,3.9707,3.8828,3.7832,3.6738,3.6172,3.5996,3.5996,3.5996,3.6016,3.6016,3.6016,3.6016,3.6016,3.5996,3.5918,3.5195,3.4512,3.3652,3.2773,3.1902,3.1427,3.1246,3.0841,3.0675,3.066,3.0725,3.0727,3.0704,3.0741,3.0771,3.0717,3.0837,3.0898,3.0801,3.0625,3.0332,3.0176,2.9512,2.9023,2.8828,2.8594,2.837,2.8858,2.7862,2.7382,2.7609,2.7688,2.7695,2.7734,2.8066,2.816,2.8235,2.8279,2.8249,2.8187,2.8671,2.8501,2.806,2.8202,2.7871,2.7793,2.7871,2.7539,2.7324,2.6934,2.7051,2.7519,2.8066,2.9101,2.998,3.0098,3.0273,3.0195,2.9199,2.8184,2.7344,2.6504,2.6016,2.5703,2.5666,2.5637,2.5562,2.5524,2.5479,2.5477,2.5471,2.5458,2.5423,2.5395,2.5345,2.5314,2.5299,2.5306,2.5301,2.5253,2.5168,2.5165,2.5168,2.5247,2.5296,2.5286,2.5266,4.1191,4.1191,4.1191,4.1191,4.1191,4.1171,4.1152,4.1152,4.1113,4.1094,4.1103,4.0996,4.0098,3.8848,3.8437,3.7598,3.5996,3.5929,3.5929,3.593,3.5953,3.5976,3.5976,3.5976,3.6016,3.6016,3.6016,3.5957,3.5781,3.5293,3.457,3.3711,3.2793,3.2252,3.1893,3.1451,3.1077,3.0765,3.0836,3.0836,3.0791,3.0837,3.0836,3.0815,3.084,3.0918,3.0898,3.082,3.0801,3.0625,3.0215,2.98,2.9685,2.9368,2.9269,2.9582,2.9035,2.8861,2.8844,2.8809,2.8672,2.8691,2.8906,2.9199,2.9101,2.8906,2.8897,2.914,2.9508,2.9372,2.8984,2.9219,2.8769,2.8496,2.8476,2.7969,2.7617,2.7637,2.7461,2.7637,2.8164,2.8574,2.9258,2.9551,2.9941,3.0469,2.9766,2.8555,2.7461,2.6465,2.6094,2.5703,2.5684,2.5684,2.5644,2.5586,2.5547,2.5522,2.5537,2.5511,2.5503,2.5434,2.5371,2.5353,2.5325,2.5363,2.5404,2.5344,2.5298,2.5293,2.529,2.5309,2.5344,2.5323,2.5293,4.1191,4.1191,4.1191,4.1191,4.1191,4.1056,4.102,4.0997,4.0881,4.0859,4.0867,4.0714,3.9835,3.866,3.8088,3.7284,3.5732,3.5705,3.5744,3.5803,3.5841,3.5884,3.5895,3.5937,3.5996,3.5996,3.5996,3.5996,3.5996,3.5859,3.5273,3.459,3.373,3.293,3.2422,3.209,3.1426,3.1035,3.0898,3.0898,3.0879,3.0898,3.0898,3.0898,3.0879,3.0879,3.0879,3.0793,3.0739,3.0718,3.0496,3.0382,3.0268,3.0125,3.0162,3.0162,3.0162,3.0027,3.0033,2.9722,2.9551,2.9726,3.0039,3.0351,3.0254,3.0547,3.0664,3.043,3.0469,3.0234,2.9785,2.9512,2.9394,2.9258,2.918,2.8926,2.875,2.8926,2.8711,2.8242,2.8437,2.9023,2.9258,2.9726,3.0117,3.0644,2.998,2.8769,2.7129,2.6133,2.5937,2.5703,2.5703,2.5684,2.5684,2.5664,2.5625,2.5605,2.5605,2.5601,2.5577,2.5514,2.5435,2.5434,2.5419,2.546,2.5485,2.5409,2.5387,2.5385,2.5395,2.5393,2.5409,2.5394,2.534,4.115,4.1079,4.1078,4.1078,4.1076,4.0926,4.0893,4.0869,4.0814,4.0799,4.0774,4.0237,3.9422,3.8443,3.7614,3.6874,3.5802,3.5705,3.5698,3.571,3.5758,3.5769,3.5785,3.5802,3.584,3.5922,3.5945,3.5973,3.6016,3.6016,3.5879,3.5293,3.457,3.4199,3.3633,3.2637,3.1738,3.1152,3.0918,3.0918,3.0918,3.0918,3.0918,3.0918,3.0918,3.084,3.0772,3.0723,3.068,3.065,3.0614,3.0573,3.0548,3.0545,3.0523,3.0543,3.0541,3.0579,3.068,3.0435,3.0345,3.043,3.0703,3.0918,3.0918,3.0918,3.0918,3.0879,3.0918,3.0625,3.0527,3.0391,3.0312,3.0098,2.9902,2.9726,2.9687,2.9805,2.957,2.8926,2.9297,2.9883,3.0,3.0078,3.0469,3.0781,2.9922,2.8945,2.7363,2.6035,2.5859,2.5781,2.5781,2.5703,2.5703,2.5703,2.5703,2.5684,2.5664,2.5642,2.5619,2.5603,2.5544,2.5527,2.5508,2.5538,2.5535,2.5481,2.5452,2.5456,2.5456,2.5459,2.5474,2.5463,2.5404,4.11,4.0993,4.0954,4.0931,4.0918,4.0815,4.0768,4.0761,4.0721,4.0713,4.0674,4.0056,3.9393,3.854,3.7705,3.6883,3.6166,3.5783,3.5678,3.5653,3.567,3.5675,3.5671,3.571,3.5802,3.5872,3.5906,3.5941,3.6016,3.6016,3.5957,3.5742,3.541,3.5019,3.4238,3.3086,3.1777,3.1113,3.0918,3.0918,3.0918,3.0918,3.0859,3.0859,3.084,3.0781,3.07,3.0629,3.0617,3.0573,3.0545,3.0498,3.0474,3.0463,3.0465,3.0463,3.0489,3.0539,3.0644,3.0743,3.0793,3.0781,3.084,3.0918,3.0918,3.0918,3.0918,3.0918,3.0918,3.0918,3.0918,3.0801,3.0762,3.0508,3.0527,3.0391,3.0312,3.0351,2.998,2.959,3.0098,3.0469,3.0469,3.043,3.0293,3.0312,2.9414,2.8711,2.7891,2.6699,2.5977,2.5937,2.5918,2.5801,2.5703,2.5703,2.5703,2.5703,2.5684,2.5664,2.5644,2.5622,2.5624,2.5624,2.5605,2.5617,2.5586,2.5579,2.5559,2.5537,2.5543,2.5551,2.5489,2.5493,2.5477,4.0994,4.0962,4.0791,4.0759,4.0796,4.0726,4.0684,4.0669,4.0567,4.0541,4.0517,4.0352,3.9925,3.9077,3.8093,3.7186,3.6505,3.5846,3.5518,3.5543,3.559,3.5608,3.5628,3.5668,3.573,3.5864,3.5869,3.5902,3.5996,3.5996,3.5996,3.5937,3.5644,3.5215,3.457,3.3066,3.1816,3.1055,3.0937,3.0918,3.0918,3.0898,3.0801,3.0768,3.0717,3.0674,3.0618,3.0563,3.0535,3.0503,3.0457,3.0425,3.0417,3.0406,3.0403,3.0416,3.0411,3.047,3.0598,3.0783,3.0879,3.0898,3.0918,3.0918,3.0918,3.0918,3.0918,3.0918,3.0918,3.0918,3.0918,3.0918,3.0918,3.0918,3.0898,3.0859,3.0762,3.0703,3.0351,3.0156,3.0527,3.0879,3.0879,3.0762,3.0312,2.9824,2.8906,2.834,2.8086,2.7871,2.7246,2.6152,2.6113,2.582,2.5703,2.5703,2.5703,2.5703,2.5664,2.5644,2.5647,2.5632,2.5657,2.5677,2.5645,2.5599,2.5641,2.568,2.5643,2.5609,2.5638,2.5637,2.5572,2.5527,2.5527,4.085,4.0793,4.0738,4.0648,4.0604,4.0582,4.0574,4.0544,4.0523,4.0492,4.0358,3.9996,3.9611,3.8934,3.7911,3.7038,3.6619,3.5888,3.5503,3.5494,3.5541,3.5541,3.5546,3.5566,3.5633,3.5685,3.5725,3.5808,3.594,3.5944,3.5973,3.5918,3.5527,3.4668,3.3984,3.3027,3.2402,3.1191,3.0918,3.0918,3.0879,3.0816,3.0745,3.0691,3.0661,3.0588,3.0527,3.0501,3.0479,3.0435,3.0396,3.0388,3.0404,3.0404,3.0404,3.0404,3.0393,3.046,3.0613,3.0762,3.0898,3.0918,3.0918,3.0918,3.0918,3.0918,3.0918,3.0918,3.0918,3.0918,3.0918,3.0918,3.0918,3.0918,3.0898,3.0898,3.0859,3.0859,3.0723,3.0684,3.0898,3.0918,3.0918,3.084,3.0488,3.0312,2.9629,2.9277,2.9043,2.9394,2.9141,2.7187,2.6328,2.5937,2.5723,2.6016,2.583,2.5644,2.5605,2.5566,2.5581,2.5599,2.5585,2.5576,2.5578,2.558,2.5602,2.5621,2.566,2.5664,2.5683,2.5684,2.5644,2.5625,2.5644,4.0747,4.0695,4.0639,4.0591,4.0504,4.0492,4.0492,4.0492,4.0492,4.0492,4.0377,3.9935,3.955,3.8954,3.7911,3.6865,3.6657,3.5865,3.5503,3.5503,3.5484,3.5498,3.5494,3.5498,3.5573,3.559,3.5631,3.5708,3.5835,3.5876,3.5943,3.584,3.543,3.4863,3.4062,3.3281,3.2246,3.1211,3.0918,3.0879,3.0816,3.0745,3.068,3.0639,3.0584,3.0514,3.0472,3.046,3.0456,3.0414,3.0404,3.0404,3.0404,3.0404,3.0404,3.0404,3.0457,3.053,3.0647,3.0786,3.0898,3.0918,3.0918,3.0918,3.0918,3.0918,3.0918,3.0918,3.0918,3.0918,3.0918,3.0918,3.0918,3.0918,3.0918,3.0918,3.0918,3.0918,3.0918,3.0918,3.0898,3.0898,3.0879,3.0801,3.0625,3.0566,3.0449,3.0155,2.9804,2.9941,3.0078,2.8496,2.7012,2.666,2.6543,2.666,2.6327,2.568,2.5611,2.5664,2.549,2.5508,2.5495,2.5486,2.5498,2.5518,2.5516,2.5551,2.5579,2.5633,2.5639,2.5664,2.5684,2.5703,2.5703,4.0692,4.069,4.0575,4.05,4.0492,4.0492,4.0492,4.0492,4.0492,4.0492,4.0473,4.0435,4.0069,3.9319,3.843,3.7623,3.685,3.6019,3.5635,3.5503,3.5503,3.5503,3.5503,3.5491,3.5528,3.5563,3.56,3.5636,3.5721,3.5802,3.5894,3.5915,3.5644,3.5078,3.4258,3.3281,3.2246,3.166,3.1269,3.1309,3.136,3.1006,3.1055,3.1064,3.1049,3.0888,3.0769,3.0664,3.0523,3.0442,3.0404,3.0404,3.0404,3.0404,3.0404,3.0428,3.054,3.0613,3.0703,3.0835,3.0898,3.0918,3.0918,3.0918,3.0918,3.0918,3.0918,3.0918,3.0918,3.0918,3.0918,3.0918,3.0918,3.0918,3.0918,3.0918,3.0918,3.0918,3.0918,3.0898,3.0879,3.0859,3.084,3.0762,3.0678,3.0662,3.0547,3.0372,3.0005,2.959,2.9668,2.9473,2.8223,2.7578,2.7376,2.6956,2.6371,2.5565,2.5862,2.5931,2.5714,2.5435,2.5418,2.5412,2.5441,2.5457,2.5441,2.5481,2.5531,2.5557,2.5598,2.5625,2.5644,2.5684,2.5703,4.0556,4.0571,4.0519,4.0492,4.0492,4.0492,4.0492,4.0492,4.0492,4.0492,4.0492,4.0492,4.0242,4.0089,3.93,3.84,3.7535,3.6773,3.6042,3.5712,3.547,3.55,3.5493,3.547,3.5518,3.5518,3.5524,3.5546,3.5628,3.5718,3.5834,3.5874,3.5514,3.5013,3.4492,3.3633,3.3105,3.2578,3.2168,3.207,3.2096,3.1869,3.1925,3.2027,3.2028,3.1802,3.1441,3.125,3.1038,3.0538,3.0442,3.0404,3.0404,3.039,3.0411,3.047,3.0544,3.0634,3.0711,3.084,3.0918,3.0918,3.0918,3.0918,3.0918,3.0918,3.0918,3.0918,3.0918,3.0918,3.0918,3.0918,3.0918,3.0918,3.0918,3.0918,3.0918,3.0918,3.0918,3.0859,3.084,3.0767,3.0742,3.0714,3.0644,3.0652,3.0601,3.0447,3.0304,2.9917,2.967,2.9571,2.8692,2.7816,2.7089,2.6622,2.6052,2.5599,2.5909,2.6008,2.5584,2.5359,2.5327,2.5353,2.5384,2.5364,2.535,2.5404,2.5437,2.5487,2.5521,2.5567,2.5606,2.5638,2.5679,4.0492,4.0492,4.0492,4.0492,4.0492,4.0492,4.0438,4.0372,4.0457,4.0492,4.0504,4.0362,4.0151,3.9676,3.9038,3.8201,3.7026,3.6643,3.6051,3.5461,3.5432,3.5391,3.5403,3.535,3.5346,3.535,3.538,3.5409,3.5529,3.5632,3.5741,3.5842,3.5276,3.5222,3.5078,3.4805,3.457,3.4004,3.3516,3.3164,3.2955,3.2811,3.2909,3.307,3.3062,3.2668,3.2224,3.2015,3.1394,3.0868,3.0731,3.0404,3.0404,3.039,3.045,3.0509,3.057,3.066,3.0767,3.0857,3.0898,3.0918,3.0918,3.0918,3.0918,3.0918,3.0918,3.0918,3.0918,3.0918,3.0918,3.0918,3.0918,3.0918,3.0918,3.0918,3.0918,3.0918,3.0879,3.082,3.0742,3.0678,3.0644,3.0613,3.061,3.0601,3.0588,3.0519,3.0541,3.0515,3.0271,3.0134,2.8941,2.7769,2.7057,2.6408,2.6101,2.5854,2.6015,2.5972,2.5483,2.531,2.532,2.5317,2.5317,2.5303,2.5321,2.5332,2.5372,2.5405,2.5467,2.5525,2.5558,2.5585,2.5617,4.0492,4.0492,4.0462,4.0453,4.0446,4.041,4.0267,4.0091,4.0285,4.0414,4.0341,4.0172,3.9685,3.9265,3.8843,3.7783,3.6955,3.6502,3.5999,3.5121,3.5219,3.5219,3.5109,3.5079,3.5075,3.5079,3.5166,3.5316,3.5479,3.5582,3.5693,3.5871,3.5794,3.5739,3.5703,3.5684,3.5488,3.5273,3.4512,3.3925,3.3714,3.3486,3.3326,3.3436,3.3378,3.3167,3.288,3.2386,3.1761,3.146,3.0985,3.0455,3.0404,3.0411,3.0478,3.0547,3.0592,3.0701,3.082,3.0898,3.0898,3.0918,3.0918,3.0918,3.0918,3.0918,3.0918,3.0918,3.0918,3.0918,3.0918,3.0918,3.0918,3.0918,3.0918,3.0879,3.084,3.0801,3.0742,3.0683,3.0648,3.0588,3.0581,3.0558,3.0533,3.0539,3.0506,3.05,3.0558,3.072,3.0661,3.0427,2.9048,2.7731,2.6814,2.6311,2.6265,2.6188,2.612,2.5909,2.5423,2.5308,2.5308,2.5308,2.5308,2.5308,2.53,2.531,2.5322,2.536,2.5413,2.5468,2.5496,2.5512,2.5557,4.0492,4.0477,4.0272,4.021,4.0143,3.9924,3.9789,3.9731,3.9778,3.9826,3.98,3.9727,3.9612,3.9309,3.9067,3.8099,3.7012,3.644,3.5965,3.52,3.4921,3.4944,3.4798,3.4788,3.4788,3.4879,3.4994,3.5231,3.5444,3.5537,3.5607,3.5738,3.5765,3.5834,3.5996,3.6016,3.5976,3.5937,3.5547,3.5059,3.5035,3.4664,3.4446,3.4826,3.4986,3.4456,3.3996,3.3261,3.2439,3.1772,3.0923,3.0507,3.0393,3.0437,3.052,3.0591,3.065,3.074,3.084,3.0918,3.0918,3.0918,3.0918,3.0918,3.0918,3.0918,3.0918,3.0918,3.0918,3.0918,3.0918,3.0918,3.0898,3.0898,3.0898,3.082,3.0748,3.0686,3.0616,3.0574,3.0537,3.0514,3.0501,3.0493,3.0476,3.0447,3.0428,3.0419,3.0422,3.0528,3.0599,3.021,2.8909,2.7696,2.6667,2.6051,2.5933,2.581,2.5656,2.5481,2.5324,2.5305,2.5308,2.5308,2.5308,2.5308,2.5308,2.5296,2.531,2.535,2.5375,2.5425,2.5452,2.5457,2.5485,4.0437,4.0304,3.9998,3.988,3.9835,3.9673,3.9529,3.9408,3.9371,3.932,3.923,3.9327,3.9389,3.9208,3.8914,3.8146,3.6876,3.6472,3.5563,3.4778,3.4591,3.4612,3.4551,3.4478,3.4467,3.4572,3.4949,3.5223,3.5453,3.5518,3.5574,3.5692,3.5717,3.5801,3.5976,3.6016,3.6016,3.6016,3.6016,3.5996,3.5976,3.5555,3.5318,3.581,3.567,3.5292,3.49,3.4107,3.3202,3.2141,3.1141,3.0541,3.0414,3.0462,3.0525,3.0601,3.0666,3.0762,3.0859,3.0898,3.0898,3.0898,3.0898,3.0898,3.0918,3.0918,3.0918,3.0918,3.0918,3.0918,3.0918,3.0918,3.0859,3.082,3.0801,3.0742,3.0688,3.0632,3.0597,3.0581,3.0527,3.0443,3.0454,3.0446,3.0419,3.0419,3.0407,3.0358,3.0361,3.0398,3.0456,3.0001,2.87,2.7278,2.5994,2.5567,2.5486,2.5346,2.5279,2.5308,2.5305,2.5308,2.5308,2.5308,2.5308,2.5308,2.5308,2.5308,2.5308,2.532,2.5344,2.5373,2.5381,2.5418,2.5476,4.0276,3.9988,3.9673,3.9522,3.9535,3.95,3.9308,3.9072,3.9038,3.8937,3.8752,3.8834,3.8924,3.8672,3.7977,3.7117,3.6391,3.5879,3.499,3.4442,3.4428,3.4318,3.4236,3.4194,3.4332,3.4574,3.4916,3.5223,3.5477,3.5511,3.5575,3.5681,3.5738,3.5801,3.5957,3.6016,3.6016,3.6016,3.6016,3.6016,3.5976,3.5946,3.5876,3.5834,3.5802,3.5702,3.5363,3.4781,3.3874,3.2851,3.1617,3.0822,3.0444,3.0467,3.0522,3.0578,3.0642,3.073,3.082,3.084,3.0859,3.0859,3.0879,3.0879,3.0898,3.0879,3.0879,3.0879,3.0879,3.0879,3.0879,3.0859,3.0781,3.0732,3.07,3.0685,3.0616,3.0546,3.0546,3.0534,3.0462,3.0393,3.0379,3.0373,3.0349,3.0355,3.0336,3.0327,3.0327,3.0362,3.0425,2.9677,2.8542,2.7058,2.5494,2.5279,2.5276,2.5229,2.5221,2.5269,2.5308,2.5308,2.5308,2.5308,2.5308,2.5308,2.5308,2.5308,2.5308,2.5308,2.5317,2.5344,2.5348,2.5393,2.5476,3.9983,3.9662,3.9327,3.9186,3.9184,3.8991,3.8826,3.8792,3.8799,3.8742,3.8562,3.8092,3.8092,3.8711,3.7901,3.7008,3.606,3.5395,3.4624,3.4026,3.4105,3.4011,3.4037,3.4246,3.4537,3.4794,3.503,3.5207,3.5456,3.5517,3.5568,3.5682,3.5703,3.5795,3.5957,3.5996,3.5996,3.5996,3.5996,3.5996,3.5996,3.5973,3.5947,3.5923,3.5925,3.5789,3.5478,3.4901,3.4404,3.3592,3.2333,3.1215,3.0629,3.046,3.0511,3.0546,3.0603,3.0661,3.0715,3.0735,3.0741,3.0765,3.0788,3.0801,3.0781,3.0742,3.0742,3.0703,3.0703,3.0742,3.0742,3.0703,3.0644,3.0616,3.0591,3.0593,3.0561,3.0465,3.0384,3.0381,3.0346,3.0311,3.0282,3.0231,3.0075,3.007,2.9985,2.9969,2.9992,3.0163,3.0333,2.9406,2.8374,2.6703,2.513,2.522,2.5227,2.5176,2.5173,2.5261,2.5308,2.5308,2.5308,2.5308,2.5308,2.5308,2.5308,2.5308,2.5308,2.5308,2.5308,2.5317,2.5324,2.5341,2.5414]}]]